GFSCGP_250_spd_000.txt.gz
Wind_Speed
23 28 31 33 35 33 31 31 34 37 35 34 34 37 36 42 44 45 45 42 40 42 39 40 35 35 40 37 41 44 51 55 49 52 54 58 55 46 47 57 63 71 82 88
21 24 24 28 33 35 35 31 33 36 39 35 30 35 36 41 43 43 46 46 46 48 49 50 40 45 49 55 55 56 57 52 50 57 55 60 53 56 57 53 55 53 78 90
25 25 24 25 24 26 30 28 29 32 36 39 37 36 38 41 43 43 44 47 49 51 52 54 52 55 57 58 57 60 58 67 65 63 69 59 57 54 57 58 63 60 57 80
14 18 22 22 23 24 25 28 30 31 33 37 37 37 39 39 40 44 47 50 51 51 52 55 57 56 58 59 61 63 64 66 67 77 77 83 74 61 55 59 65 68 65 67
13 12 15 19 22 22 22 27 29 30 29 32 32 32 34 39 42 45 48 48 51 57 57 56 58 57 58 61 64 66 70 72 70 76 85 84 84 71 64 57 60 62 69 72
9 10 13 16 19 19 20 24 29 34 33 34 32 32 37 37 42 45 49 53 53 54 53 55 56 56 61 65 66 67 70 73 77 85 83 88 88 79 74 69 64 63 66 69
6 9 14 16 17 16 17 21 23 26 32 30 31 29 32 35 41 45 48 50 51 50 53 53 51 57 60 64 67 69 72 76 83 87 92 90 89 89 77 73 65 65 66 71
9 9 12 16 17 17 19 23 18 18 24 33 33 36 29 40 42 44 43 49 53 54 58 61 62 62 66 70 68 70 73 81 85 96 97 95 92 93 79 74 68 68 71 71
18 17 19 16 16 16 20 23 28 28 30 30 37 41 38 41 43 46 49 57 61 64 65 67 70 72 78 80 79 78 81 87 92 101 101 102 97 92 80 73 68 68 68 70
24 20 14 11 16 21 22 25 28 31 34 32 28 40 50 48 50 54 59 62 68 71 73 74 79 79 83 86 89 87 86 91 97 108 107 111 100 97 82 74 69 67 67 69
23 21 20 22 24 26 28 29 32 32 38 38 36 40 51 52 57 60 64 67 69 71 76 83 85 86 89 94 95 95 95 94 102 111 116 114 107 97 85 76 71 68 67 68
33 26 25 29 29 33 36 36 41 41 39 42 43 40 52 58 60 63 66 67 69 72 77 79 84 90 93 99 100 102 102 102 107 113 118 122 104 93 83 76 72 69 67 67
28 28 30 34 34 38 41 45 47 50 50 48 52 51 62 63 66 67 67 69 71 74 78 88 91 96 98 103 104 106 107 107 112 120 123 117 98 89 80 75 72 70 68 68
21 28 31 34 39 40 43 51 56 55 55 52 60 60 63 66 71 74 76 78 77 86 90 94 95 96 99 103 105 105 109 111 115 118 122 112 97 87 78 72 69 68 67 68
24 30 29 39 42 39 43 52 60 62 66 66 59 70 74 74 75 79 81 83 84 87 92 92 92 95 103 105 107 107 110 113 117 122 121 107 94 82 74 70 69 68 67 68
32 29 29 31 38 41 44 58 60 65 68 71 74 69 77 76 80 83 86 88 89 91 96 98 101 102 111 112 112 112 115 116 120 124 117 105 90 79 74 70 69 69 69 70
44 41 38 38 44 45 48 60 60 62 69 74 76 79 78 78 81 83 88 91 94 95 97 101 104 106 111 118 117 117 118 117 121 123 113 99 85 77 72 70 69 69 69 69
49 49 49 46 50 48 56 67 66 68 74 82 78 79 82 81 78 84 92 93 94 99 103 108 111 109 117 121 123 122 123 121 121 122 105 92 79 74 71 69 69 69 68 64
54 55 56 55 53 52 62 71 71 72 72 76 77 78 80 81 80 85 94 96 98 106 111 113 116 117 122 125 127 129 127 125 124 112 97 86 77 72 70 70 69 68 64 61
59 61 59 63 59 55 65 69 70 70 71 74 78 80 83 86 91 87 95 101 107 111 116 120 120 120 126 129 130 132 128 124 119 101 91 82 76 71 69 69 68 65 60 56
60 58 60 63 64 63 70 72 75 78 78 80 85 88 88 91 97 101 104 107 113 119 122 124 125 126 129 133 133 131 126 121 104 93 84 79 74 70 69 68 65 61 57 52
60 64 67 68 72 71 75 77 80 82 82 86 84 90 94 97 101 106 110 115 118 120 123 125 128 129 132 133 135 124 124 107 95 89 81 76 72 70 67 64 62 57 54 50
64 69 69 76 72 77 79 81 83 87 88 87 92 94 101 103 106 111 113 118 122 127 130 129 131 131 134 134 124 122 113 99 91 83 77 72 70 69 65 60 58 53 50 47
71 78 80 79 76 80 82 87 90 89 91 94 97 100 103 108 112 115 120 124 130 133 136 127 127 132 133 127 121 113 101 93 85 77 72 69 69 67 62 56 54 50 48 44
80 86 88 80 83 82 91 95 95 93 97 104 107 110 112 113 117 121 125 131 134 139 131 127 131 131 130 119 115 99 95 87 78 72 70 68 66 63 60 53 51 47 44 41
90 94 95 89 91 95 88 95 100 100 104 109 112 112 115 119 121 124 128 136 134 136 131 130 128 127 122 114 98 96 89 80 73 70 68 66 62 61 56 51 46 44 41 39

GFSCGP_250_spd_003.txt.gz
Wind_Speed
19 23 24 26 26 24 22 22 26 24 25 24 26 28 30 32 34 35 37 41 42 41 35 38 40 40 38 36 37 38 38 40 39 40 43 48 52 56 56 52 53 51 48 55
14 17 18 17 18 21 23 21 24 23 23 21 23 24 27 29 33 35 35 37 38 38 38 37 37 42 45 41 42 43 41 42 43 43 44 51 55 58 62 64 62 60 51 58
14 12 13 13 16 18 20 20 20 19 20 20 21 22 23 27 31 33 38 40 40 38 43 46 43 43 48 48 53 57 54 55 56 60 59 56 61 64 66 73 73 72 65 59
8 7 10 11 11 14 15 20 22 20 21 19 19 24 26 28 32 36 36 36 44 48 51 52 55 57 60 59 59 61 64 65 65 66 70 72 67 68 71 77 81 87 77 62
1 2 4 9 13 13 16 20 21 21 22 22 22 20 23 29 29 32 36 42 48 52 57 59 60 62 64 65 67 67 70 73 76 74 77 78 78 78 80 82 90 92 86 70
5 4 9 10 11 11 16 19 20 20 18 22 22 20 18 27 32 33 39 45 49 54 59 62 60 59 63 65 71 73 75 82 82 84 84 82 84 83 84 87 91 93 93 77
11 11 14 17 17 13 11 14 17 21 24 26 31 31 25 20 31 41 43 48 53 56 59 58 57 60 62 67 71 73 75 80 83 83 85 84 87 87 88 91 94 94 90 79
15 16 17 21 21 16 14 16 16 20 25 27 30 29 32 27 34 38 42 47 50 53 55 58 61 65 69 73 75 76 77 77 84 87 88 89 91 92 93 95 95 96 92 80
16 19 18 16 21 20 19 21 19 21 23 24 31 33 36 45 45 46 50 54 57 60 64 64 65 67 70 74 78 83 84 87 87 90 95 95 96 98 99 98 96 101 89 78
17 19 21 18 20 23 20 20 24 25 27 23 27 31 43 52 54 56 58 59 62 66 68 68 70 71 74 80 80 82 85 91 92 94 99 101 104 108 104 102 98 100 85 78
21 23 22 20 25 28 28 33 35 32 33 32 27 33 51 53 57 61 64 65 69 69 71 69 71 76 76 78 82 88 92 97 98 100 103 106 111 114 111 105 101 93 82 76
23 26 27 25 27 30 37 41 40 39 33 41 32 40 51 53 58 63 67 68 72 71 74 73 77 80 84 83 88 94 98 103 105 108 110 113 116 119 113 108 98 87 80 73
25 26 32 36 34 39 48 50 50 41 39 48 45 48 60 62 65 71 73 74 76 78 76 78 84 86 87 91 94 102 104 109 113 113 114 117 120 122 110 103 92 83 77 72
27 31 35 42 40 38 41 54 58 48 45 41 54 49 61 65 69 73 74 76 77 79 81 84 89 92 94 98 101 106 109 113 118 117 118 119 123 115 109 96 86 81 75 70
37 42 40 45 45 42 42 54 59 59 58 57 50 64 66 70 73 73 76 78 80 81 85 90 92 95 99 103 107 109 116 121 121 118 117 119 121 112 103 90 83 79 74 70
45 47 37 43 45 43 44 56 64 64 65 66 67 64 73 72 74 78 80 84 85 88 93 94 95 97 102 107 111 116 121 124 124 120 120 118 117 109 95 87 81 76 71 68
38 38 39 39 48 47 52 58 63 63 66 68 67 68 70 75 80 83 84 87 88 89 92 96 100 103 106 110 116 119 125 126 130 124 120 120 112 101 91 84 79 75 70 68
44 45 45 44 49 50 55 60 63 63 69 74 76 78 80 81 82 86 91 89 88 92 95 101 104 106 111 116 121 126 129 132 135 128 126 116 105 93 88 81 76 72 69 66
52 52 54 56 54 53 58 68 66 69 70 76 81 82 83 86 87 89 95 94 95 101 103 106 109 112 116 123 128 131 137 134 136 127 123 107 96 92 85 79 74 71 67 65
63 66 66 66 63 60 68 75 72 74 75 76 82 86 89 93 95 94 96 97 100 102 108 109 113 119 125 130 133 139 143 136 134 123 113 100 92 89 81 75 72 69 66 62
65 66 67 70 69 64 72 74 75 77 79 84 91 93 93 97 102 103 102 102 104 110 114 117 124 127 133 138 140 145 137 136 128 119 104 94 90 83 77 72 70 67 62 60
69 69 70 73 77 75 79 80 84 83 87 93 90 95 98 100 102 104 106 107 113 116 121 128 131 135 136 144 148 141 132 131 118 105 95 91 84 78 72 68 67 64 58 57
74 80 79 85 83 85 86 88 90 97 99 99 102 102 104 104 106 107 109 116 122 125 132 133 137 142 145 150 149 132 129 118 106 96 91 85 78 72 69 66 64 60 57 53
77 85 87 90 88 90 91 95 100 103 105 104 107 111 112 114 115 115 118 123 127 131 134 140 144 149 154 146 135 126 117 106 96 91 85 78 73 70 67 64 60 57 54 50
91 95 100 93 93 97 99 104 106 108 108 110 113 117 121 124 124 126 127 129 133 135 140 145 146 153 137 130 124 116 104 94 90 84 78 73 70 66 65 61 57 55 50 47
96 102 104 102 101 105 100 107 114 114 116 119 124 126 128 130 133 135 136 138 140 145 147 146 152 129 122 120 114 101 91 88 84 77 73 70 67 65 62 58 55 50 48 45

GFSCGP_250_spd_006.txt.gz
Wind_Speed
9 11 13 11 11 11 12 15 16 17 17 16 18 18 20 24 26 26 26 34 39 41 42 42 44 45 44 44 47 49 53 54 55 56 58 60 58 57 57 54 49 53 51 55
5 7 6 7 10 12 12 12 13 13 13 16 18 17 18 20 22 24 27 33 36 40 43 44 42 43 44 42 45 50 53 54 56 59 60 63 65 63 64 65 62 60 63 65
1 3 6 6 7 7 7 10 9 11 13 15 14 15 18 18 19 21 24 31 35 39 41 42 44 44 43 45 47 50 53 54 54 57 61 61 64 68 69 71 72 68 68 68
5 6 7 7 11 11 7 11 10 8 9 12 14 15 14 17 21 28 32 31 35 35 40 43 47 50 52 52 55 57 57 57 57 56 63 68 68 68 73 77 80 82 78 80
11 10 12 12 13 15 15 15 12 9 13 19 21 22 14 17 23 26 31 38 40 44 47 51 52 55 58 58 59 58 61 61 62 63 65 68 75 76 81 86 89 91 92 92
12 14 16 19 21 20 21 21 19 20 23 22 28 28 29 25 18 29 35 36 40 46 49 53 59 61 63 62 59 62 63 65 68 69 75 78 77 84 89 95 99 98 100 98
13 17 19 22 25 26 23 21 23 24 24 28 23 27 34 36 37 39 41 42 44 49 53 56 58 62 61 61 63 64 66 69 73 78 81 81 84 88 95 101 102 101 98 98
18 11 16 19 23 24 24 19 20 20 22 27 35 37 43 37 39 41 38 42 47 48 52 53 57 58 58 61 66 71 72 73 76 78 80 83 88 94 100 106 105 104 103 103
16 15 17 18 22 23 23 27 25 24 28 29 35 39 49 47 45 45 48 48 49 54 58 62 63 65 66 69 72 77 83 84 85 86 89 91 97 101 103 110 109 109 108 106
18 20 20 17 20 22 26 29 31 30 32 29 37 36 51 46 52 57 60 62 63 64 65 67 69 71 73 77 79 82 84 86 90 91 94 98 103 107 110 116 114 113 110 111
20 21 23 23 23 24 26 32 34 37 38 32 30 35 52 49 56 62 64 65 66 66 71 74 76 77 79 78 82 85 85 88 92 95 99 105 110 115 118 122 119 119 114 111
27 22 27 27 30 31 32 37 39 37 34 39 39 42 58 60 59 59 62 65 68 73 78 80 82 85 87 86 85 86 89 93 97 99 104 110 117 119 125 126 119 117 112 106
33 33 28 34 34 36 45 55 53 46 42 44 41 46 58 62 63 67 69 71 76 80 84 86 87 88 91 95 95 95 95 96 99 104 112 115 122 127 130 129 115 113 108 100
38 39 36 38 46 48 45 52 59 57 51 48 55 48 59 62 65 70 74 76 81 85 87 89 91 93 96 100 98 100 101 103 109 116 118 119 129 133 133 120 114 109 103 93
39 45 47 48 45 41 42 47 54 58 61 60 56 63 65 69 73 75 80 82 84 85 90 94 97 100 103 103 104 106 105 113 117 123 124 129 133 139 125 115 109 103 97 89
33 36 37 38 45 43 44 52 56 60 62 65 66 68 76 76 80 83 83 85 85 90 95 97 99 103 106 107 106 107 112 118 122 126 130 135 135 135 114 109 105 99 92 87
37 37 37 39 47 50 54 60 64 64 67 70 71 73 75 78 80 82 85 88 90 97 99 99 103 105 107 110 113 118 122 126 131 134 136 136 136 117 109 106 101 94 88 82
44 48 49 49 52 51 58 70 73 69 72 74 74 77 81 82 86 90 93 94 97 103 104 105 108 110 114 119 121 125 130 135 136 139 140 139 121 113 108 102 94 89 83 76
56 56 58 57 59 61 66 76 76 75 74 80 81 85 87 89 88 92 99 101 106 111 112 113 115 117 119 125 128 134 137 139 139 139 137 129 117 109 102 94 89 84 77 73
61 64 64 65 63 63 72 76 80 83 82 86 90 94 96 97 99 99 105 109 112 115 117 120 122 129 130 132 136 139 139 139 137 135 130 116 111 101 92 88 84 77 73 70
62 63 67 70 75 72 81 82 83 86 84 89 94 98 99 101 107 111 111 113 117 120 124 129 132 135 137 139 141 141 137 132 126 122 111 110 100 92 88 83 77 73 71 69
68 72 75 78 81 78 84 87 90 93 92 98 97 101 105 108 111 116 120 124 126 127 132 135 138 140 140 136 131 127 126 119 113 105 104 98 91 86 82 77 73 71 69 67
76 82 82 86 89 89 89 93 94 100 103 103 107 110 114 121 123 126 129 131 133 135 136 132 131 128 124 122 121 119 112 106 103 101 94 88 84 83 78 72 69 68 67 64
81 88 88 87 90 95 94 98 105 107 109 112 116 117 119 124 125 129 129 130 132 130 125 124 120 120 119 114 108 102 101 101 94 89 85 83 81 78 72 69 66 64 63 60
92 97 103 95 97 100 101 110 113 116 116 116 117 121 123 125 126 128 127 125 122 119 118 116 112 109 104 98 98 98 96 90 87 84 83 80 76 71 69 67 64 63 59 56
99 105 108 103 104 110 108 109 110 114 116 118 122 125 125 127 122 120 119 115 113 110 105 101 100 99 99 97 94 92 90 87 85 83 79 74 70 68 66 64 64 58 57 51

GFSCGP_250_spd_009.txt.gz
Wind_Speed
3 7 6 3 3 1 3 6 7 8 9 9 10 11 12 13 15 17 21 24 25 26 27 28 31 33 36 40 40 36 37 36 39 40 40 42 42 47 50 53 53 54 57 62
4 3 2 2 1 2 2 2 3 5 7 10 8 7 7 9 13 19 24 26 25 25 28 30 32 36 41 41 42 39 41 40 43 46 50 51 50 54 57 58 58 60 63 67
7 7 2 3 4 6 5 4 10 9 6 7 10 9 12 16 17 16 20 23 27 30 33 36 39 39 43 47 48 48 44 46 47 50 54 57 57 59 63 63 62 63 67 72
12 10 9 8 11 12 10 12 15 11 10 14 16 15 10 14 18 20 22 27 31 34 38 42 43 44 46 50 52 53 54 57 59 61 60 63 65 65 66 70 72 72 76 81
13 18 17 14 16 19 19 17 18 14 14 15 20 22 15 13 13 14 19 28 29 35 44 47 48 49 50 53 57 58 61 66 68 67 65 65 64 69 73 75 77 81 87 88
17 17 17 20 23 24 23 23 19 18 22 19 24 30 36 32 31 25 24 26 28 36 42 50 54 55 56 56 60 66 68 69 71 73 73 73 72 75 77 80 81 91 94 95
16 18 20 17 17 16 22 21 22 21 22 30 27 32 39 42 42 40 37 37 41 45 47 49 52 53 50 56 63 65 66 68 73 74 75 78 79 82 82 84 91 98 103 106
17 16 20 19 18 21 22 22 22 25 28 29 37 40 48 45 45 44 43 45 49 54 54 51 51 53 55 60 64 67 68 71 76 82 84 86 87 88 89 89 95 102 106 113
18 17 18 20 18 22 23 24 26 28 28 29 32 44 55 51 49 51 47 51 51 55 55 57 58 62 65 69 72 75 77 82 83 86 90 93 96 96 96 95 100 106 115 117
22 22 21 21 22 24 27 30 33 35 34 34 36 41 51 54 54 57 58 58 64 68 68 72 73 74 75 78 80 81 87 87 86 89 94 97 99 102 103 107 109 115 121 122
25 28 26 27 26 27 29 33 31 36 39 41 34 39 52 50 52 54 59 66 65 70 71 75 80 82 83 82 84 85 90 94 93 96 100 105 107 107 112 114 116 121 124 123
29 31 39 36 34 33 35 42 46 40 37 44 38 44 54 58 60 62 65 69 72 76 80 81 82 84 84 86 88 93 97 101 102 104 107 109 112 114 118 121 125 129 128 124
39 40 43 46 41 41 44 53 56 48 45 45 44 47 55 58 60 64 68 73 76 77 81 85 85 87 90 92 96 100 103 107 110 112 111 113 116 122 124 127 128 129 126 115
41 44 40 44 44 40 39 42 47 49 48 47 59 55 66 69 71 73 74 76 76 79 85 88 93 96 98 101 104 108 111 114 117 118 118 120 123 126 128 132 130 120 111 105
26 32 30 36 34 35 38 44 49 53 58 59 59 68 70 72 73 75 77 80 83 86 89 94 96 98 103 108 112 115 117 119 122 125 128 130 132 131 128 120 114 109 105 98
30 31 32 39 44 45 48 55 56 59 62 64 64 65 72 75 79 83 84 86 90 94 95 98 101 105 108 113 117 120 122 125 131 131 130 129 122 118 114 110 105 98 91 86
41 39 37 40 46 49 52 58 58 59 62 65 70 72 75 80 83 87 89 89 92 96 100 103 107 111 116 122 126 129 131 130 128 129 127 123 119 114 108 99 93 92 85 78
45 47 48 47 51 51 62 64 64 64 69 73 78 78 81 84 84 90 96 99 103 106 109 113 119 122 124 129 131 129 127 123 121 122 118 112 106 99 92 91 87 81 76 74
48 50 50 51 49 51 64 66 68 69 75 82 84 87 89 92 94 96 102 105 108 113 118 121 122 126 127 128 126 122 117 118 114 110 105 98 92 89 85 80 78 76 76 76
54 56 60 61 59 61 71 71 76 80 78 84 88 93 96 99 103 102 108 112 114 118 119 122 121 123 123 120 117 117 112 108 102 96 95 92 86 80 79 79 78 78 77 72
61 63 65 68 69 71 78 80 84 87 87 88 96 99 101 105 110 112 110 111 118 121 120 118 119 120 116 112 108 105 100 97 94 90 86 82 79 78 78 78 78 76 71 66
66 71 72 73 76 81 87 87 93 93 90 103 103 105 108 111 109 114 118 120 125 120 118 118 116 113 108 104 101 98 93 91 89 86 83 82 81 79 78 78 75 70 64 62
74 79 79 84 80 86 89 92 94 101 106 109 110 109 111 112 118 120 120 127 123 123 120 114 109 104 103 102 97 96 96 91 89 86 85 82 80 80 78 75 70 63 60 59
80 83 85 87 86 85 89 95 102 108 111 110 112 115 116 119 122 127 135 128 125 122 112 106 101 98 99 97 95 94 92 91 90 88 85 83 80 77 75 70 63 60 57 57
82 86 88 84 91 92 94 100 104 109 114 112 115 118 123 129 132 135 135 127 126 116 106 100 98 97 96 95 94 94 94 92 90 87 83 79 77 75 70 65 61 57 54 55
89 94 96 90 96 103 102 108 114 121 123 121 119 120 127 135 134 132 126 125 117 104 97 97 98 97 96 96 94 93 92 90 85 81 79 77 73 68 63 60 59 54 52 52

GFSCGP_250_spd_012.txt.gz
Wind_Speed
1 2 2 6 2 2 4 7 7 6 4 3 3 3 3 2 3 7 11 13 11 11 20 20 25 30 32 33 36 35 38 37 36 39 41 44 45 44 44 44 44 45 49 52
6 4 4 3 3 4 4 11 10 9 7 6 7 10 12 6 4 10 12 12 12 18 23 26 30 33 37 39 42 42 41 39 38 40 44 44 46 48 51 53 55 56 57 58
10 10 7 5 6 8 11 12 11 14 14 15 15 15 19 23 19 20 26 25 25 26 28 34 36 40 45 46 48 48 47 44 43 48 50 51 55 60 63 64 65 66 64 66
12 13 12 12 9 9 12 15 16 18 19 19 23 22 15 12 18 23 24 30 35 36 36 40 45 51 54 54 55 56 56 57 54 60 61 60 62 68 69 68 69 71 70 72
16 14 15 18 17 19 21 18 19 18 20 23 23 26 20 19 24 26 25 28 30 34 38 39 46 51 53 55 58 61 66 68 67 68 71 70 71 72 73 76 77 80 81 83
16 17 16 15 15 18 19 18 19 21 23 24 25 31 28 29 21 19 23 30 34 36 39 43 49 52 55 58 62 67 70 69 72 73 73 75 78 77 79 81 84 88 89 92
19 19 20 17 18 18 19 22 22 22 26 29 29 36 36 39 39 40 37 39 40 46 47 50 52 56 59 61 65 68 69 70 71 73 76 79 81 84 85 88 92 97 97 98
23 22 22 21 18 19 19 21 24 24 23 29 37 43 43 46 47 45 47 49 50 53 55 55 59 63 65 68 70 71 72 74 75 79 81 84 89 94 98 99 102 104 107 106
24 24 23 22 24 24 24 25 26 29 29 27 35 48 61 54 51 51 50 49 55 59 62 65 69 71 73 72 73 76 78 83 86 88 90 93 98 103 106 107 109 112 114 116
25 24 24 27 28 29 30 35 31 29 28 31 36 49 55 52 50 50 55 59 63 67 69 68 68 70 72 76 80 85 89 90 91 94 97 100 104 108 113 115 118 121 123 124
28 30 28 28 28 31 38 40 38 39 43 47 40 41 47 46 48 50 57 62 65 66 69 74 77 79 82 84 87 90 95 99 102 103 105 108 112 118 121 125 127 127 125 120
29 33 34 33 32 39 48 49 44 40 38 38 35 39 45 49 52 55 60 64 69 73 76 79 82 85 87 90 94 99 102 104 108 111 115 118 123 127 128 128 126 123 121 115
32 36 39 38 43 45 51 53 40 34 37 39 44 45 54 53 57 62 64 70 72 75 79 83 86 89 93 96 100 104 108 109 114 119 124 126 126 125 125 127 124 117 112 108
25 31 36 39 37 31 37 42 42 44 47 48 54 51 59 60 61 65 72 77 79 82 85 89 91 93 98 102 105 106 107 115 120 124 123 123 121 122 121 113 108 104 101 95
23 24 27 31 33 37 44 46 50 54 56 55 57 60 61 65 69 74 78 79 81 86 91 94 97 100 104 107 109 112 116 120 121 119 117 116 116 113 106 101 97 94 91 90
31 33 35 41 43 44 48 48 48 51 54 58 61 65 68 71 76 78 81 83 90 96 99 101 104 108 111 112 114 116 119 116 115 115 114 111 108 101 98 93 87 82 78 75
34 36 40 44 47 47 51 52 56 59 65 66 68 71 76 79 81 86 88 89 99 103 105 106 107 108 110 114 118 120 116 113 111 108 105 102 100 97 95 90 87 82 78 76
42 42 42 42 44 46 62 56 60 63 70 73 74 76 81 83 83 88 95 98 102 109 109 112 115 117 117 122 120 114 111 107 103 99 98 97 95 93 90 84 82 79 79 75
46 48 48 51 51 53 66 63 66 68 72 77 79 82 85 88 87 92 97 105 112 113 117 121 120 119 122 123 116 113 108 102 98 94 94 95 94 91 89 85 82 79 78 75
53 55 57 59 62 62 70 71 74 75 76 81 84 85 88 92 94 99 106 108 114 118 123 131 127 125 125 119 113 111 103 98 96 95 96 95 93 89 85 81 78 76 72 70
59 61 66 68 68 70 78 80 82 81 80 83 87 87 94 102 107 111 113 116 122 127 133 134 130 131 129 120 115 105 100 98 97 96 95 93 90 86 82 76 71 69 68 66
67 69 72 72 75 80 81 83 87 87 86 89 92 99 104 110 113 117 122 126 128 133 138 136 133 130 123 117 108 104 102 100 99 97 94 92 87 81 75 72 69 67 64 60
72 74 74 78 76 84 86 90 91 94 95 98 105 109 113 116 120 126 130 133 135 139 138 134 133 124 116 108 105 103 102 101 98 95 92 88 82 77 72 69 67 63 58 55
72 78 80 83 85 88 91 94 97 100 103 109 113 114 119 123 127 132 136 138 140 138 135 131 124 115 107 105 105 103 100 97 93 90 86 80 76 73 69 65 60 55 52 50
81 85 87 89 93 91 98 99 102 107 113 116 117 122 127 129 132 134 137 136 133 133 128 119 115 111 108 103 99 96 93 89 87 82 79 75 71 69 65 59 55 52 46 47
89 90 95 96 99 101 100 104 108 112 114 117 124 132 133 133 135 138 135 134 134 125 117 112 110 107 102 99 94 90 87 84 78 75 72 70 66 61 57 55 51 47 43 43

GFSCGP_250_spd_015.txt.gz
Wind_Speed
7 6 6 5 7 7 4 8 8 9 10 12 13 13 11 14 15 11 14 15 20 25 29 33 34 33 36 38 41 41 40 38 39 41 46 50 53 55 54 55 53 54 56 55
9 10 9 7 6 4 7 10 14 14 14 17 18 14 15 17 21 22 22 25 27 27 31 35 37 38 41 43 45 47 45 44 44 47 52 57 59 60 61 62 60 59 61 63
12 14 11 9 8 10 11 15 17 17 18 22 23 25 22 22 27 21 26 30 30 29 36 41 41 46 50 52 54 55 55 56 57 57 60 61 63 62 64 67 68 68 69 70
14 15 15 15 15 15 16 17 19 21 23 25 26 24 26 31 28 28 27 32 38 35 43 44 45 48 50 54 57 60 61 64 67 67 66 65 66 67 68 69 74 79 80 80
16 16 15 15 16 19 20 20 21 17 20 22 24 25 24 28 30 30 34 31 32 42 43 45 48 49 52 56 59 60 63 66 68 70 70 71 74 76 79 82 83 86 88 89
20 19 16 16 18 20 21 18 19 22 23 23 25 27 28 29 32 34 38 41 43 41 41 42 45 49 52 57 60 63 65 66 69 71 75 77 80 82 84 88 92 95 97 98
26 22 20 18 19 22 22 21 23 25 26 28 29 31 32 32 30 32 42 43 41 43 45 46 50 53 57 60 61 63 67 70 73 78 82 85 87 90 94 97 99 101 103 105
29 27 23 21 21 21 21 25 27 26 28 35 39 41 41 41 37 44 39 36 41 45 48 51 55 57 61 66 69 72 75 77 81 84 87 93 96 99 102 106 109 112 111 112
27 27 24 24 25 24 23 26 27 27 32 36 45 54 56 49 49 43 38 44 49 52 55 58 61 64 70 73 77 80 84 87 91 93 94 98 101 104 107 112 114 117 117 115
24 27 26 27 26 28 29 28 29 32 37 41 45 54 51 47 41 47 53 55 57 60 62 64 69 73 79 82 85 88 92 95 96 96 100 103 108 112 116 119 121 121 116 112
24 27 27 29 32 35 35 35 37 41 47 45 35 39 43 45 47 53 57 60 61 63 67 72 78 84 86 88 89 91 95 96 98 106 110 114 115 118 119 122 119 117 114 109
21 28 28 30 35 39 39 41 42 40 37 36 36 42 46 50 55 57 59 62 65 70 75 80 84 86 87 88 91 99 102 106 111 116 118 120 119 118 120 115 111 111 106 100
15 19 23 29 34 40 39 35 33 34 38 41 45 49 55 51 53 57 63 68 71 76 78 81 82 84 89 92 99 105 109 113 117 120 122 123 118 119 113 108 105 103 97 92
20 20 21 21 24 30 35 38 41 43 45 45 49 47 56 59 63 66 70 73 75 78 80 82 86 90 97 103 105 110 114 118 121 124 126 124 122 112 105 103 99 96 93 91
27 28 29 30 32 35 42 45 48 46 47 46 51 57 61 64 68 72 75 77 79 81 83 87 96 99 105 109 112 118 123 125 129 131 128 123 115 108 100 98 95 93 92 91
29 29 31 38 38 41 46 47 47 49 53 54 58 63 67 72 76 77 78 80 83 83 89 97 102 109 112 116 121 126 129 131 130 124 121 111 107 102 97 94 92 89 87 85
34 33 36 43 46 48 51 51 53 55 61 62 63 69 74 77 80 82 82 86 89 93 100 106 111 116 121 125 126 127 130 129 123 118 110 105 100 97 95 93 91 89 88 86
42 42 46 47 48 50 63 56 58 62 67 70 72 76 78 81 84 86 89 92 97 103 107 108 115 120 128 130 130 131 132 127 121 113 106 101 97 95 92 92 89 86 83 79
46 49 51 54 52 53 67 64 66 68 68 75 76 80 83 87 88 91 95 101 107 109 112 117 126 130 135 137 135 132 129 127 116 109 104 101 98 95 90 86 83 81 78 73
53 54 56 59 57 59 70 67 69 71 73 79 82 86 89 91 92 96 97 104 113 117 122 126 131 138 140 141 136 131 127 118 112 110 106 100 94 89 85 81 79 75 71 68
58 59 63 64 66 66 73 74 79 80 81 82 88 91 93 98 101 104 108 113 119 123 125 133 137 143 143 139 134 129 121 115 112 107 101 96 89 83 80 77 71 67 65 62
62 63 64 68 73 76 80 80 81 84 86 91 95 97 101 105 110 113 116 120 124 130 134 139 142 142 138 134 127 120 117 114 108 103 97 89 84 79 74 70 65 62 59 58
64 71 71 77 75 82 84 83 86 88 92 96 102 105 108 112 113 117 122 127 130 135 138 144 144 139 132 124 118 114 111 105 98 92 86 82 77 72 69 65 61 57 53 53
70 77 75 80 80 85 88 92 94 95 100 103 108 112 115 119 126 129 130 134 137 141 141 142 137 127 121 116 113 109 103 94 87 83 78 72 69 65 62 58 54 52 50 48
75 79 83 82 85 89 93 98 100 102 107 110 112 115 121 127 131 133 136 138 141 143 139 133 126 118 114 111 106 99 92 87 82 76 72 68 65 61 58 55 52 50 46 45
85 88 88 88 93 96 98 103 104 109 114 118 119 124 129 135 139 140 139 141 141 136 132 122 116 113 110 103 96 90 85 80 76 72 68 64 60 57 55 52 50 46 44 42

GFSCGP_250_spd_018.txt.gz
Wind_Speed
12 10 9 7 8 8 6 8 8 10 13 15 15 16 18 18 21 23 25 27 30 30 33 36 37 37 43 45 48 47 48 48 49 51 52 54 57 58 59 60 60 62 63 65
12 10 11 10 9 10 12 9 9 12 16 17 18 20 22 22 28 28 29 30 31 34 38 42 44 43 46 48 48 49 49 51 54 55 57 56 57 58 61 65 66 66 68 68
14 14 14 13 12 12 12 12 13 15 19 23 24 25 26 30 35 33 33 33 35 39 42 43 46 49 49 48 50 52 54 57 58 59 59 62 64 64 66 70 73 76 78 79
16 14 17 16 16 15 15 17 18 21 24 23 21 23 22 25 30 32 32 33 37 42 46 48 53 54 51 52 53 55 58 60 63 65 67 67 69 72 76 78 80 83 85 88
19 18 17 17 17 18 19 22 22 23 21 18 17 20 21 24 26 27 31 36 43 45 48 55 50 49 49 52 55 58 60 62 66 70 73 75 76 80 83 87 89 92 94 96
24 22 20 18 20 22 19 18 21 22 18 18 19 22 26 27 27 26 30 36 43 46 53 49 46 48 52 57 60 63 67 69 73 79 82 83 85 87 89 90 93 96 97 101
26 27 25 21 22 23 24 22 21 20 21 21 23 26 31 34 35 37 42 45 48 49 45 47 52 54 57 58 61 65 69 75 79 81 83 85 88 93 97 98 99 103 105 108
24 27 26 27 24 24 25 24 22 21 24 27 30 36 38 40 38 40 38 37 38 43 48 52 55 59 63 65 68 72 77 79 81 82 84 90 97 101 103 107 110 112 114 115
21 24 25 28 29 26 26 26 25 26 27 31 40 48 45 44 41 38 42 44 49 53 56 57 60 65 69 71 75 77 81 83 87 90 94 99 105 108 112 115 119 118 118 116
17 22 26 26 28 28 27 29 28 30 31 35 43 54 52 39 41 47 49 54 53 55 60 63 68 72 75 79 82 85 86 86 93 97 101 105 111 115 116 117 118 119 116 114
14 16 22 26 28 27 29 30 31 34 37 38 33 49 45 48 53 55 54 55 59 62 65 71 76 80 83 84 86 87 89 96 102 104 109 112 117 120 120 120 118 115 114 111
12 12 15 23 28 30 31 32 33 34 36 37 37 45 49 48 48 50 55 57 63 68 71 75 80 82 83 85 88 93 100 103 106 111 117 121 123 127 124 120 119 116 112 105
15 12 12 15 19 20 23 25 28 32 37 41 44 45 46 46 52 55 59 63 66 71 73 77 79 81 85 89 94 99 106 108 113 118 123 126 128 132 127 123 120 111 105 100
24 23 24 26 30 31 31 32 33 36 39 40 46 45 52 57 61 64 65 67 70 74 79 81 83 88 93 98 101 106 112 118 121 126 127 132 134 131 126 118 109 101 98 96
33 33 30 32 31 32 36 37 41 41 43 41 47 53 57 62 64 68 71 75 77 81 83 86 91 95 99 105 108 114 120 125 129 131 135 136 132 123 116 109 103 101 99 95
32 31 33 36 34 37 44 46 47 50 51 51 54 57 63 67 71 73 77 78 81 85 88 93 97 103 107 112 118 123 128 131 135 136 137 133 124 115 109 105 102 97 93 88
34 34 35 39 40 46 51 51 47 50 55 57 60 65 69 73 76 79 81 84 86 90 97 99 101 106 114 121 128 131 133 133 137 136 131 123 112 108 106 102 96 92 87 82
39 38 36 39 43 46 59 52 50 53 58 64 67 71 73 75 77 81 84 89 94 100 106 107 111 117 122 130 139 144 138 134 134 127 120 112 109 108 104 98 92 86 82 79
43 45 44 44 47 45 59 58 59 60 63 70 71 74 78 80 82 89 92 97 100 104 112 114 118 125 130 136 146 141 134 129 125 117 112 111 108 103 97 92 87 81 76 72
51 51 50 51 52 51 60 60 61 64 67 72 75 80 85 88 91 94 95 100 107 113 117 119 129 135 139 146 140 133 129 123 115 112 111 108 102 96 91 85 79 74 70 68
53 54 55 58 56 55 62 65 69 72 73 77 82 88 92 96 98 99 103 109 115 119 123 132 141 142 145 140 133 126 121 115 112 111 105 99 93 89 84 79 74 70 66 63
57 58 62 61 63 64 69 73 77 80 81 86 91 92 96 100 103 108 112 115 120 127 134 141 150 147 143 132 124 119 116 114 111 104 95 89 84 80 76 72 69 65 60 58
62 67 64 66 67 74 76 80 84 86 87 90 98 101 105 107 112 116 121 124 129 134 140 149 148 143 134 123 118 115 114 110 101 92 86 82 78 73 69 66 61 60 57 54
66 70 68 69 76 80 83 85 90 95 98 103 106 108 110 114 118 120 126 128 130 141 143 150 143 132 123 118 114 112 106 97 90 85 81 77 73 69 63 59 57 55 54 53
69 69 73 78 81 83 88 90 95 101 105 108 110 114 117 119 127 132 133 136 141 145 150 143 131 124 117 113 111 105 97 90 85 81 77 73 68 64 61 58 55 54 51 51
76 81 84 86 91 93 94 98 103 106 109 112 118 122 124 129 132 135 138 141 145 152 149 134 126 116 113 108 103 98 91 85 81 77 71 68 65 61 58 57 56 51 50 48

GFSCGP_250_spd_021.txt.gz
Wind_Speed
17 17 15 12 9 9 9 9 9 8 10 10 14 17 19 21 23 25 23 29 35 37 36 38 37 40 41 43 44 46 47 48 48 47 48 50 51 55 57 58 62 63 63 64
14 12 12 10 6 5 8 8 8 10 10 10 13 19 22 23 24 26 30 33 32 35 38 39 41 44 46 49 47 46 47 48 49 52 55 57 60 62 64 65 64 66 67 71
14 12 10 11 11 8 10 12 12 14 15 16 17 20 21 21 23 26 28 30 34 37 39 42 44 45 48 50 46 47 50 53 56 59 61 63 66 67 67 68 69 72 73 76
15 14 13 11 13 14 15 17 17 18 19 21 20 18 20 21 22 23 25 31 36 41 44 44 46 51 53 54 52 56 57 59 61 64 67 70 71 71 73 74 75 79 83 86
17 17 16 17 18 19 19 20 21 22 19 19 17 17 18 18 20 25 30 36 42 43 46 50 50 49 49 51 56 58 60 63 67 70 74 74 75 77 77 79 84 90 92 92
20 21 21 22 22 21 21 20 19 18 19 18 17 17 19 24 25 28 39 41 43 43 38 39 42 47 52 54 56 59 64 67 71 73 77 80 82 82 83 88 92 93 96 99
20 23 25 26 27 26 23 21 19 20 21 20 20 22 26 29 33 37 40 41 36 37 41 44 47 48 50 55 59 64 69 73 76 79 81 83 85 88 91 97 99 102 105 108
18 19 22 26 26 28 26 25 22 21 19 22 24 27 31 35 39 40 39 39 42 45 46 47 50 55 59 63 67 70 72 75 78 81 83 87 92 96 101 106 111 115 117 117
15 17 19 20 24 26 30 29 26 23 23 27 31 31 37 37 35 38 42 44 46 45 48 54 56 61 65 69 73 74 78 83 85 88 91 95 100 104 108 113 120 124 124 124
13 14 15 18 20 21 28 28 27 26 26 29 37 41 32 35 39 43 44 45 46 51 55 59 63 66 69 71 75 80 86 91 93 95 98 102 109 114 117 122 131 129 123 122
11 12 13 13 15 16 18 24 25 27 30 30 33 49 40 42 44 44 45 47 51 56 60 63 66 70 74 78 82 84 88 92 95 99 106 114 120 125 127 132 133 126 121 117
12 11 12 13 16 16 16 19 22 20 24 30 32 42 42 43 44 48 51 53 57 60 65 69 72 77 80 83 84 88 95 99 101 110 115 123 130 133 131 131 127 122 116 113
19 19 20 20 21 23 25 25 26 26 27 32 36 40 44 43 45 48 51 55 60 66 69 73 75 77 80 86 89 95 99 104 106 115 125 129 138 137 132 130 122 115 109 103
27 26 27 29 28 27 27 25 27 29 33 36 47 40 47 46 50 56 61 64 67 70 72 75 78 83 88 93 96 101 106 109 116 126 128 140 143 134 124 118 113 107 104 103
26 29 29 29 28 29 33 33 30 30 34 37 41 45 49 53 58 63 66 70 71 75 78 81 86 90 93 96 100 106 112 118 124 132 138 143 131 123 117 110 105 102 101 99
30 28 31 35 30 33 38 37 38 38 43 44 45 50 54 59 63 67 70 72 75 77 82 86 92 95 97 102 105 110 116 122 130 132 144 130 121 115 109 102 102 99 95 89
34 32 30 34 35 40 44 42 41 44 49 51 53 55 59 65 67 70 73 76 81 83 91 95 98 101 105 108 112 117 123 125 133 138 130 117 111 108 107 104 97 91 87 82
37 36 35 36 39 40 50 46 46 50 55 56 58 63 67 69 73 79 82 86 91 94 100 105 107 110 112 117 123 128 131 132 135 128 115 110 109 106 101 96 91 86 80 76
41 38 38 40 38 41 53 51 54 56 58 61 64 69 75 80 80 85 90 95 97 102 107 109 112 116 119 125 129 134 136 131 124 114 110 108 106 101 95 89 84 79 75 71
47 45 45 42 41 45 52 54 58 61 61 66 70 76 81 84 85 90 96 100 105 110 113 114 121 124 128 131 134 133 127 119 111 108 107 104 100 94 87 81 77 75 72 68
50 48 45 46 50 53 58 63 66 67 66 71 76 82 85 89 95 99 103 107 112 118 120 124 128 132 136 137 136 127 118 111 108 106 104 98 90 84 80 77 73 70 68 65
52 50 50 53 61 63 67 70 74 75 74 79 84 88 93 97 102 107 109 112 118 123 126 129 135 138 137 134 124 117 109 107 106 105 99 90 84 80 76 71 67 64 62 59
54 56 58 61 68 72 73 75 76 78 81 85 92 97 98 103 108 113 117 121 125 132 135 135 137 138 133 123 115 109 107 108 106 97 90 85 81 76 70 67 63 61 57 54
61 65 63 67 75 76 78 79 81 85 91 95 100 102 105 113 116 119 124 128 131 137 136 134 132 130 120 113 110 107 106 103 96 89 85 82 76 72 68 63 59 56 54 52
68 70 72 73 77 77 83 85 92 95 99 102 105 108 113 114 121 128 133 136 137 136 131 125 121 113 109 107 108 105 101 95 89 84 81 76 72 67 64 61 56 54 52 52
72 77 79 79 83 84 88 92 98 102 106 110 114 116 119 124 127 132 136 136 129 125 119 112 108 108 106 105 104 101 94 88 84 80 75 71 67 64 60 58 57 51 49 48

GFSCGP_250_spd_024.txt.gz
Wind_Speed
14 15 16 18 18 17 17 18 17 14 13 11 14 16 17 19 23 23 26 27 31 34 36 34 35 37 38 39 40 42 43 42 41 44 47 49 52 54 56 59 62 65 68 68
15 16 14 15 17 19 17 13 12 13 10 10 14 15 18 21 23 24 26 25 27 26 30 33 37 40 42 45 47 46 42 44 48 51 53 54 56 60 64 66 68 70 71 73
16 16 15 15 17 18 16 13 12 13 13 13 16 19 20 20 19 21 24 24 24 30 35 41 44 47 49 47 40 43 48 51 54 55 57 61 64 68 70 72 73 75 76 76
17 18 18 18 18 19 18 16 17 18 20 18 20 20 18 18 19 18 19 23 27 34 41 44 46 42 40 44 47 50 52 53 56 59 62 66 67 70 74 76 79 81 85 88
18 19 20 22 24 21 21 22 22 22 23 21 23 21 21 21 20 20 25 27 34 40 43 42 37 42 44 48 50 50 54 57 60 63 66 69 70 73 77 81 83 81 81 83
17 19 23 25 25 24 23 23 24 24 24 23 23 22 23 24 25 28 30 34 41 41 39 39 44 46 47 48 51 56 59 62 65 67 71 74 77 79 82 84 84 88 94 99
14 17 19 21 25 28 28 26 26 26 26 25 24 23 25 28 30 32 34 39 40 40 43 45 46 45 48 53 56 62 66 68 72 75 78 79 81 84 86 89 94 97 101 107
12 14 17 19 19 22 26 28 30 29 29 28 27 26 29 31 31 35 36 38 41 45 45 45 46 50 55 59 62 66 70 74 77 79 79 84 89 92 96 98 102 107 112 115
8 10 10 11 15 18 19 22 26 31 29 27 27 29 30 33 34 35 39 41 45 45 47 48 50 55 60 64 67 70 74 77 81 84 88 92 95 98 102 105 108 115 120 126
8 9 10 11 11 10 11 15 19 24 26 26 29 32 32 31 32 37 41 44 44 46 50 54 57 60 65 67 70 75 78 80 84 88 92 96 99 103 107 111 115 123 128 130
8 9 11 11 10 11 12 13 15 18 22 24 29 36 30 29 33 38 42 45 47 51 55 58 61 65 67 71 75 78 82 85 90 95 99 102 106 110 113 120 125 132 134 132
13 13 14 15 16 17 19 20 21 21 23 27 29 34 36 37 43 44 47 51 54 57 59 62 64 66 69 75 81 87 91 94 101 103 105 108 112 117 123 129 136 135 133 129
18 20 21 23 24 25 23 23 21 21 24 28 31 36 42 42 45 48 55 57 59 61 65 67 70 75 79 86 89 92 96 101 106 108 111 115 119 126 132 134 131 129 126 119
21 23 24 22 24 26 26 24 24 25 26 27 36 36 46 47 51 54 58 61 63 66 69 72 78 82 86 91 95 98 102 107 109 113 117 123 128 133 134 132 128 124 115 111
26 28 29 28 28 32 31 29 28 29 33 33 37 42 45 52 57 60 63 66 69 71 76 80 81 86 93 98 103 105 109 113 116 120 127 132 134 130 126 123 117 110 107 103
29 29 32 35 34 36 36 33 33 37 38 38 41 45 52 57 60 65 69 71 73 76 81 84 89 94 99 103 105 111 115 120 125 129 137 130 125 121 116 109 108 105 102 95
33 33 33 37 36 40 44 40 42 42 43 44 47 52 56 61 65 70 70 74 78 83 88 93 95 98 104 107 113 118 124 129 133 133 126 121 117 110 104 104 103 97 90 84
42 41 40 37 36 41 47 42 43 44 48 50 54 60 64 68 68 73 74 80 86 92 95 97 100 106 111 115 119 128 132 134 128 121 117 112 105 101 101 99 93 87 83 79
44 44 42 40 37 41 47 43 45 47 56 59 64 67 69 71 73 78 82 87 93 98 101 106 108 112 118 123 130 132 127 119 116 113 107 101 100 100 96 90 85 81 78 72
47 43 44 44 42 44 47 47 49 53 57 64 70 73 74 76 78 83 88 95 100 105 106 110 116 122 127 131 135 128 119 112 109 106 101 99 99 95 89 83 80 76 71 68
47 46 48 47 49 47 47 50 55 59 63 69 72 76 77 82 88 91 96 101 105 111 114 118 123 127 130 132 123 114 110 107 104 101 99 97 93 87 82 77 74 70 66 65
49 48 51 50 53 50 55 58 62 67 71 73 77 80 83 89 95 100 103 107 111 117 122 127 127 127 127 118 111 108 106 104 102 100 97 91 86 81 77 73 70 65 63 62
52 54 53 52 58 58 60 65 70 73 75 79 82 87 92 97 101 106 110 114 119 126 131 127 124 119 115 111 108 105 103 101 101 97 91 85 80 76 72 69 65 62 61 58
59 58 57 57 66 65 70 73 74 79 83 84 91 96 100 101 106 110 118 125 130 131 124 119 114 110 109 108 105 103 102 100 96 91 84 79 75 72 68 64 61 60 58 55
64 63 62 64 68 72 74 77 80 85 87 92 98 102 104 107 113 118 124 127 126 118 113 111 108 107 107 104 104 100 97 92 88 83 78 75 72 68 65 63 60 57 53 52
66 67 67 68 72 75 79 83 87 88 93 100 105 107 110 116 121 125 127 125 120 112 108 106 108 106 103 100 97 94 90 85 81 77 74 71 68 65 63 61 58 55 50 48

GFSCGP_250_spd_027.txt.gz
Wind_Speed
16 16 16 16 17 17 18 18 19 20 20 21 22 20 19 20 21 24 27 28 29 32 33 32 30 32 37 43 44 45 43 41 38 42 47 49 50 52 56 57 59 63 65 66
15 15 16 17 17 17 18 18 18 18 18 20 20 19 19 19 22 26 29 30 31 30 31 29 33 38 42 45 43 40 41 45 48 49 51 53 56 60 62 66 69 70 71 73
16 17 17 19 18 18 19 20 21 21 20 23 22 19 21 23 27 27 26 27 28 26 29 32 38 42 46 44 41 46 47 50 51 53 55 58 63 67 70 72 74 76 76 77
17 20 21 22 22 22 22 24 26 26 25 22 25 25 29 28 27 26 26 27 27 30 33 36 42 45 45 44 47 50 51 51 54 57 61 65 69 71 73 75 78 79 79 83
15 17 20 23 24 25 26 27 27 27 27 28 30 33 21 30 28 28 29 29 32 36 38 42 45 45 46 50 52 53 52 55 59 64 67 70 71 73 75 77 78 82 86 90
14 16 16 19 22 26 29 30 30 31 34 34 31 34 24 28 31 31 31 33 36 38 41 44 46 48 51 53 53 54 57 60 64 69 71 72 75 76 78 82 86 90 94 97
10 9 11 14 18 21 25 29 32 33 33 36 33 35 30 31 33 31 32 34 38 42 44 44 47 51 51 53 56 60 63 66 67 69 71 75 79 82 87 91 94 97 101 104
6 9 11 13 15 18 21 23 27 31 34 37 36 36 33 34 32 33 36 39 41 42 44 47 49 50 54 58 61 65 68 69 72 74 80 84 89 93 96 98 102 106 108 111
5 6 6 8 10 11 14 18 20 20 24 29 35 37 32 34 36 36 38 37 40 44 48 50 54 58 62 64 66 69 74 76 80 84 87 92 98 102 105 107 110 115 118 121
5 6 8 9 11 11 12 12 14 16 18 22 26 33 29 35 33 34 36 40 43 50 54 58 62 63 65 67 71 74 77 82 87 91 93 97 101 105 107 111 116 121 124 128
9 10 12 14 14 15 17 18 19 20 22 22 26 34 29 30 33 37 40 46 51 55 58 60 65 68 71 72 75 79 82 86 90 94 98 101 107 110 113 119 121 126 131 138
12 15 16 19 22 22 23 23 25 27 29 29 29 35 34 37 37 41 47 49 54 56 60 64 68 72 74 76 79 84 90 94 98 101 104 108 114 119 122 127 132 137 141 142
15 17 18 21 24 26 25 24 25 25 27 31 34 38 37 41 44 47 49 53 56 58 64 69 71 73 76 79 85 90 96 101 106 109 112 115 120 125 131 135 138 139 137 129
20 22 23 25 26 28 29 29 30 33 34 34 39 36 43 44 45 49 52 56 61 66 68 70 73 77 81 86 91 98 102 107 111 115 120 123 129 132 135 135 131 126 119 114
24 26 28 30 31 34 35 34 35 37 38 38 42 45 47 48 50 54 55 59 65 69 73 75 78 83 88 93 98 103 109 113 118 124 127 127 132 133 131 125 121 115 111 108
28 30 32 36 37 42 44 42 42 42 41 41 45 48 50 52 52 58 63 67 73 74 78 80 85 89 95 101 106 110 117 123 129 132 135 134 129 121 117 116 112 108 105 106
34 34 35 40 40 47 48 47 46 47 46 47 49 50 50 52 58 64 69 74 76 78 80 85 93 99 104 110 116 120 126 131 134 130 124 118 115 114 112 109 106 105 105 100
40 40 40 41 42 49 49 46 46 48 47 48 49 50 53 58 64 69 74 76 79 81 87 94 99 105 110 116 122 127 132 135 128 119 115 111 110 109 107 104 104 101 95 89
43 44 44 45 44 47 47 48 48 50 52 49 50 54 59 64 70 77 77 81 85 90 97 103 105 110 116 123 129 133 135 125 119 114 111 110 108 107 105 102 96 90 85 80
48 49 50 47 46 47 49 47 50 47 47 53 57 62 68 72 74 79 83 88 90 99 106 110 113 118 125 129 132 131 127 119 116 111 110 108 106 104 100 94 87 82 77 74
52 50 52 53 53 49 48 52 52 54 56 59 61 68 74 77 82 86 88 91 99 104 110 115 121 126 131 133 132 124 119 116 112 109 106 105 102 98 91 84 78 73 70 66
56 55 57 59 58 52 52 53 55 59 62 64 69 74 77 82 85 88 93 100 105 110 117 124 127 131 134 132 127 118 114 112 107 107 103 100 95 89 82 75 71 68 64 63
62 61 62 65 63 60 59 59 61 64 64 70 75 78 83 86 91 96 100 106 112 118 125 131 132 131 131 125 120 115 110 110 102 101 97 92 86 80 74 69 66 65 64 62
70 68 66 64 67 65 64 67 67 71 74 78 81 85 90 95 100 104 108 116 121 126 131 131 132 130 124 119 116 109 105 102 100 93 88 83 77 72 68 65 64 62 60 57
76 69 66 65 67 67 68 72 74 77 80 84 88 93 98 101 105 112 117 120 124 130 132 133 131 126 118 114 108 105 102 96 90 84 79 74 70 66 65 64 62 58 53 51
70 69 68 66 69 71 73 75 79 85 89 91 96 102 107 109 113 114 120 125 128 132 133 133 129 121 114 107 104 99 92 87 81 76 72 68 65 63 62 60 57 55 51 48

GFSCGP_250_spd_030.txt.gz
Wind_Speed
26 27 32 33 30 29 30 32 33 34 36 34 31 28 28 29 28 27 26 28 31 29 33 31 33 33 34 36 40 45 44 45 45 49 49 51 52 52 55 58 58 63 63 65
22 22 23 23 23 24 23 23 24 26 29 29 30 27 26 26 26 26 25 29 31 29 30 30 32 33 35 39 44 45 46 48 52 53 53 55 57 61 63 64 63 66 66 68
17 19 20 20 22 23 23 22 23 25 28 28 28 27 27 27 27 26 27 31 32 31 31 31 34 37 41 45 47 48 50 53 56 56 57 60 62 64 67 70 71 68 70 75
15 16 17 19 21 22 21 23 25 25 26 26 30 30 25 28 30 29 34 32 31 32 34 37 40 43 46 49 51 52 54 56 59 63 64 63 64 69 72 74 76 77 84 87
14 15 16 18 21 22 24 25 27 28 29 29 32 35 25 28 33 38 34 34 35 35 35 38 41 44 48 51 53 56 58 59 60 67 68 69 72 75 77 79 83 87 90 93
11 14 16 19 20 22 24 27 29 31 33 34 36 38 35 27 32 35 40 38 38 39 37 39 43 45 49 53 56 60 62 66 67 67 71 74 77 79 82 85 89 92 96 100
9 11 10 10 13 16 19 21 24 28 32 36 38 40 37 40 35 28 36 41 39 38 42 44 45 47 49 53 59 65 68 70 71 74 76 78 81 84 88 93 96 100 104 108
3 2 4 5 6 8 9 12 16 18 21 24 33 36 32 38 36 31 31 34 39 42 45 45 46 50 56 60 62 65 70 74 77 79 81 84 87 91 96 100 105 109 113 117
3 4 5 6 7 9 11 11 13 14 16 19 23 24 26 29 36 37 36 37 40 44 45 48 51 55 59 62 64 68 72 75 79 82 84 88 95 100 105 110 115 119 123 127
4 6 8 10 12 13 15 17 19 22 24 27 30 29 27 26 30 34 36 38 42 46 49 52 56 57 61 65 69 72 75 77 81 86 91 95 99 103 109 117 123 127 129 131
6 8 10 13 14 17 20 22 24 25 25 27 30 39 31 34 32 36 38 41 45 49 52 55 59 61 66 70 74 78 82 83 86 90 94 100 106 114 121 126 129 129 130 132
9 11 13 15 19 20 21 22 22 25 31 28 30 39 39 40 40 42 46 47 49 53 54 55 58 64 70 74 77 80 83 87 92 98 104 110 116 122 129 131 132 133 131 126
14 16 18 20 23 26 27 29 29 30 33 38 39 42 44 43 45 47 49 53 56 57 58 61 65 70 77 81 85 86 89 92 99 107 115 120 124 130 133 132 132 130 121 119
17 19 22 24 26 29 30 33 33 36 36 37 47 44 48 50 50 51 54 56 57 56 62 68 73 78 85 88 90 94 97 102 110 117 123 128 130 132 132 131 129 119 117 115
19 22 24 27 30 34 34 36 38 39 41 42 45 46 45 48 50 54 53 56 57 62 68 73 79 85 90 93 96 101 105 112 120 125 131 136 134 134 132 125 118 115 113 111
23 27 31 34 36 40 40 43 44 44 45 46 46 45 46 49 52 55 56 60 61 67 75 80 83 88 93 97 103 107 112 119 127 132 135 134 127 129 123 117 113 109 107 106
30 33 36 39 39 41 40 44 47 49 49 48 48 49 50 53 54 53 57 63 66 71 78 82 87 92 97 101 107 113 119 125 134 137 133 126 124 121 115 112 108 106 104 101
37 38 41 43 41 45 46 45 48 49 50 52 49 52 51 50 54 58 61 65 72 78 82 87 91 97 103 109 114 119 125 130 132 131 129 128 121 118 111 107 105 102 97 91
44 45 44 44 43 46 49 43 50 51 53 51 54 52 53 56 59 62 64 71 76 82 87 91 97 104 109 115 122 127 133 136 133 129 120 117 105 99 103 100 98 93 88 83
46 47 47 46 47 50 53 51 51 55 55 55 55 59 60 61 62 68 75 80 86 89 95 102 105 109 115 122 130 135 137 136 128 124 116 111 108 101 94 91 87 83 79 76
48 48 50 51 52 55 57 57 62 61 58 60 60 60 63 67 71 75 81 86 89 95 101 104 110 117 121 129 134 139 138 131 127 128 117 106 102 97 92 86 81 77 73 69
54 55 56 57 60 61 61 63 63 63 64 63 63 64 69 73 77 83 87 92 98 103 108 112 118 124 127 134 137 137 133 127 123 115 108 100 95 90 84 79 74 70 67 65
61 63 63 62 65 67 68 64 63 64 65 64 67 71 77 81 86 90 95 98 101 105 111 115 120 124 129 136 137 136 127 124 111 104 97 92 87 83 76 71 68 66 64 62
67 69 67 64 67 71 70 69 68 67 67 71 75 80 83 87 91 96 98 101 108 112 116 121 128 133 133 136 138 131 127 115 103 95 89 83 79 74 70 67 65 63 61 57
69 69 69 69 70 73 69 71 71 72 73 76 81 85 90 93 98 100 104 110 114 116 120 127 132 133 135 136 133 126 114 104 95 89 82 78 72 70 67 65 63 59 56 54
70 69 71 70 69 71 72 73 76 77 81 84 88 92 94 98 102 107 111 115 118 122 128 132 136 134 136 132 127 115 104 96 88 82 77 73 70 67 65 62 59 57 55 53

GFSCGP_250_spd_033.txt.gz
Wind_Speed
30 30 32 34 36 37 39 38 36 40 41 43 40 36 41 34 36 35 33 32 32 33 36 35 35 35 33 35 32 35 38 41 47 51 54 56 58 59 61 62 62 62 64 65
24 23 24 26 27 29 30 29 32 34 35 34 35 31 36 32 33 33 34 34 34 34 35 34 30 30 34 39 41 43 47 51 52 55 56 59 63 64 63 64 63 66 68 70
21 21 20 21 22 21 23 26 26 28 30 29 31 29 31 35 30 31 34 36 36 35 37 31 29 31 35 40 44 47 52 54 56 56 61 65 65 66 68 71 72 73 73 74
14 15 16 17 19 18 24 20 23 23 27 26 30 29 27 34 34 32 37 39 35 38 42 39 38 37 39 43 48 50 53 57 59 60 63 65 67 71 73 75 77 78 81 83
14 16 18 19 19 19 22 21 21 22 23 28 31 33 27 25 34 35 41 34 31 38 43 42 42 44 46 48 51 55 57 55 56 64 67 69 73 76 77 78 80 83 87 91
14 15 15 15 16 16 17 19 21 23 25 28 35 35 33 30 30 32 41 43 40 40 39 40 42 45 49 53 57 59 59 61 62 61 65 72 77 81 82 84 86 90 94 97
9 10 9 7 7 7 11 14 17 20 21 25 27 32 27 23 23 29 34 36 39 41 41 39 42 45 51 55 56 58 63 66 67 70 74 77 79 82 85 88 91 96 101 105
2 2 1 1 2 3 4 6 7 9 11 16 19 21 25 27 23 20 25 31 33 38 42 41 43 47 50 53 56 59 64 66 70 74 79 84 87 91 93 96 100 104 109 112
5 4 3 2 3 4 7 10 13 16 20 22 18 22 24 29 30 28 29 30 32 38 43 42 45 49 54 57 58 60 63 70 77 81 85 90 95 96 100 104 110 114 119 122
0 1 3 4 7 10 13 15 18 19 21 27 29 27 27 29 34 35 35 36 39 44 49 48 50 54 58 60 61 64 68 74 81 87 91 95 100 103 109 114 119 124 128 131
4 4 5 8 11 14 16 18 20 23 23 24 31 38 32 34 37 40 43 44 46 47 50 51 56 59 59 61 62 67 74 79 84 91 95 100 104 108 116 122 127 131 133 135
7 8 11 12 14 16 18 20 22 25 30 29 33 40 41 39 44 45 46 48 48 49 52 54 58 60 62 65 69 73 79 85 89 94 99 103 107 113 120 127 130 131 133 128
10 11 14 16 19 21 23 25 27 29 32 39 40 44 40 39 44 43 45 49 49 53 56 56 57 61 64 69 74 79 86 91 95 100 105 111 115 119 127 131 132 127 121 121
14 14 15 17 19 23 26 29 32 34 35 37 41 42 47 48 43 49 49 48 52 55 56 56 60 64 69 73 80 86 91 95 99 105 113 120 124 126 128 128 131 132 128 125
16 18 19 22 26 29 33 35 37 37 39 41 44 45 45 51 53 49 49 51 53 56 59 63 68 71 75 81 87 93 97 103 109 113 120 127 131 131 133 136 133 124 122 114
21 23 26 29 33 35 39 39 41 40 41 44 45 47 48 50 51 53 54 56 56 58 61 65 69 74 81 87 92 98 103 108 115 120 125 131 133 128 128 122 113 111 108 104
25 29 33 37 39 42 41 43 45 46 45 48 46 50 53 54 55 54 54 57 59 61 66 69 74 81 86 92 97 103 107 114 122 127 132 130 128 130 118 109 100 95 95 93
30 33 37 40 41 42 42 42 47 50 51 56 55 53 55 56 55 57 57 57 62 66 72 76 83 88 93 98 104 110 116 123 127 131 130 129 130 119 114 107 98 94 91 86
32 35 38 39 41 44 44 45 50 55 57 61 62 62 62 59 59 58 58 61 66 73 77 84 88 93 99 106 111 117 122 129 134 135 131 129 127 117 107 102 98 92 86 82
36 41 46 47 48 51 52 52 57 58 61 63 65 66 65 62 63 63 66 70 75 81 85 91 94 101 107 113 119 124 130 132 136 134 128 129 118 109 103 96 91 85 81 77
45 50 53 53 56 57 60 60 64 65 64 65 68 67 64 63 64 66 70 76 80 85 90 95 100 107 114 120 126 130 134 135 134 128 128 121 107 100 95 88 84 78 74 72
53 57 60 62 63 60 55 56 63 67 65 65 66 66 64 66 68 71 77 82 84 88 93 99 104 111 119 125 131 133 136 134 127 128 119 110 101 94 89 84 78 74 70 67
57 63 66 67 68 60 59 60 64 68 67 67 66 65 66 69 74 79 84 88 92 96 101 106 113 118 124 129 135 135 135 133 130 120 110 101 94 87 82 77 73 69 66 63
65 69 69 68 69 68 64 63 66 68 67 66 68 70 73 77 82 86 92 94 98 102 107 113 119 125 131 132 135 134 134 130 121 110 101 93 87 82 77 72 69 66 63 60
70 70 72 72 75 72 68 71 72 69 68 70 73 77 81 85 88 93 98 102 105 109 114 119 123 130 134 134 134 132 131 124 111 102 94 88 83 78 73 68 65 62 59 56
70 73 73 73 76 74 72 76 76 74 74 76 80 84 88 91 96 101 105 107 112 115 119 124 128 134 134 135 132 130 122 110 101 93 87 83 77 73 68 66 63 59 56 54

GFSCGP_250_spd_036.txt.gz
Wind_Speed
31 34 35 35 38 40 44 50 53 54 58 59 56 52 54 55 51 50 48 47 48 47 45 40 39 40 40 40 39 32 35 36 41 49 53 58 62 62 63 61 61 63 64 65
26 29 31 32 32 32 33 34 36 36 39 40 37 40 43 41 39 40 39 41 43 42 38 39 40 40 42 40 42 38 39 43 47 52 57 61 65 66 63 62 66 66 68 71
16 18 18 18 20 24 27 29 34 36 35 33 32 33 33 34 29 33 39 43 43 38 37 39 41 42 43 42 43 46 47 49 53 56 59 64 68 67 67 68 70 74 77 81
18 19 22 21 23 26 27 27 28 28 28 25 29 26 28 28 30 35 41 44 45 39 41 43 41 39 39 42 46 48 51 54 56 60 64 66 66 68 71 73 77 79 84 87
18 19 19 18 21 23 23 23 24 23 25 30 24 28 26 27 34 39 41 42 45 46 46 46 45 46 46 46 47 49 53 56 61 65 66 66 68 72 75 78 84 89 94 97
12 12 13 14 15 17 19 21 23 23 27 27 24 21 22 22 29 30 34 38 43 44 44 46 49 52 52 51 52 53 53 56 60 62 65 68 69 74 77 82 88 93 96 101
10 11 12 12 11 12 12 13 13 13 13 8 8 9 11 11 12 15 20 23 26 28 32 37 43 46 48 50 54 55 56 58 61 65 68 69 72 76 81 86 91 96 101 105
8 9 8 7 6 5 2 1 3 6 8 9 13 19 21 19 21 24 27 29 31 34 35 38 43 44 46 50 53 56 58 63 67 69 72 74 77 82 89 95 101 104 106 110
11 10 9 8 7 4 4 6 10 13 15 17 18 20 21 23 26 28 30 33 36 38 41 43 48 51 52 55 56 58 62 66 69 73 76 79 84 89 96 100 104 109 113 117
9 7 5 3 3 5 8 11 13 17 20 23 23 23 26 29 31 32 35 38 41 45 46 49 51 53 55 56 58 61 63 66 70 74 79 85 88 94 100 107 112 117 121 124
7 5 4 5 7 9 11 14 18 21 22 26 31 30 31 34 37 36 37 39 41 43 46 48 49 52 54 56 59 61 64 70 74 77 82 89 94 100 106 113 117 122 126 127
8 7 8 10 12 14 15 17 20 24 27 28 32 35 37 39 40 41 42 42 43 44 45 46 49 52 55 56 58 63 68 72 76 82 88 95 101 107 112 116 122 126 126 123
10 11 12 14 15 15 17 20 24 28 32 36 36 39 40 42 44 46 46 46 46 47 49 50 51 53 55 59 62 67 71 76 82 89 96 101 108 112 118 124 128 127 128 124
13 15 16 17 18 20 23 26 28 30 34 36 37 39 43 45 46 49 53 55 56 55 55 53 54 58 60 63 68 74 80 85 92 97 103 108 115 120 129 132 130 126 121 119
16 18 18 18 21 25 29 33 35 36 39 39 40 41 44 48 50 51 53 56 58 57 58 59 60 61 64 69 75 82 89 94 99 104 112 117 122 127 130 128 124 121 117 114
19 20 21 22 26 30 33 36 39 39 43 44 45 47 49 52 54 57 58 59 60 57 58 58 60 64 70 75 82 88 94 100 106 110 115 121 126 130 127 124 121 115 107 102
21 22 23 25 26 29 33 38 40 43 48 50 53 55 57 59 61 61 61 61 58 57 59 62 66 71 76 82 88 94 98 103 109 116 123 128 131 129 121 118 115 107 100 96
24 24 25 26 30 34 38 44 45 51 56 59 61 60 59 61 62 63 63 61 60 61 63 66 72 78 85 91 95 99 105 111 118 123 129 132 132 127 124 118 110 102 94 87
24 25 27 31 36 40 43 47 50 55 61 59 59 60 60 61 62 62 62 61 62 64 68 75 81 87 92 97 101 105 112 118 125 129 132 133 129 124 121 111 102 95 90 83
26 30 36 39 42 44 48 53 55 59 61 62 64 64 63 64 64 65 64 65 67 71 77 83 89 95 100 105 110 114 118 123 128 130 132 129 124 120 110 100 93 88 82 77
33 38 43 47 49 52 55 58 62 61 62 67 66 65 66 67 68 68 69 72 75 80 86 92 97 102 106 110 114 119 123 127 127 129 129 129 124 113 100 93 87 82 77 74
38 44 49 52 56 56 61 64 63 63 67 70 69 68 68 70 69 70 73 77 81 87 93 99 104 107 111 117 121 125 125 126 127 128 129 125 116 103 96 89 82 77 73 70
46 54 56 59 62 64 64 64 67 69 72 72 71 71 72 74 73 74 78 83 88 94 100 104 107 112 119 124 126 124 126 125 128 128 122 114 104 96 90 84 77 73 70 66
55 59 63 65 65 66 67 71 75 74 73 73 73 74 74 76 77 80 85 90 96 102 106 109 112 120 123 124 123 125 127 130 128 122 115 104 96 90 84 78 73 70 66 63
65 66 66 65 69 69 74 78 77 75 75 75 75 75 78 80 82 87 91 96 102 106 110 115 120 125 126 126 125 128 129 125 120 112 102 96 90 84 79 74 70 65 63 60
70 71 70 70 74 76 78 79 76 74 75 76 77 80 83 84 88 94 98 104 107 110 116 120 125 127 125 126 128 124 122 118 110 101 94 89 84 79 74 70 66 63 60 58

GFSCGP_250_spd_039.txt.gz
Wind_Speed
30 31 31 30 35 39 41 51 59 54 57 56 63 57 62 69 67 58 57 56 52 49 47 46 46 45 47 49 48 31 37 43 47 54 59 57 61 64 66 67 68 70 71 73
25 26 27 28 31 34 36 37 38 41 44 45 50 52 49 43 41 43 45 47 47 44 41 39 42 45 46 44 48 50 52 56 58 60 62 63 64 67 69 72 73 74 76 74
22 21 21 23 27 30 32 34 31 30 28 28 30 34 36 36 37 40 41 44 43 38 36 38 41 45 48 50 53 54 54 57 58 58 60 65 68 70 71 73 74 75 76 78
18 18 18 20 21 23 25 26 27 28 28 27 29 30 31 32 33 36 42 44 39 37 40 42 44 47 50 53 53 55 55 54 55 57 61 64 65 66 67 70 73 76 79 82
16 17 21 23 23 23 24 25 27 28 28 24 26 26 28 30 33 36 39 43 44 45 46 45 46 48 48 51 50 46 50 52 56 58 60 63 66 69 72 75 80 83 86 89
17 17 19 20 20 20 21 22 24 24 25 22 21 20 23 24 27 27 27 29 32 32 33 36 38 42 43 44 44 44 50 54 57 60 63 66 69 72 76 80 83 85 89 92
15 17 18 18 16 15 14 14 12 11 10 10 8 9 11 13 18 22 26 29 32 36 40 41 42 46 48 49 49 50 55 58 62 65 67 69 72 76 78 80 83 88 93 96
13 13 12 11 11 10 8 6 5 4 3 5 8 12 15 17 20 24 28 32 36 40 45 47 49 51 54 55 56 58 60 62 64 66 69 72 75 77 80 85 90 94 99 103
9 8 9 10 9 8 6 4 4 7 9 11 14 18 21 22 24 27 32 34 37 39 42 45 49 53 55 57 58 59 61 63 65 67 69 71 74 79 85 89 95 101 105 110
12 12 12 10 9 6 5 7 9 12 14 17 20 22 24 27 30 32 34 36 38 41 44 47 48 49 51 54 57 59 61 62 63 65 69 73 77 82 89 96 101 106 111 114
11 11 10 9 7 6 9 12 14 17 20 21 22 25 29 32 34 35 38 40 43 45 46 47 49 51 53 54 56 59 61 64 66 68 73 79 86 91 96 102 106 112 117 121
11 11 10 10 10 12 14 15 18 20 22 25 27 30 34 36 38 40 42 43 43 44 46 48 51 53 55 57 58 60 62 64 68 74 81 87 92 98 103 108 115 120 124 126
11 11 12 12 14 17 18 19 21 24 29 31 34 35 37 40 41 43 44 46 48 50 51 52 54 56 56 57 59 61 64 68 74 81 87 94 100 105 111 116 120 126 131 132
13 14 15 16 18 19 20 22 25 28 31 33 34 36 38 43 47 50 53 54 55 55 57 56 56 56 56 57 60 64 70 75 83 90 96 102 107 112 118 123 126 129 127 123
16 16 18 20 21 22 24 26 27 28 30 33 38 43 47 50 53 54 53 55 56 58 59 59 58 58 59 62 67 72 78 86 93 98 103 106 112 120 125 126 124 119 117 113
18 19 21 22 22 24 26 27 28 32 35 38 41 47 51 54 56 57 58 58 58 58 60 60 60 61 64 68 74 80 87 93 100 104 107 112 122 125 127 123 122 120 114 111
20 22 23 25 24 26 29 30 33 38 43 45 47 52 56 56 60 61 61 60 59 61 61 62 64 67 71 76 81 88 94 101 105 111 115 119 125 125 126 125 123 116 112 105
23 24 26 28 25 25 31 37 40 45 50 52 54 58 59 59 62 66 64 62 62 63 65 66 70 74 78 83 89 95 102 105 110 116 124 127 125 126 127 123 120 114 108 99
27 28 26 27 29 30 38 43 46 49 54 57 61 62 63 65 69 69 67 64 64 67 69 73 76 79 84 90 96 103 107 110 116 125 127 128 127 126 123 120 117 107 99 92
28 27 26 31 33 36 43 47 51 55 58 63 64 65 69 74 72 72 70 68 68 71 75 79 81 86 91 97 102 107 112 117 122 128 128 127 126 124 123 118 110 100 93 86
29 29 33 37 38 41 50 52 54 59 63 63 66 70 74 77 75 72 69 70 74 78 81 83 87 93 98 101 106 111 116 121 125 131 128 128 127 123 118 109 100 93 86 80
35 37 40 40 43 48 55 56 59 64 64 67 69 75 78 82 78 75 76 77 81 83 85 89 94 100 104 108 113 118 124 125 130 129 129 128 123 117 110 101 93 86 80 75
40 44 43 46 49 55 58 62 64 66 67 69 74 78 82 82 78 77 77 80 83 86 90 96 100 106 110 116 121 122 125 130 129 129 129 124 118 110 101 94 87 81 75 70
46 49 48 52 58 63 64 67 68 69 71 74 77 82 84 79 77 78 81 84 88 92 97 102 106 111 115 121 125 126 130 129 128 128 122 117 109 102 94 87 80 75 70 67
53 55 56 59 64 66 69 70 71 73 76 79 79 83 79 79 81 83 86 89 94 99 103 108 111 115 121 123 127 129 129 126 127 121 116 110 103 94 87 81 75 70 66 63
63 62 62 64 69 71 73 76 77 77 79 80 84 84 80 82 85 88 92 97 102 107 110 114 119 122 123 127 129 124 124 123 118 114 109 102 94 87 80 75 70 67 63 61

GFSCGP_250_spd_042.txt.gz
Wind_Speed
28 29 29 30 30 33 33 34 37 43 52 55 55 60 63 60 64 61 62 60 60 55 49 49 47 46 46 47 47 43 30 39 44 64 58 57 64 67 72 76 78 76 75 76
24 24 27 31 31 33 33 36 39 37 42 45 48 52 55 54 50 46 46 45 43 42 44 42 43 43 43 39 34 43 44 48 54 57 60 65 70 72 74 74 73 74 75 76
23 24 26 26 27 28 27 28 31 33 35 39 40 41 42 39 37 37 35 35 36 36 35 34 39 42 44 47 51 55 57 59 60 63 65 68 72 74 74 72 72 73 75 77
22 22 23 25 26 24 23 23 25 27 29 30 31 33 35 34 34 35 36 38 38 36 36 38 44 47 49 51 53 54 56 58 60 62 63 66 68 67 67 69 71 74 78 82
16 17 18 18 18 19 21 22 22 22 23 23 25 26 30 31 33 33 34 35 36 35 29 30 32 34 37 41 44 46 47 48 51 55 59 62 65 68 71 74 76 77 79 82
15 14 15 15 16 18 18 19 20 20 21 23 24 25 30 29 29 29 28 25 27 30 31 34 36 38 42 45 47 49 51 54 56 58 61 64 67 70 72 74 76 77 80 81
14 15 16 16 18 19 20 20 20 20 22 20 20 20 20 19 18 21 24 27 31 33 37 39 42 46 48 50 53 55 57 59 61 61 62 65 68 70 72 74 76 79 84 89
16 16 16 17 19 20 18 15 12 10 9 8 8 10 14 17 20 23 27 31 35 38 41 43 46 48 50 53 55 56 58 60 62 62 64 67 69 71 74 77 80 83 89 95
14 14 16 18 16 13 9 8 9 7 7 8 10 13 16 21 24 28 31 34 38 41 43 45 48 50 51 52 54 57 59 61 64 65 68 70 72 75 77 79 84 89 96 101
14 14 13 11 8 6 7 8 7 7 9 11 15 17 20 22 25 29 33 37 40 43 47 49 51 52 55 58 60 61 62 64 65 66 67 70 72 75 78 83 90 97 102 105
10 9 10 8 8 9 8 7 9 11 12 15 19 20 23 25 29 33 35 39 43 46 50 53 53 54 56 58 60 60 61 62 62 64 66 69 72 78 85 92 100 104 106 109
12 12 10 8 8 8 9 11 13 16 18 20 22 27 29 31 33 34 36 40 43 45 47 49 51 53 54 56 57 58 59 61 62 65 68 74 80 87 94 100 103 105 109 115
13 12 11 10 9 11 13 15 18 19 22 24 27 28 31 33 35 37 41 45 46 48 50 50 51 51 52 53 55 57 58 61 65 69 75 81 88 93 97 103 107 114 116 121
13 12 11 10 11 14 17 20 21 23 26 28 29 32 34 39 40 44 47 49 51 55 59 57 55 53 54 54 56 58 61 66 71 77 83 89 96 102 107 112 116 120 126 124
14 13 13 13 16 18 21 24 26 28 27 29 34 36 42 43 46 50 49 52 57 63 62 59 57 55 55 56 59 64 70 75 81 88 93 99 105 110 114 118 123 127 126 125
17 19 19 18 20 21 24 27 28 31 30 34 38 43 46 50 55 56 56 57 63 66 64 63 58 57 58 62 67 72 78 84 90 94 100 105 110 114 118 124 127 125 123 123
21 22 22 24 23 24 29 30 29 31 34 38 42 45 50 56 59 60 59 64 68 71 70 66 61 61 64 69 75 81 86 91 96 101 107 111 114 118 124 126 122 123 122 118
25 24 26 29 28 26 33 35 33 34 40 43 46 50 53 58 61 63 64 67 73 74 70 66 65 68 72 76 82 87 93 98 103 109 112 115 118 123 123 121 122 121 118 111
28 29 29 31 32 30 37 36 37 41 44 49 51 54 59 64 66 68 68 71 75 75 72 71 73 76 79 83 89 95 100 104 110 114 117 120 124 122 121 120 121 117 112 104
31 32 33 36 34 31 35 41 43 44 46 53 57 60 63 67 68 72 74 76 77 80 76 77 79 82 85 90 96 102 106 111 117 120 122 123 119 120 119 119 116 113 104 98
32 35 38 39 36 35 40 44 47 48 53 57 61 65 68 71 72 75 77 78 81 82 79 81 84 87 92 96 103 108 113 119 121 121 120 121 119 119 118 115 112 106 98 93
38 37 39 41 42 41 45 48 50 55 58 63 65 69 72 76 77 77 79 81 85 82 82 85 89 93 96 102 108 114 120 122 121 120 120 120 120 118 116 112 107 100 94 88
40 42 42 45 47 47 47 51 54 60 64 66 70 74 78 81 80 79 81 85 86 84 86 90 94 98 104 110 115 119 124 122 121 120 123 123 118 115 112 108 101 94 88 82
46 48 49 49 50 52 51 55 62 65 68 72 77 80 80 81 80 84 85 89 89 89 92 96 99 104 110 117 122 126 125 122 120 122 124 121 116 113 110 103 96 90 83 78
52 54 49 45 51 57 61 65 68 70 74 77 79 80 82 82 85 88 90 92 91 93 97 101 105 110 116 122 127 128 124 120 124 124 121 117 114 110 104 96 90 85 78 74
52 51 53 57 62 64 68 72 74 76 78 80 83 86 85 86 90 92 94 93 95 97 101 107 112 117 124 128 127 121 119 123 124 123 117 114 111 105 98 91 86 79 75 70

GFSCGP_250_spd_048.txt.gz
Wind_Speed
31 27 23 22 19 18 14 24 28 30 30 27 25 28 33 36 33 34 40 46 48 49 52 56 57 60 66 61 58 54 49 47 43 41 39 51 58 62 63 69 74 78 80 85
27 27 24 20 19 21 26 27 25 29 37 38 38 40 38 39 40 46 49 49 48 50 47 48 49 51 50 51 47 47 47 45 41 40 40 50 54 63 72 70 73 75 75 77
30 26 25 24 21 22 23 24 26 27 27 35 38 41 47 49 48 46 48 52 50 50 49 42 43 43 43 44 42 39 37 38 40 41 44 47 52 56 60 64 67 70 73 75
25 26 25 25 24 25 26 26 26 27 27 30 31 32 33 35 35 36 36 38 40 38 35 36 35 36 34 33 35 36 40 43 46 48 51 54 57 60 64 66 69 70 73 75
25 24 25 25 25 25 25 27 28 28 29 29 30 31 30 29 31 32 32 33 33 31 29 26 24 27 31 35 38 41 44 48 50 53 56 58 61 63 65 67 69 71 73 75
24 25 24 24 24 23 23 24 25 25 26 28 27 28 26 27 28 29 27 25 21 19 21 24 27 31 35 38 42 45 48 51 54 57 60 62 64 66 67 68 69 69 69 69
24 22 22 23 23 21 19 19 23 26 26 24 24 24 23 22 20 16 13 13 16 19 23 27 30 34 38 40 42 44 47 51 54 57 59 61 62 64 64 66 65 64 63 66
20 20 21 19 17 17 20 22 22 21 19 20 21 17 13 9 9 12 13 15 18 22 26 30 33 35 38 41 43 48 53 57 58 58 59 60 61 62 63 63 61 63 67 70
20 20 19 19 21 23 24 21 19 19 18 16 12 10 9 9 11 13 15 18 21 25 28 30 35 39 40 42 47 51 55 58 59 60 61 62 61 60 60 62 64 70 76 79
20 20 20 19 19 19 18 15 14 13 13 13 11 8 9 12 14 16 19 21 21 24 27 33 36 39 42 45 49 53 55 56 57 57 58 59 59 58 61 64 72 77 81 87
17 15 16 17 17 16 15 12 13 13 11 10 10 11 14 16 18 20 20 20 24 27 32 33 36 42 46 49 53 56 59 60 61 60 59 59 61 63 67 72 77 82 88 94
16 16 16 15 17 18 18 17 16 13 12 13 14 15 18 20 22 22 23 26 30 33 37 38 45 47 50 55 57 60 61 63 65 66 66 66 68 70 73 79 82 89 95 101
15 16 16 18 18 16 15 16 16 15 15 16 19 19 21 23 25 27 29 31 35 38 41 44 50 52 54 59 60 63 65 67 69 71 72 72 73 76 80 84 90 97 104 105
16 17 17 16 16 17 18 17 17 17 17 19 23 24 24 27 31 32 34 36 40 43 45 50 54 57 60 64 66 68 72 75 76 75 77 79 78 79 84 91 97 105 109 109
17 17 16 17 18 18 18 19 20 19 19 23 26 28 27 30 34 36 39 42 47 49 52 56 61 64 66 69 71 74 78 81 81 82 83 84 82 84 91 97 104 110 113 112
20 19 21 22 22 22 20 23 24 21 24 27 28 34 35 36 39 42 44 48 52 55 59 63 66 70 71 76 78 81 84 86 86 87 90 88 86 90 98 104 111 115 117 114
23 23 24 25 23 22 25 28 25 26 30 31 33 36 38 42 44 46 48 53 57 61 65 68 70 74 78 81 84 85 89 91 89 92 94 92 92 97 104 111 116 121 118 115
26 25 25 26 25 25 32 32 30 31 34 37 39 40 43 46 48 50 53 56 60 66 69 72 75 79 83 85 87 91 94 93 93 96 98 95 98 103 110 117 121 122 117 115
29 28 28 29 30 31 35 36 35 35 40 42 44 46 49 50 50 54 57 61 65 70 73 76 80 84 87 89 93 97 96 94 97 100 98 99 103 110 117 121 123 118 113 114
31 30 30 34 34 34 37 38 39 41 42 47 50 51 53 52 55 59 62 66 70 73 77 80 84 88 89 93 97 98 96 99 102 100 100 104 111 117 122 123 116 113 113 112
33 32 33 34 35 36 39 41 43 45 48 49 52 55 57 59 61 66 68 70 73 79 82 86 89 91 95 98 99 97 97 102 102 101 106 111 119 123 126 116 113 115 114 108
34 34 36 36 38 38 41 42 45 48 51 53 54 57 59 63 67 70 71 74 79 82 86 89 92 96 99 100 100 99 103 104 104 107 113 119 124 125 117 116 114 117 112 105
37 38 41 41 42 43 44 45 48 52 54 57 57 58 62 65 69 74 77 80 83 87 90 93 97 100 101 100 100 104 105 106 109 114 120 124 124 117 115 117 116 113 109 107
40 42 42 43 46 46 48 50 52 51 52 54 59 65 69 71 74 76 79 83 87 91 95 99 101 100 99 102 105 104 106 110 115 121 124 121 115 116 117 115 112 107 107 102
43 44 44 45 47 48 49 50 52 54 58 63 67 71 74 76 80 82 85 89 93 98 101 100 98 100 104 106 105 108 112 117 122 127 120 118 119 118 115 111 108 110 105 96
46 46 47 47 49 51 53 55 58 62 65 69 72 75 79 82 85 87 92 96 100 99 96 99 102 104 104 107 111 114 120 124 126 122 119 120 119 117 113 109 108 102 94 87

GFSCGP_250_spd_051.txt.gz
Wind_Speed
31 27 29 28 29 21 17 17 19 19 20 24 26 22 21 23 27 20 28 29 33 35 32 47 51 50 52 55 60 63 65 67 63 58 55 53 53 54 59 62 64 68 76 82
29 29 28 27 25 20 16 18 26 23 22 25 29 23 21 27 33 35 35 37 43 46 46 48 51 52 54 59 62 60 56 53 51 49 45 44 45 49 53 55 59 66 75 76
28 29 24 23 20 20 21 26 30 29 28 29 29 35 35 37 41 40 40 40 42 43 46 53 56 58 62 58 53 47 45 41 39 41 44 46 50 53 57 60 63 67 70 73
31 31 28 24 24 22 27 30 26 29 34 36 38 41 44 43 41 45 49 48 52 55 56 48 48 48 44 42 37 35 36 38 41 44 47 51 55 58 62 65 68 70 74 75
31 28 25 25 24 23 24 22 29 35 35 35 34 33 34 35 37 37 39 39 40 41 40 40 38 34 32 31 32 35 38 42 44 48 51 55 59 63 65 68 69 70 71 71
27 27 25 26 26 24 25 26 28 29 32 32 31 32 33 33 34 34 34 35 36 35 32 27 27 26 27 31 34 38 40 43 46 50 54 57 60 61 63 65 66 67 66 66
22 24 26 26 27 28 28 29 29 29 29 29 29 29 26 30 30 31 31 30 25 20 21 21 22 25 29 32 37 40 42 44 48 51 54 56 58 59 59 61 63 63 64 64
26 28 30 31 29 29 30 27 24 23 24 23 25 26 26 26 27 24 18 17 17 17 18 21 23 25 30 35 36 39 41 44 46 50 53 56 57 59 62 63 63 65 68 70
28 26 27 27 26 25 22 21 20 21 23 25 24 23 22 18 16 15 15 15 17 19 19 21 25 27 32 32 38 42 42 44 46 51 54 58 62 64 66 67 68 68 69 72
21 21 21 22 22 22 22 23 23 23 22 21 18 18 17 17 16 15 16 18 20 20 21 25 28 33 35 38 44 45 46 49 54 58 62 65 69 71 73 74 73 74 76 75
22 23 24 24 25 24 23 24 24 22 19 17 17 17 17 16 16 18 20 22 23 24 28 32 34 37 39 43 48 51 55 58 61 65 69 72 76 77 79 77 77 78 80 81
25 26 26 24 23 22 23 23 22 20 18 18 18 17 17 19 20 23 24 27 28 30 34 37 40 43 47 50 55 59 63 66 69 72 76 77 81 84 86 81 81 84 85 85
25 25 23 23 23 23 21 19 19 19 18 20 20 20 20 23 24 27 29 32 35 37 40 42 46 49 54 57 61 64 68 72 75 78 82 84 87 90 88 83 87 90 90 91
25 24 23 22 19 20 20 21 22 21 22 21 24 23 25 25 29 32 34 36 39 41 43 47 51 56 59 64 65 69 73 76 79 82 86 89 92 94 90 90 93 96 94 98
24 22 20 20 22 22 23 23 24 24 25 23 26 27 28 27 31 35 39 41 44 47 50 52 56 61 65 69 71 75 78 81 84 89 91 95 96 96 93 94 98 98 99 106
24 21 22 23 25 26 25 25 28 28 25 25 30 31 31 35 36 39 42 46 48 52 55 56 60 63 69 73 76 79 83 85 90 92 95 99 98 97 96 100 100 101 105 112
26 25 25 27 28 26 28 30 29 28 30 30 32 36 37 41 43 45 47 49 52 56 58 59 64 69 74 77 81 83 86 91 93 96 100 101 98 98 101 102 103 107 112 117
28 28 29 30 28 28 33 32 32 33 34 34 37 40 42 45 47 51 52 55 57 57 58 63 70 74 77 80 83 86 91 94 97 101 103 99 99 102 103 104 107 114 117 120
30 30 31 30 30 32 35 37 36 36 39 38 42 45 47 49 51 52 55 57 59 62 65 70 75 78 80 83 86 91 94 98 102 102 98 100 102 102 106 109 115 118 120 122
31 31 33 35 34 34 37 40 40 40 41 44 48 49 51 52 54 57 57 61 62 65 70 73 77 79 84 88 92 95 98 102 99 99 101 102 104 108 111 115 120 121 123 115
33 34 36 37 36 37 39 41 42 44 45 47 50 53 55 56 59 61 62 62 67 70 74 77 82 86 90 92 94 100 101 98 99 101 103 106 110 114 117 122 123 125 116 113
36 37 39 39 39 38 40 40 43 45 47 51 53 55 57 59 62 63 64 69 72 76 80 83 88 91 93 96 101 101 99 99 102 104 108 112 116 120 124 124 123 117 113 109
40 40 42 41 40 40 42 43 46 49 52 54 57 59 61 60 62 66 70 73 77 81 85 89 93 94 97 102 100 99 100 102 106 110 113 118 122 127 127 123 117 115 111 108
42 43 42 44 43 43 44 46 48 51 54 56 57 59 61 63 65 70 74 78 83 86 90 92 95 99 101 98 98 100 103 108 112 116 120 123 127 127 122 119 115 111 107 105
44 46 45 46 47 47 45 49 49 51 53 56 60 64 67 70 73 75 80 84 88 90 92 96 101 100 98 98 101 104 110 114 119 122 125 129 124 119 117 114 113 110 105 97
49 48 49 48 49 48 47 52 56 59 61 63 66 69 73 76 79 82 86 89 91 95 99 102 99 98 100 104 108 111 116 120 123 125 128 122 118 117 114 110 109 104 98 93

GFSCGP_250_spd_054.txt.gz
Wind_Speed
29 27 25 24 28 28 23 20 18 19 23 24 19 13 18 19 16 25 30 30 32 35 36 34 29 28 35 40 53 60 59 55 58 61 65 66 64 62 61 60 58 59 62 65
31 30 27 25 22 22 22 16 13 18 20 21 21 21 23 24 27 30 28 30 24 25 29 34 37 42 45 52 58 55 57 58 60 65 66 61 59 55 53 56 59 61 64 68
27 26 23 24 22 23 20 18 21 23 21 23 24 23 24 23 21 25 25 31 38 38 42 44 48 49 48 48 52 56 61 64 61 56 54 48 49 51 52 55 59 62 63 63
27 22 24 24 19 19 17 20 17 26 26 25 24 26 29 31 34 40 41 44 40 43 48 46 49 51 53 55 60 56 52 51 46 43 45 46 47 50 53 56 57 58 61 62
22 19 18 20 19 17 22 22 16 26 28 28 30 31 29 30 35 37 40 43 47 46 49 52 48 48 46 47 46 43 40 39 40 41 43 46 47 48 50 52 53 56 58 60
17 18 21 21 21 22 18 14 17 24 30 33 36 29 36 37 33 36 37 40 40 39 39 39 40 41 42 37 35 34 34 35 37 40 41 42 46 47 52 57 61 64 67 68
21 20 21 22 20 23 23 21 24 28 30 31 33 34 29 34 32 35 36 36 35 35 37 39 36 31 30 32 31 31 33 34 38 40 42 45 51 52 56 59 66 69 73 75
17 19 25 26 24 29 30 28 30 29 29 28 34 35 31 33 33 32 35 35 36 35 31 27 26 28 28 28 30 32 35 40 44 43 48 53 57 60 64 68 72 75 78 82
26 25 27 25 26 30 28 30 31 32 33 29 31 27 29 29 32 33 32 29 26 24 25 25 26 26 27 30 35 38 39 43 48 52 55 61 63 66 71 74 77 83 85 87
30 29 30 30 32 33 35 32 32 31 31 29 27 28 29 31 29 26 24 24 25 25 25 25 27 30 29 36 41 45 46 49 53 57 60 63 67 71 75 79 84 87 88 93
28 26 26 29 29 28 29 29 28 27 28 28 29 28 27 23 23 24 24 25 25 25 28 29 31 35 39 40 46 50 52 55 60 63 65 70 75 79 82 85 88 91 93 97
22 24 28 27 28 30 30 30 28 28 28 27 28 25 26 23 24 25 25 27 27 29 32 35 38 41 46 48 50 55 58 63 66 71 74 79 82 86 88 91 93 95 99 97
26 29 29 28 33 30 29 27 28 29 27 28 24 26 24 24 25 26 28 30 32 33 36 39 43 46 49 52 55 58 63 67 72 76 80 83 85 88 91 93 96 100 97 93
29 30 33 33 32 28 30 30 29 26 26 26 25 23 22 25 25 29 33 35 36 38 40 42 46 47 51 56 60 60 65 71 75 79 83 85 87 92 94 97 102 97 96 94
31 32 31 29 27 28 27 25 24 25 27 23 29 23 26 29 27 34 36 39 41 43 47 48 50 53 57 60 61 65 70 75 80 82 85 90 92 94 98 103 99 96 97 100
31 32 29 29 26 26 24 25 26 27 28 25 28 26 34 31 35 36 41 40 47 48 52 54 56 58 60 62 66 71 75 78 81 86 89 93 94 99 103 100 98 99 102 106
33 33 29 27 26 25 26 31 28 29 30 29 30 33 36 36 39 44 46 48 51 54 54 58 59 61 64 65 70 74 78 81 86 90 95 96 99 104 100 99 100 105 110 113
34 31 30 29 27 29 34 33 31 32 34 34 33 37 41 40 46 47 50 53 55 58 59 61 64 66 65 71 76 80 82 86 90 96 97 101 104 101 99 101 106 111 115 117
35 33 32 30 29 33 34 33 33 34 37 36 40 43 45 47 50 51 53 56 58 60 63 65 66 68 72 77 80 85 89 92 94 96 102 105 101 100 103 107 112 117 120 121
38 36 33 33 32 33 35 37 36 36 37 40 44 47 50 51 53 54 56 59 62 64 66 66 69 74 77 81 85 90 93 95 98 103 106 102 101 105 109 113 118 120 124 125
40 38 36 36 34 34 35 40 38 40 42 44 47 48 52 51 56 57 59 63 64 65 68 70 74 78 81 86 91 94 96 100 104 105 103 102 106 110 115 119 122 125 127 125
40 40 39 37 37 36 39 38 42 43 44 47 48 48 53 53 58 61 61 62 65 68 72 76 80 84 87 91 94 96 100 104 107 104 103 106 111 116 120 123 126 128 122 117
40 41 42 40 39 40 40 41 45 47 48 48 52 53 55 56 56 61 62 66 70 74 78 82 85 89 93 95 97 100 104 109 106 105 108 112 115 120 125 128 129 121 117 113
43 42 43 44 44 43 44 45 47 48 51 51 53 56 57 58 58 63 69 74 77 81 83 87 91 94 95 97 100 104 109 106 106 110 115 118 122 125 128 128 121 120 114 108
44 45 44 45 46 46 43 50 49 51 53 53 53 55 60 64 69 72 75 79 82 86 90 93 95 95 97 101 106 109 108 108 111 115 119 123 126 126 123 117 116 111 112 107
46 47 47 47 49 49 47 51 54 54 53 58 63 67 70 73 75 79 82 85 87 90 93 96 96 98 103 108 110 108 109 112 116 119 123 126 126 122 118 113 108 109 104 103

GFSCGP_250_spd_057.txt.gz
Wind_Speed
16 25 31 29 29 22 21 23 20 16 18 17 16 17 17 25 22 25 27 28 33 26 22 25 31 36 40 41 39 43 51 52 53 54 56 59 60 63 65 65 66 63 63 61
19 24 27 29 24 23 24 18 16 18 20 20 21 21 22 22 24 25 26 22 28 32 31 34 36 36 44 42 40 43 46 55 62 62 64 61 61 61 63 61 59 59 59 57
19 24 25 22 17 14 15 16 17 17 19 23 23 20 20 24 23 26 28 30 25 25 25 31 33 32 38 45 50 48 51 54 56 58 58 59 58 57 55 54 54 52 49 49
16 18 19 14 10 9 11 15 16 22 22 24 26 25 24 21 22 25 25 23 26 26 29 36 36 39 43 45 50 54 51 53 53 56 55 53 50 49 50 49 46 48 50 53
11 13 14 12 15 12 15 16 18 23 27 27 28 29 30 27 26 27 34 40 41 44 41 46 44 45 46 49 50 51 51 51 50 50 48 46 46 44 43 42 47 51 54 58
12 9 13 15 13 15 17 18 16 18 22 30 28 26 32 31 29 32 34 32 35 37 39 43 44 45 43 43 43 46 46 46 44 43 45 44 43 45 45 48 53 56 58 60
10 14 15 16 15 16 20 17 16 17 18 23 21 25 24 30 28 35 37 36 35 34 35 37 39 41 41 42 41 40 39 39 41 41 41 44 48 50 53 57 61 64 68 71
13 12 16 19 20 23 22 22 21 21 20 22 26 25 29 32 30 33 38 36 33 34 36 38 39 40 36 35 36 36 35 39 44 45 46 49 54 56 59 63 64 68 75 80
20 25 24 21 25 26 23 27 26 24 28 27 30 30 28 32 31 33 33 33 33 36 37 34 31 33 34 35 37 38 37 42 49 51 52 56 60 63 67 72 75 78 81 83
22 22 25 25 23 26 25 28 25 26 30 32 34 29 28 32 32 31 32 35 36 34 29 29 31 32 34 37 40 41 42 46 52 57 60 63 65 68 72 77 80 82 84 88
28 29 30 28 29 33 33 34 34 31 30 31 31 28 30 35 33 32 33 32 28 29 30 31 32 33 35 37 42 48 49 51 53 56 60 64 67 71 75 79 80 84 86 92
26 28 29 31 27 29 31 31 27 24 27 28 33 31 32 35 33 32 29 26 29 32 34 35 34 35 36 39 43 46 48 53 57 59 62 66 70 75 78 79 84 87 92 94
30 30 28 26 28 28 26 25 26 27 30 33 33 36 29 32 30 26 26 28 32 35 36 37 38 39 42 44 49 53 55 58 61 64 68 71 75 78 82 86 89 93 95 100
33 31 31 29 29 26 26 29 31 31 31 36 31 36 28 29 22 26 30 34 35 37 39 39 41 43 45 50 53 57 60 62 64 68 72 74 78 82 87 91 93 97 102 102
32 33 34 33 31 28 32 30 31 31 33 34 33 29 27 24 27 30 34 38 39 39 42 44 46 49 52 55 58 60 62 67 69 72 75 79 82 87 92 95 98 102 106 101
33 34 32 33 33 30 31 30 31 30 30 29 28 26 30 28 30 31 35 42 44 45 49 50 53 54 57 60 63 65 68 71 74 78 81 84 88 92 95 98 102 108 106 101
33 35 35 35 32 30 30 31 27 28 29 29 30 30 33 33 35 38 43 43 45 48 51 53 56 58 61 63 67 69 70 72 77 82 86 90 93 95 98 101 106 109 105 105
35 35 36 36 31 31 33 30 29 30 31 30 33 34 37 39 40 43 45 49 53 55 56 58 59 61 63 65 68 70 73 77 81 86 90 95 96 97 101 104 110 108 107 109
39 38 37 36 35 34 33 33 32 33 31 34 37 37 40 43 44 46 48 52 54 57 60 61 63 64 67 69 73 77 80 83 86 91 95 96 98 102 107 111 109 106 108 114
41 41 38 38 37 35 35 36 36 32 32 39 39 39 41 43 45 47 49 52 54 56 59 61 64 68 71 75 80 84 87 90 93 96 98 99 103 108 112 112 111 113 116 119
45 40 40 41 39 38 37 40 37 36 37 39 39 41 44 45 48 48 51 55 58 60 61 64 68 72 76 81 85 88 92 95 99 101 101 105 109 112 114 112 114 119 122 122
44 41 42 42 42 40 40 40 41 39 40 41 43 44 46 49 50 52 57 59 61 62 65 69 72 76 81 85 89 91 95 98 102 103 106 111 111 114 115 117 121 126 125 122
45 44 44 43 43 41 40 43 46 43 43 45 48 49 51 51 53 56 59 61 64 67 70 73 79 84 86 90 92 96 99 102 104 107 113 112 114 114 116 120 127 128 122 119
47 46 47 46 43 42 42 48 49 48 48 50 51 54 56 56 56 59 62 66 68 72 77 81 85 88 91 94 97 101 102 103 108 113 116 116 115 117 121 125 124 119 118 115
49 48 47 49 44 44 46 47 50 52 52 53 55 56 58 60 61 63 66 70 75 78 81 85 89 92 96 100 103 105 104 108 114 119 119 117 119 123 125 124 118 114 113 109
48 49 50 48 47 46 47 49 52 53 54 56 57 59 61 65 68 71 73 74 77 80 85 90 94 98 102 105 106 107 110 115 118 119 118 120 124 127 124 121 115 113 109 106

GFSCGP_250_spd_060.txt.gz
Wind_Speed
23 13 13 16 21 18 12 10 16 18 12 17 23 26 32 42 45 49 53 48 44 40 35 38 41 43 49 47 41 42 44 46 52 56 56 57 58 59 61 69 72 69 70 68
23 18 11 16 20 17 14 14 13 10 13 13 16 18 20 27 35 48 52 50 41 41 39 39 42 42 36 39 40 44 46 50 50 50 49 54 61 62 63 62 62 64 63 60
19 20 11 14 17 14 11 10 10 13 12 14 18 25 25 29 32 30 36 38 41 39 44 43 40 37 34 37 37 39 41 44 50 53 53 54 56 56 55 55 57 58 56 57
13 13 12 14 16 14 11 14 15 15 20 25 26 28 24 24 25 21 22 27 27 28 28 35 39 37 37 38 42 44 48 51 53 51 51 51 55 54 53 56 57 54 55 56
12 11 11 11 12 13 12 16 18 18 24 28 30 30 29 28 21 20 19 19 22 25 27 31 37 40 40 40 39 40 38 50 50 51 51 51 50 52 53 53 55 56 57 59
17 4 4 10 12 13 12 15 20 21 24 28 29 33 33 32 32 27 28 28 28 29 32 34 41 45 48 43 41 41 46 45 46 48 48 48 50 52 53 54 55 57 60 63
12 3 8 9 14 17 18 17 19 20 20 21 29 32 32 31 32 38 37 36 35 37 41 44 45 41 35 34 44 44 44 44 45 46 47 50 51 53 56 57 60 62 65 67
15 11 10 14 20 22 18 20 16 16 15 14 15 21 23 25 28 32 37 36 37 38 40 42 39 35 38 39 40 39 39 43 46 48 49 52 54 57 60 63 65 69 71 73
23 20 17 17 17 18 19 20 17 19 19 19 18 18 23 24 28 29 30 33 35 36 35 35 38 37 36 34 35 40 42 44 46 48 51 53 55 59 62 65 69 70 70 73
26 26 24 19 23 22 21 25 22 22 26 25 22 24 29 30 29 30 29 31 31 32 34 36 37 35 34 34 37 40 41 43 46 49 51 53 57 60 63 67 71 73 74 77
31 30 25 24 21 21 26 32 35 29 30 30 28 26 29 29 27 27 28 30 32 34 34 32 32 36 38 40 41 41 43 45 48 52 56 60 63 66 68 73 74 75 79 82
34 32 28 24 23 25 28 32 32 33 29 26 25 24 26 25 28 31 31 34 33 31 31 29 34 37 39 40 42 44 46 49 53 56 59 61 64 67 72 72 74 77 81 85
33 33 32 29 28 26 23 23 25 23 26 27 28 32 21 29 33 29 28 27 30 31 29 30 35 37 38 41 44 47 51 54 56 59 62 65 67 69 69 74 77 81 85 89
35 33 34 33 32 27 26 24 23 27 29 30 31 28 29 25 28 29 25 27 31 32 32 35 39 39 41 44 48 51 54 56 59 62 65 67 68 72 76 79 83 88 91 93
38 33 34 36 32 28 31 29 31 30 31 29 31 31 30 26 22 21 24 30 35 36 35 38 41 43 46 48 51 55 56 59 61 65 67 70 74 78 81 86 90 93 97 98
44 36 34 36 32 29 26 32 37 29 30 27 30 30 24 24 24 27 31 34 37 39 41 44 46 48 51 54 55 57 60 62 66 69 72 76 80 84 87 91 94 97 100 101
44 40 33 35 34 29 31 36 34 32 29 28 28 28 27 26 29 32 34 36 39 41 43 46 49 52 53 54 56 59 63 66 70 74 79 83 86 89 92 97 100 101 104 109
50 40 35 39 35 31 37 34 35 32 29 28 30 31 33 31 32 35 38 40 41 42 44 46 48 50 52 56 59 63 67 71 75 80 84 89 92 94 98 102 104 104 109 114
51 40 34 37 39 36 38 35 36 34 32 33 35 35 36 35 35 36 39 43 45 48 49 50 52 55 58 61 65 68 72 77 81 85 90 92 95 99 103 105 106 109 114 116
48 41 34 38 41 37 42 37 38 35 35 38 39 39 38 38 38 40 43 45 47 50 52 55 57 60 63 66 69 73 77 82 86 90 93 96 101 104 106 107 110 116 114 111
54 42 36 38 42 40 43 41 39 39 42 41 41 42 41 41 43 45 47 49 51 52 55 58 61 64 68 71 75 79 83 87 89 92 97 102 104 106 109 112 118 112 114 116
55 42 39 40 43 43 44 43 43 43 43 44 45 46 44 45 47 50 52 53 55 57 59 62 65 69 72 76 80 84 87 90 94 99 104 105 107 110 112 116 113 118 119 121
57 48 39 43 43 42 45 46 46 44 46 48 50 49 49 50 51 54 56 57 58 60 62 66 69 73 76 80 83 86 91 95 100 104 107 109 110 114 114 112 118 120 123 122
54 48 40 44 47 45 49 50 48 48 49 50 51 51 53 55 57 59 60 60 61 64 68 70 73 77 79 83 87 92 96 100 103 107 110 111 114 113 115 120 121 122 124 122
50 47 44 43 51 49 47 49 51 52 51 52 53 55 55 57 59 60 62 63 65 69 73 75 78 80 84 89 93 97 100 102 107 110 112 116 114 117 121 122 123 123 121 118
44 43 46 45 50 52 50 51 53 53 52 52 55 56 58 60 61 63 64 67 70 73 75 78 82 86 91 95 98 100 102 107 110 111 115 115 117 122 125 124 121 120 120 115

GFSCGP_250_spd_063.txt.gz
Wind_Speed
35 26 24 10 5 10 12 14 15 12 10 9 12 14 36 47 49 47 41 38 35 30 36 40 38 36 34 40 39 43 50 59 57 59 59 58 57 61 61 64 63 62 66 69
32 19 19 7 2 11 12 12 11 17 12 9 14 19 27 37 49 48 46 42 41 41 36 35 36 45 43 45 47 50 53 54 52 50 52 54 58 55 53 56 62 65 62 64
31 21 16 10 4 8 8 7 9 11 11 11 14 22 24 25 37 49 51 49 48 45 44 45 44 42 39 42 43 48 47 44 46 48 47 50 49 52 57 60 59 58 59 62
28 25 12 11 6 7 9 8 9 14 15 16 17 17 19 24 29 39 44 53 46 48 48 43 42 44 46 45 46 40 42 43 47 50 54 52 52 53 56 57 57 57 59 62
24 22 13 8 3 4 8 12 13 17 15 17 19 20 22 27 24 29 36 43 40 36 35 34 38 39 35 38 39 38 43 48 46 46 46 48 49 50 51 54 55 58 62 65
22 15 8 3 5 9 9 11 12 17 18 16 21 23 26 31 31 28 30 34 33 27 27 30 28 30 33 34 39 46 47 50 52 48 47 47 47 49 52 55 58 63 65 69
23 17 16 12 11 10 13 13 13 14 17 15 22 26 30 34 33 33 33 35 38 38 35 33 37 40 39 44 48 45 44 47 45 48 46 44 46 50 55 58 62 65 64 64
29 20 17 16 15 18 16 15 14 16 16 15 18 22 25 35 37 37 36 36 40 43 44 42 44 45 45 44 45 46 45 47 49 44 42 45 50 53 57 58 59 61 66 68
33 28 19 17 21 19 15 17 18 14 14 17 16 17 20 22 26 34 36 35 37 41 44 42 39 40 41 38 40 45 47 45 40 42 46 50 53 56 57 59 62 65 66 70
36 36 27 18 22 23 20 22 19 15 14 16 19 22 25 26 25 28 31 33 34 35 36 37 36 36 35 39 42 41 38 41 45 49 51 53 54 55 58 61 64 68 69 65
37 38 28 21 21 21 24 25 25 24 23 24 24 28 30 30 29 28 29 29 29 31 33 36 37 36 36 36 35 37 41 46 49 51 50 52 54 57 59 63 65 66 69 73
34 36 34 22 19 25 25 25 26 29 27 24 24 24 24 25 23 24 26 28 31 35 36 39 39 35 33 35 38 41 44 47 48 49 52 55 58 60 63 67 71 71 74 78
36 37 35 27 21 25 26 29 28 26 25 24 24 24 20 23 25 28 30 32 33 36 38 38 34 31 33 39 42 44 46 48 50 53 56 58 60 63 66 68 70 75 79 83
36 38 37 35 27 25 31 31 30 28 22 25 24 23 23 23 26 28 33 32 34 35 34 27 27 32 38 41 44 47 50 53 57 58 59 62 65 68 70 73 78 81 83 84
39 40 41 38 32 27 33 33 34 29 27 23 23 24 25 27 28 29 30 31 29 30 29 29 32 36 39 43 47 49 53 56 58 60 62 65 69 71 75 79 83 83 85 91
43 44 45 45 39 30 30 33 34 32 28 20 23 28 27 27 28 26 25 25 26 30 34 36 38 40 43 46 50 51 55 58 61 63 66 69 73 76 79 82 84 87 93 98
45 46 47 45 41 33 27 35 34 33 30 23 25 29 29 26 26 26 24 26 30 34 37 39 42 45 47 49 52 55 57 60 63 66 70 73 76 80 82 85 89 94 98 102
47 47 47 45 43 35 34 37 34 33 33 30 28 31 30 28 28 29 30 32 34 36 38 40 42 45 47 51 54 56 59 62 66 69 72 76 80 84 87 90 95 98 102 106
50 49 48 47 45 41 36 39 38 36 34 35 34 32 31 31 32 34 35 36 38 40 41 43 46 48 51 53 56 59 62 66 69 72 76 80 83 87 91 96 100 101 106 108
52 49 49 48 46 42 38 40 41 42 36 43 37 34 35 35 37 39 39 40 42 44 46 48 50 52 54 57 60 62 65 70 73 76 80 83 87 92 96 100 101 106 108 109
55 52 49 50 48 44 40 40 39 41 46 42 40 39 39 40 41 42 43 44 46 48 51 52 54 57 59 61 63 67 70 73 76 80 84 88 93 97 100 101 106 111 110 113
52 54 49 51 50 46 43 40 40 46 47 44 44 44 42 43 44 46 48 50 51 53 55 58 60 61 63 65 68 72 75 78 81 85 90 94 99 101 102 105 111 112 115 114
53 51 48 52 51 48 43 42 43 46 48 47 47 47 46 47 47 48 50 52 54 57 59 61 62 64 67 70 73 76 79 82 86 90 95 99 101 103 104 109 112 115 116 117
51 49 50 51 47 51 48 45 46 49 51 50 50 51 51 51 51 51 53 55 56 58 60 63 65 68 71 74 77 80 83 86 91 96 99 102 103 105 110 114 114 115 117 121
51 49 47 47 52 56 50 50 49 50 54 53 52 54 55 55 55 56 58 58 59 61 62 66 69 73 76 78 80 83 87 91 95 98 102 103 107 110 113 115 116 118 120 125
53 47 49 51 58 55 52 51 52 52 54 56 55 56 56 57 57 59 61 63 64 64 67 71 74 76 78 81 85 89 92 94 99 102 104 108 110 113 114 114 115 120 125 124

GFSCGP_250_spd_069.txt.gz
Wind_Speed
44 45 49 44 34 14 10 8 5 6 2 2 6 10 14 24 27 28 29 31 30 16 29 32 32 31 33 29 36 38 37 41 43 48 50 48 45 43 54 52 55 58 62 66
41 42 44 47 33 14 10 8 7 7 5 5 3 6 11 19 30 32 31 31 31 34 20 33 33 36 33 34 33 37 36 36 37 42 41 44 42 45 46 53 59 64 70 69
38 38 43 45 36 20 8 7 12 9 5 7 6 6 7 16 26 34 29 31 32 36 28 29 29 35 34 35 34 33 35 35 35 34 39 41 48 54 55 59 66 67 66 62
35 36 40 42 41 28 21 12 9 8 6 8 11 10 12 14 20 36 32 33 31 37 33 33 28 26 28 31 31 32 34 36 39 43 48 50 56 57 60 62 62 58 59 60
32 32 34 37 40 30 21 18 11 10 10 11 11 12 10 12 15 24 39 37 38 36 36 34 33 33 34 39 40 36 42 43 45 50 50 51 51 55 47 47 53 58 61 59
29 30 31 33 37 34 23 16 11 8 9 7 10 11 12 12 12 19 20 34 37 43 42 44 40 39 41 43 45 47 46 42 44 44 45 46 44 49 53 54 57 57 56 60
27 26 29 31 34 38 27 18 11 9 9 7 10 12 11 12 13 14 15 16 16 20 32 41 47 44 45 43 44 45 46 42 37 40 44 46 50 49 52 52 54 55 60 63
28 25 29 32 34 38 30 22 13 10 13 11 12 16 12 17 20 20 21 22 23 21 23 25 26 34 39 38 42 42 44 42 43 46 49 51 51 49 53 53 53 57 60 62
27 27 30 32 34 37 32 22 20 15 14 17 17 18 16 15 18 19 19 21 24 27 30 32 33 34 36 39 44 46 48 48 49 51 53 48 48 52 54 55 54 56 60 65
28 29 31 33 34 36 32 26 20 22 17 19 20 23 22 17 20 22 22 24 25 26 27 30 34 37 40 42 44 44 46 47 46 43 44 47 51 55 55 53 53 58 63 67
30 29 30 33 33 37 30 24 20 23 22 21 19 24 24 23 23 26 30 31 31 33 35 35 37 40 43 44 44 44 44 41 41 42 45 48 51 51 48 53 57 61 66 69
34 29 32 31 32 37 27 26 25 18 22 20 25 29 25 24 27 30 32 34 36 38 40 41 42 42 41 39 37 40 41 39 42 47 48 48 50 49 51 54 59 63 69 72
34 32 34 34 32 35 26 26 25 20 19 29 28 33 25 22 21 24 28 30 32 35 36 37 39 39 39 40 39 41 42 38 42 44 48 52 52 51 55 57 64 67 69 71
34 34 34 36 35 36 27 26 25 25 23 22 34 36 34 29 27 26 28 31 34 38 40 42 43 38 38 39 40 42 36 38 42 49 53 53 54 56 61 62 68 67 72 74
37 35 36 36 37 36 28 27 26 26 28 24 28 35 42 37 31 31 30 32 37 40 39 38 39 38 39 38 37 34 37 43 48 52 53 55 57 59 61 63 72 73 76 81
38 37 38 36 37 34 30 31 28 28 30 31 30 30 35 40 36 34 34 33 36 37 36 35 36 37 38 36 33 37 43 49 51 53 55 58 60 63 65 69 75 79 82 84
43 40 38 35 35 32 33 33 32 32 33 31 30 33 35 39 39 39 37 37 37 35 36 35 35 36 38 38 41 43 47 50 53 56 58 61 64 67 71 74 77 79 84 87
41 40 38 35 34 32 38 36 36 34 36 36 34 33 33 34 41 42 43 43 40 37 37 37 37 39 42 44 47 49 51 54 57 60 62 65 68 71 73 77 80 82 85 86
41 39 36 34 33 33 37 42 38 38 41 39 36 35 36 36 37 46 46 46 46 42 41 41 40 42 45 47 50 52 55 58 60 62 64 67 71 74 76 78 81 83 86 88
41 39 36 38 38 34 40 41 42 40 43 45 42 40 39 40 40 41 48 49 48 48 48 48 48 48 49 51 54 56 57 60 62 65 68 71 73 75 78 81 83 87 89 93
44 45 42 42 41 37 40 45 47 42 44 47 48 47 44 43 43 41 44 50 52 51 51 54 55 56 56 57 58 59 60 62 65 68 71 73 75 79 81 84 87 90 92 94
50 51 49 49 44 39 46 46 46 48 48 50 49 50 48 43 46 45 42 44 51 55 55 55 57 59 62 62 63 65 66 68 71 73 76 78 81 84 86 88 91 92 94 97
54 54 55 54 49 49 49 49 49 51 52 52 51 53 52 47 48 46 43 42 45 52 58 59 59 62 66 67 69 71 73 75 77 80 81 83 86 88 90 92 94 95 99 103
61 59 59 57 56 56 53 51 54 55 53 52 53 56 56 54 52 50 47 43 44 45 49 57 63 65 66 68 71 74 77 79 81 83 86 88 90 91 93 95 96 100 104 106
63 63 62 60 58 61 58 58 58 55 55 55 55 56 59 58 57 58 55 47 47 48 45 47 50 57 65 73 76 79 81 83 86 88 89 91 93 95 98 99 102 105 106 110
61 61 60 57 62 60 55 61 58 59 58 57 57 56 58 60 66 66 65 61 57 59 61 61 61 64 65 69 73 78 82 86 89 91 94 96 97 97 99 100 102 105 109 110

GFSCGP_250_spd_072.txt.gz
Wind_Speed
32 36 38 35 42 34 27 16 12 6 5 3 2 5 7 18 21 25 30 31 29 30 31 34 35 39 45 47 43 35 36 50 49 48 50 54 56 62 61 61 67 66 65 57
29 36 35 33 35 41 26 22 13 12 8 4 3 4 6 13 22 27 29 32 30 28 30 35 30 27 33 41 40 39 38 41 45 49 51 56 62 59 56 58 58 58 54 55
29 32 30 30 31 38 32 20 18 9 6 5 7 5 8 10 19 31 30 30 32 30 26 23 29 34 32 32 39 41 41 42 43 44 46 46 46 47 47 47 50 53 56 58
29 29 28 28 31 34 36 24 17 10 6 5 6 9 11 10 11 30 27 28 31 30 33 23 25 30 38 38 37 34 42 44 41 47 48 45 43 45 46 51 56 58 60 63
27 26 25 28 29 32 34 29 19 11 5 8 7 7 6 7 9 16 34 28 30 35 35 30 32 28 28 37 42 38 41 41 39 35 38 42 44 52 55 59 62 63 61 60
27 24 22 26 27 29 35 32 21 16 6 7 8 7 6 8 10 12 20 37 33 29 33 36 36 36 33 35 35 36 37 42 40 43 46 48 50 52 56 56 58 61 57 59
28 25 22 24 26 27 32 31 26 18 14 10 10 9 9 9 9 9 11 17 24 35 40 37 41 39 41 39 41 44 43 46 49 51 55 54 51 49 48 53 55 62 61 61
29 27 23 22 24 25 28 31 28 17 18 17 16 15 10 11 13 13 12 14 16 17 20 22 27 37 37 41 43 44 45 45 43 43 46 49 50 52 56 58 63 60 60 59
30 28 23 23 24 23 25 28 25 23 19 21 20 22 19 14 17 15 14 16 20 24 28 31 31 32 32 32 35 39 41 44 46 47 52 56 57 58 59 60 59 58 58 62
30 29 24 25 24 22 23 28 24 22 21 22 23 24 22 18 18 20 20 20 19 21 25 27 29 32 37 40 41 41 43 46 48 49 50 52 54 55 56 56 59 60 61 65
31 30 26 24 25 20 22 25 26 22 21 22 25 23 21 22 19 22 24 25 27 27 28 31 33 34 37 38 39 41 44 46 49 50 49 50 50 50 54 58 61 62 62 64
33 29 28 28 27 23 22 23 28 23 19 19 24 30 27 26 22 25 29 31 32 33 33 33 35 37 39 39 39 41 41 42 44 46 47 49 49 52 56 63 65 63 59 61
37 32 30 29 28 25 24 24 25 24 19 19 18 23 27 28 28 30 29 29 30 32 32 33 34 36 37 37 39 42 44 46 46 47 48 46 48 53 58 62 62 61 64 68
39 36 32 31 28 26 26 26 25 24 23 20 19 22 21 23 27 32 33 32 34 34 33 35 38 41 42 41 42 43 44 44 45 43 41 45 52 55 57 60 64 66 69 71
40 38 35 34 31 30 28 29 26 25 24 23 24 23 23 20 21 28 32 35 37 37 39 39 39 42 44 44 41 41 44 39 37 40 44 52 55 55 58 63 66 69 74 77
42 41 37 36 34 36 29 31 28 26 26 26 27 27 26 23 22 21 26 34 38 38 41 42 42 43 44 44 42 40 40 38 39 45 50 54 57 59 62 66 70 74 75 78
45 42 39 39 40 38 31 33 30 27 28 28 29 30 29 29 27 27 27 29 35 39 41 44 46 47 47 46 44 40 43 43 47 49 53 56 60 63 66 68 71 74 76 80
45 43 40 41 40 33 37 33 31 29 31 30 31 32 32 32 32 32 31 32 33 39 43 45 48 50 50 49 48 47 49 51 54 55 57 60 63 66 68 70 73 76 79 82
49 44 41 41 38 34 37 38 31 31 37 35 33 35 36 37 37 35 37 35 37 37 40 50 52 52 53 53 53 53 54 55 57 59 61 64 67 69 72 74 77 79 83 85
48 45 42 40 36 32 46 39 35 33 40 36 38 38 40 42 43 41 39 38 39 41 42 44 48 55 56 56 56 57 58 60 62 64 67 70 72 74 76 79 81 84 87 90
48 43 39 40 36 36 45 42 40 36 45 39 41 44 45 47 46 48 48 44 41 44 47 47 47 48 51 58 60 60 61 63 65 69 72 75 77 79 82 84 87 90 93 97
50 46 42 40 38 37 50 47 42 43 43 45 48 48 50 52 50 50 51 52 47 46 46 48 48 42 46 49 54 60 63 65 67 70 74 77 80 83 87 89 92 95 96 98
50 47 47 44 42 45 48 49 47 47 48 48 49 51 54 54 54 54 57 57 55 52 49 52 44 39 42 51 47 47 53 56 60 66 74 79 84 87 90 93 95 98 100 100
54 53 48 48 47 50 52 54 53 52 53 52 54 57 57 54 56 58 59 59 59 58 54 56 57 51 49 50 53 60 65 66 70 73 72 73 77 82 86 88 89 90 90 92
55 53 52 50 53 57 57 58 56 56 56 54 56 59 59 57 60 60 61 61 62 65 61 63 66 67 63 63 65 67 67 69 72 73 74 73 73 74 76 78 82 86 89 92
55 57 57 56 60 61 59 58 57 58 57 55 57 60 60 61 62 62 60 62 65 62 63 67 70 73 72 74 74 73 73 74 73 72 73 72 72 73 78 82 85 88 89 91

GFSCGP_250_spd_075.txt.gz
Wind_Speed
28 28 29 34 34 35 32 26 23 19 14 8 7 6 5 9 12 21 27 29 29 32 26 28 31 38 40 42 48 52 50 47 44 44 53 49 46 50 52 55 60 63 66 66
30 25 29 33 31 33 31 27 23 23 15 8 7 9 5 4 10 20 29 29 26 29 31 32 34 32 38 44 47 48 40 48 46 46 54 51 54 54 52 52 59 64 68 70
32 26 29 32 29 32 29 29 22 22 16 9 5 5 6 6 4 20 25 31 28 27 31 34 37 36 37 42 49 49 41 39 46 50 47 51 54 53 54 58 61 65 69 70
34 28 28 30 29 29 28 27 25 17 18 13 9 5 5 6 6 17 24 28 32 28 29 28 32 38 33 41 49 54 47 46 43 41 44 45 53 54 57 56 58 58 58 58
33 29 29 31 28 28 27 26 23 20 14 16 13 9 6 5 5 9 28 30 27 32 29 28 28 35 31 34 40 46 50 50 51 53 54 54 52 53 55 58 60 59 59 64
32 32 31 29 29 27 26 25 25 22 13 14 12 10 7 7 7 8 16 25 30 30 34 34 36 32 28 30 29 34 42 41 45 47 48 52 53 52 48 51 54 59 62 68
34 36 30 29 29 27 25 24 24 24 19 13 14 12 10 12 10 10 13 18 31 28 31 37 38 37 39 37 37 37 38 39 40 40 41 43 48 52 56 57 62 65 63 62
39 36 31 29 28 26 24 23 22 24 21 18 17 13 17 14 12 12 14 16 17 24 38 41 38 40 41 42 43 44 43 44 45 49 51 51 53 57 60 60 57 59 61 64
40 34 33 31 29 26 25 22 22 21 23 22 19 15 15 15 20 18 15 17 20 21 23 23 25 28 30 34 38 46 51 52 53 51 51 51 50 52 55 57 61 64 66 69
38 37 34 33 29 27 23 22 23 21 20 23 21 19 16 18 16 18 18 18 20 21 23 28 33 36 38 39 39 40 41 42 43 46 49 53 54 56 60 62 61 63 65 66
41 39 35 30 33 27 25 23 23 23 20 19 22 21 16 17 21 23 21 22 23 26 28 29 31 33 35 37 38 40 42 43 45 47 50 53 55 58 61 61 59 59 62 66
45 41 33 34 31 29 26 24 24 24 23 20 21 23 16 15 17 23 26 27 26 27 28 33 37 37 38 40 41 43 45 45 47 48 50 50 52 55 57 57 58 60 65 69
46 39 38 35 32 32 27 25 24 24 24 22 21 21 21 17 14 19 27 30 32 32 32 31 31 32 35 37 37 38 40 41 42 44 50 52 55 58 58 58 60 62 64 68
48 44 41 40 36 31 28 28 26 25 25 23 20 20 20 22 21 20 21 29 36 36 37 37 36 38 40 39 40 40 41 41 43 46 51 54 56 57 57 57 60 61 62 65
53 47 44 44 40 34 31 30 30 28 27 27 23 21 20 21 20 21 21 22 24 30 37 39 40 40 41 43 43 43 44 44 45 44 48 49 50 49 51 54 57 60 64 68
58 51 47 46 43 38 34 33 34 32 30 29 29 25 22 22 22 22 23 24 25 25 25 31 38 40 42 43 45 46 46 46 47 46 46 47 51 52 50 56 60 65 68 72
61 54 49 45 46 41 33 38 36 34 34 31 32 29 26 27 25 25 28 29 28 30 30 28 28 34 42 45 47 50 50 51 51 49 47 51 54 57 59 61 64 67 71 74
61 56 53 48 45 38 39 41 39 38 36 33 34 31 33 32 30 33 35 36 35 34 37 36 35 35 36 36 42 51 53 53 55 55 56 57 59 62 65 67 69 72 76 80
62 59 54 47 44 43 43 44 44 40 38 40 33 34 38 35 36 37 39 44 43 43 43 41 40 42 43 42 41 43 45 51 55 57 58 61 63 66 70 72 74 77 80 83
63 59 54 50 45 43 45 50 48 43 41 40 34 37 38 38 40 41 45 48 48 49 49 50 48 46 47 47 46 46 48 46 50 56 58 60 62 65 66 68 71 76 80 83
66 60 55 50 48 47 48 53 52 44 51 36 38 36 39 41 42 45 47 50 53 51 53 55 55 55 53 51 51 44 47 45 45 46 48 54 57 61 66 71 72 76 80 84
65 61 55 51 48 45 51 56 52 52 46 42 41 40 42 44 46 47 53 54 55 54 55 58 58 58 59 58 58 56 54 51 50 55 59 62 68 72 75 76 81 84 86 87
64 57 56 54 50 50 49 53 53 53 48 44 43 45 47 49 49 50 54 58 59 61 61 60 60 60 61 62 62 61 62 63 64 63 62 67 71 72 75 78 82 83 83 85
63 60 54 56 51 50 52 53 52 53 47 45 49 50 51 52 52 52 55 60 63 66 66 63 62 62 64 62 63 65 68 68 69 69 71 70 72 71 72 73 75 76 77 77
63 59 56 55 54 55 50 56 56 53 51 52 54 53 54 55 56 55 57 59 63 67 68 67 67 64 65 66 68 70 73 73 75 79 79 77 77 70 72 74 74 74 77 80
60 59 57 58 60 57 57 58 56 58 57 56 57 57 57 58 60 59 60 61 64 67 70 71 68 66 68 71 73 75 78 79 81 83 83 81 77 77 81 81 82 82 83 85

GFSCGP_250_spd_078.txt.gz
Wind_Speed
31 32 34 32 26 35 34 37 38 31 23 23 20 15 13 11 10 14 18 20 28 33 36 33 37 39 38 37 40 43 47 48 51 57 56 60 51 50 47 49 48 47 50 52
34 35 33 36 30 34 34 35 36 33 22 20 19 13 10 9 7 12 17 23 29 35 33 31 35 34 36 37 39 44 48 44 42 48 54 53 46 46 40 40 44 50 57 57
38 37 34 38 32 33 34 33 32 31 26 20 18 17 11 6 5 14 15 24 28 31 29 30 35 36 40 40 41 43 53 51 44 46 50 52 46 48 51 54 56 56 59 61
41 37 34 37 35 33 33 31 28 29 27 20 17 16 15 11 10 14 21 18 29 30 32 33 33 32 34 32 37 43 48 54 55 46 39 46 51 57 59 57 58 61 60 63
40 36 33 35 37 34 32 30 26 28 24 22 15 16 16 12 11 11 20 23 24 31 28 28 35 34 39 38 39 41 40 50 53 47 47 49 47 49 54 58 58 63 65 64
44 38 36 36 38 36 32 29 26 25 24 23 17 12 12 13 10 10 12 26 28 28 33 31 28 27 33 40 37 34 37 43 49 52 51 50 54 56 56 58 60 62 64 65
47 48 40 38 39 38 32 29 26 23 22 22 22 16 12 15 11 13 12 13 30 30 31 31 35 39 38 34 38 35 34 32 41 48 51 54 52 55 55 54 55 58 59 61
47 48 43 41 39 36 33 30 26 23 23 21 22 19 15 14 16 14 15 16 16 28 32 33 35 36 40 46 43 40 41 42 42 42 45 47 49 50 51 54 58 59 61 66
47 46 46 39 37 34 34 31 26 22 20 18 19 22 18 19 18 19 17 18 19 22 22 27 40 35 34 39 44 44 44 43 48 48 51 50 52 55 56 59 65 65 63 64
51 51 47 41 35 37 35 31 28 23 20 18 18 17 19 17 18 19 20 20 20 23 25 25 25 27 28 34 34 36 37 40 42 44 49 52 55 59 57 60 63 65 66 68
55 52 48 44 35 40 36 32 30 26 20 19 19 15 19 18 16 20 21 20 23 24 26 27 28 29 31 31 37 40 42 43 44 46 49 53 53 54 58 60 62 63 67 68
52 54 50 44 43 41 33 34 31 29 22 20 19 16 17 16 17 20 20 19 26 28 30 32 32 34 37 37 40 43 44 43 44 47 51 54 51 52 58 59 61 63 62 65
56 57 54 48 41 36 39 37 33 30 26 22 21 20 19 17 16 18 19 20 21 22 28 34 37 36 34 34 33 34 34 36 34 36 41 46 41 51 55 59 60 61 63 65
60 60 53 45 42 45 38 34 33 30 29 24 24 24 23 23 19 18 18 20 20 21 22 23 28 35 40 41 41 39 37 36 39 37 42 41 43 50 53 61 61 62 60 60
63 57 57 50 46 42 41 39 36 33 33 28 25 27 27 25 25 21 20 20 21 22 23 25 24 25 29 33 38 42 42 43 40 44 40 43 48 54 56 57 56 54 52 52
58 63 59 52 49 46 44 40 38 36 34 33 29 30 30 30 28 26 24 22 24 24 24 26 26 25 27 29 30 31 34 38 42 41 46 51 56 58 61 61 60 60 61 62
59 56 59 55 52 49 41 38 41 40 38 36 34 33 33 35 32 31 27 24 26 30 32 30 31 31 28 33 33 34 35 35 39 40 44 51 55 58 58 60 62 63 66 69
61 60 64 64 61 48 45 44 44 42 40 38 37 37 39 38 35 35 32 30 32 36 35 38 39 41 46 39 38 37 38 40 42 45 46 47 48 50 54 57 61 64 67 69
67 57 57 64 63 57 50 48 47 47 43 42 42 42 42 42 41 39 34 36 35 38 43 43 43 44 47 49 50 49 49 48 46 44 44 44 46 47 49 51 56 60 64 68
72 64 60 68 65 57 52 52 50 49 40 49 45 43 47 47 44 42 38 39 38 40 45 48 48 50 54 55 55 53 53 54 53 53 50 49 48 50 52 54 56 62 67 72
79 73 71 71 66 60 55 56 54 46 48 51 47 47 50 47 44 43 42 43 44 45 46 50 52 54 58 59 61 61 58 58 57 57 56 56 58 61 62 63 68 72 70 72
82 79 74 74 70 60 59 59 56 54 55 51 49 50 49 47 48 45 45 46 47 49 51 52 53 58 60 63 65 66 67 65 62 61 62 63 64 66 70 72 72 74 74 79
87 78 72 71 68 65 64 60 59 58 55 56 53 52 49 52 49 48 50 50 52 52 55 56 56 59 63 64 65 68 70 70 66 65 66 67 70 74 76 77 77 77 80 81
86 84 78 72 68 64 62 62 61 59 59 57 54 53 51 51 49 51 55 55 54 57 59 59 59 61 63 64 66 68 68 68 68 68 69 71 74 78 80 81 81 83 85 87
78 80 77 72 70 67 65 65 61 58 55 56 56 55 54 52 53 56 58 60 58 61 62 63 63 64 65 67 67 69 71 71 72 73 74 78 80 82 85 84 85 88 90 96
77 75 72 69 70 68 66 65 62 59 58 57 56 57 57 56 58 61 62 62 65 65 65 67 67 67 67 70 71 72 74 74 75 76 78 82 84 86 88 90 92 94 97 100

GFSCGP_250_spd_081.txt.gz
Wind_Speed
36 32 35 32 29 25 29 26 34 38 38 38 26 10 11 16 30 35 19 22 28 32 53 63 61 58 63 65 65 61 61 65 71 67 65 70 64 65 62 61 64 63 62 64
39 38 33 31 30 30 30 26 32 36 34 37 29 21 11 8 15 24 23 22 25 34 41 56 57 61 65 66 65 67 67 62 69 72 70 70 65 65 62 62 64 67 66 64
46 44 38 32 31 31 31 27 31 36 34 37 33 23 13 10 10 14 19 21 24 30 39 45 52 47 46 58 68 73 68 66 67 65 66 62 60 60 64 63 65 66 69 69
53 49 39 34 31 29 30 29 29 35 33 33 29 25 15 13 11 10 17 20 25 25 32 40 42 41 41 44 47 51 56 59 56 59 60 61 59 58 56 59 61 65 63 58
61 49 43 31 31 29 30 33 30 34 31 30 28 25 19 13 8 10 9 18 21 26 30 37 33 35 37 43 44 46 47 47 48 53 56 56 50 41 41 47 50 54 56 58
56 49 39 35 34 30 32 34 33 33 30 26 26 21 21 14 8 9 9 8 22 23 26 28 40 37 35 34 34 35 37 41 48 51 52 57 63 60 58 58 53 54 55 58
57 47 42 36 36 29 30 34 36 32 30 25 23 17 17 18 11 10 10 12 10 27 27 27 28 37 36 36 37 40 40 43 42 42 44 46 49 54 61 59 60 63 64 66
60 52 49 46 38 33 31 33 40 33 29 26 26 19 16 18 18 13 12 13 11 12 31 31 34 31 33 36 33 34 35 38 43 41 40 41 42 47 53 58 58 60 65 66
66 53 56 48 43 37 35 34 36 33 30 25 24 22 18 18 18 17 13 12 15 14 16 19 33 35 32 37 36 40 42 43 43 47 47 50 52 52 53 55 56 59 64 67
70 62 56 53 47 37 36 38 33 34 31 25 24 20 19 20 20 18 13 15 18 16 15 18 21 23 26 31 36 35 38 40 43 47 53 52 50 50 51 55 58 60 64 66
71 57 57 60 45 38 42 38 34 35 32 25 22 18 18 18 15 17 17 16 17 20 21 16 20 25 25 26 29 32 33 36 38 40 44 49 49 46 46 54 54 59 62 66
65 65 66 58 53 43 43 43 36 35 33 26 24 20 18 19 17 20 19 16 17 20 17 17 20 20 28 31 33 37 37 40 42 43 43 49 45 43 40 49 53 56 58 65
69 63 69 61 52 44 42 45 38 36 33 33 28 23 17 17 18 20 20 19 16 17 17 20 17 16 18 29 34 37 35 37 40 40 41 46 48 44 33 39 50 54 62 68
69 62 68 57 52 49 45 49 40 38 35 35 31 29 21 19 20 21 21 22 17 14 15 15 18 20 22 17 20 25 33 36 39 45 47 47 44 40 40 48 56 65 67 69
62 62 70 61 57 49 50 51 45 38 38 32 36 30 28 23 22 23 25 25 22 20 18 15 14 18 20 21 19 22 25 26 29 32 34 35 38 36 50 56 66 68 72 71
65 65 76 66 58 49 52 49 47 41 38 35 39 34 31 28 25 26 28 26 28 25 19 21 19 16 25 26 20 19 23 22 25 32 36 39 41 47 53 64 71 70 66 68
69 75 75 66 60 55 50 44 44 44 41 39 37 39 33 31 28 30 33 34 30 26 29 30 27 28 27 31 29 30 32 32 33 30 33 39 43 44 47 49 50 50 46 49
70 79 72 64 65 58 46 46 48 47 43 41 38 39 35 34 34 34 35 39 35 32 32 30 31 34 34 33 36 36 38 39 41 43 47 48 48 49 49 47 48 48 50 52
76 82 70 66 62 57 47 44 49 48 46 46 42 39 38 39 40 40 41 42 42 38 36 34 35 38 40 40 41 44 46 49 51 52 53 53 54 56 55 55 54 53 54 56
84 83 71 63 65 54 54 51 58 54 49 49 47 43 40 39 41 43 47 44 46 43 39 39 40 41 43 44 46 48 51 54 55 57 58 60 61 60 60 59 59 60 61 64
87 82 72 63 65 63 62 53 54 55 54 57 51 46 44 42 43 46 49 47 49 47 45 43 45 48 49 49 51 53 56 59 61 61 62 62 63 64 63 63 65 67 68 71
91 85 76 66 61 61 60 57 56 58 60 61 53 49 46 45 47 49 50 51 53 53 51 47 50 54 52 54 56 58 61 62 63 63 63 65 67 67 68 69 69 71 72 76
89 84 78 67 62 64 60 63 62 64 65 62 56 52 53 52 52 53 54 54 56 56 51 51 54 57 58 59 62 64 66 66 65 65 66 69 70 71 72 73 74 75 77 78
90 88 83 74 64 65 63 62 62 66 64 61 57 56 54 55 56 58 57 56 56 58 56 58 59 59 61 64 67 69 70 69 70 70 72 74 75 76 75 77 79 78 78 81
87 87 87 83 76 69 64 62 65 64 66 63 61 61 59 57 58 58 59 58 58 60 62 62 63 64 67 69 72 72 73 73 76 75 77 80 80 80 82 82 80 81 84 88
85 80 82 85 80 77 72 65 64 67 66 65 64 62 60 59 60 58 57 59 60 62 63 66 67 70 72 74 76 77 77 77 79 82 83 85 86 88 85 85 85 88 91 92

GFSCGP_250_spd_087.txt.gz
Wind_Speed
55 48 50 53 45 43 44 46 41 41 33 30 27 31 39 34 38 29 20 28 39 42 54 67 76 66 69 63 58 59 63 58 62 61 60 57 54 54 53 51 56 58 64 67
56 49 57 52 48 47 47 45 47 43 29 30 27 28 36 34 38 34 28 21 32 44 55 65 74 78 75 68 64 57 68 64 61 67 71 67 68 64 63 59 63 66 69 71
61 56 57 55 51 50 47 47 56 57 49 36 29 27 29 34 37 36 29 25 21 35 45 54 63 74 73 72 78 66 71 67 65 66 70 72 74 74 74 73 70 70 71 66
62 61 63 60 55 50 49 55 56 55 61 37 32 28 27 31 31 35 31 24 19 27 41 44 46 64 65 64 66 76 72 71 75 73 72 77 77 75 77 76 75 74 71 70
65 67 64 61 57 55 57 62 63 60 59 55 38 28 24 30 27 32 32 25 20 19 32 41 42 55 59 61 63 59 72 76 72 80 75 76 71 72 72 73 71 71 69 71
71 70 68 62 63 64 62 66 62 55 57 55 45 29 26 28 28 29 32 21 21 16 18 26 30 35 42 53 58 58 66 69 73 70 69 67 70 69 69 75 74 70 72 65
73 68 69 71 74 75 65 60 64 58 52 46 32 29 26 23 27 29 30 26 14 13 14 19 23 30 36 39 39 44 52 64 66 68 65 71 65 69 66 65 67 63 57 56
80 77 73 71 70 69 74 74 67 57 47 40 33 27 26 20 23 26 26 26 16 6 11 14 16 24 28 31 32 37 39 42 51 58 56 56 59 59 60 59 53 52 52 54
90 85 82 81 77 78 70 75 66 63 50 39 36 33 24 20 20 23 22 20 16 11 11 13 13 13 21 30 32 33 36 39 41 44 49 47 49 53 57 55 54 55 53 52
90 90 87 85 82 77 74 72 69 64 56 39 40 37 23 19 18 23 22 16 13 11 9 10 12 14 16 18 29 34 35 38 43 47 48 48 50 50 51 52 53 52 52 54
91 90 86 86 83 78 77 76 69 65 57 38 43 37 30 22 18 20 21 16 14 14 14 8 6 12 19 21 20 22 26 31 36 40 43 43 43 44 45 48 50 51 50 48
98 90 86 86 84 80 78 76 72 61 54 47 43 42 33 28 20 21 20 15 12 13 14 13 8 5 9 14 19 21 25 27 30 31 32 31 34 37 38 40 42 42 42 35
98 95 88 86 87 82 82 70 69 64 52 43 43 47 38 30 24 23 23 20 13 11 11 15 16 11 7 5 6 9 13 19 24 28 31 31 32 35 40 40 41 39 34 16
96 91 83 86 89 87 80 76 74 72 59 50 41 54 45 38 30 25 27 27 21 14 11 12 17 17 16 11 10 10 13 16 19 21 25 26 29 30 29 27 23 16 21 30
78 69 73 72 77 80 81 77 75 70 61 54 47 57 53 46 33 26 28 29 28 20 17 14 13 18 21 19 17 17 17 15 17 18 20 22 24 23 26 29 29 27 29 38
67 61 66 65 66 67 71 68 65 63 57 52 51 56 57 49 37 29 28 31 32 29 25 21 14 19 20 22 22 21 23 23 22 22 23 21 23 19 25 26 24 24 28 40
58 59 60 60 66 67 66 48 55 58 56 51 55 59 58 51 42 30 27 27 34 32 30 28 24 22 24 24 24 24 25 26 27 28 30 28 27 29 35 35 36 38 41 42
62 62 58 60 69 69 45 53 53 55 55 53 60 64 61 56 48 36 33 28 31 30 33 32 33 31 29 28 27 28 30 32 34 35 33 35 37 40 41 43 45 48 50 54
65 63 52 60 65 57 53 50 53 54 51 56 62 63 60 57 53 42 37 40 37 35 37 37 38 36 35 33 33 36 37 37 39 39 40 41 46 46 48 50 52 54 55 58
64 67 58 61 63 59 58 57 64 60 56 57 64 67 63 56 55 42 40 43 42 43 44 44 42 41 40 37 39 39 40 42 44 45 47 49 50 51 53 56 57 59 61 64
68 64 61 63 63 57 64 65 63 58 56 60 67 68 62 55 53 47 36 39 43 43 44 44 46 44 42 43 45 47 47 48 48 50 52 54 54 55 57 59 60 64 67 68
63 66 66 63 60 57 66 68 65 58 65 63 66 68 65 60 54 51 46 43 45 44 45 41 45 46 47 47 50 52 53 52 53 54 56 58 59 60 61 62 64 68 70 71
63 67 71 64 61 59 64 66 66 60 62 66 70 69 67 63 57 57 50 44 48 49 49 51 51 49 49 52 55 56 55 57 58 58 60 61 62 64 64 66 69 72 75 78
66 70 68 55 59 59 64 68 67 64 64 70 72 72 70 65 62 59 53 47 50 54 53 53 54 54 55 55 55 55 57 60 62 64 64 65 67 68 70 72 76 77 82 81
67 67 60 57 53 64 65 68 67 65 67 71 69 69 70 68 62 60 55 53 54 52 53 56 57 58 57 57 57 59 62 62 64 66 67 69 71 73 76 78 79 85 86 85
64 63 41 50 58 63 66 70 68 65 69 71 71 73 72 68 63 62 59 56 55 58 59 60 61 59 59 60 61 63 67 69 69 70 73 75 76 80 82 83 89 89 89 90

GFSCGP_250_spd_090.txt.gz
Wind_Speed
58 54 48 61 53 50 48 46 41 42 30 34 20 39 45 35 34 39 38 34 27 20 33 56 59 58 52 57 51 48 42 38 43 40 48 48 55 56 55 53 43 39 46 49
62 50 59 63 55 51 53 50 45 43 39 36 44 49 44 36 35 37 39 32 31 21 21 49 65 64 61 62 59 57 54 45 54 44 41 57 57 58 57 54 56 57 58 55
62 57 61 59 55 55 56 54 50 44 43 40 44 51 49 45 35 37 39 33 35 27 22 30 55 70 70 68 63 64 61 54 54 58 52 47 55 62 61 62 56 60 63 67
62 57 57 58 56 63 60 59 49 47 40 41 45 49 49 45 31 36 36 33 33 32 22 22 30 61 76 74 69 63 65 62 53 55 64 62 60 60 64 63 67 69 70 74
63 62 62 59 64 61 62 57 52 51 47 45 50 47 48 36 27 30 33 32 31 33 24 17 21 32 49 67 74 67 63 67 65 68 59 72 71 69 67 69 72 76 74 68
69 72 69 66 67 59 64 61 57 57 53 49 50 47 54 32 26 28 30 29 28 31 24 16 13 25 35 45 56 68 67 62 64 65 63 68 72 74 72 73 73 73 73 71
72 70 68 61 63 65 65 61 59 57 53 50 55 49 52 31 31 29 27 26 24 29 17 15 14 13 24 34 45 55 58 64 70 65 67 64 70 70 74 72 70 66 58 60
75 67 64 64 68 68 68 67 59 54 54 56 56 40 43 29 33 30 26 24 20 23 17 17 14 14 18 26 34 37 39 53 53 53 55 55 54 61 67 66 56 56 61 63
69 67 63 68 70 70 68 59 59 63 63 59 48 40 43 34 31 33 27 23 16 19 17 11 15 17 16 20 27 33 36 40 40 48 45 44 45 47 45 52 54 52 60 60
74 72 74 73 74 75 72 68 67 67 65 59 49 43 39 40 33 32 29 24 15 15 14 14 11 15 18 20 21 26 31 36 41 46 49 45 45 45 47 51 52 51 52 58
81 77 82 81 79 76 75 74 74 71 65 60 57 42 44 40 36 33 31 27 21 13 13 10 9 10 14 19 19 19 19 23 32 36 38 38 38 40 42 44 44 44 44 43
86 81 75 78 85 86 85 80 82 78 69 64 57 43 46 40 35 37 34 30 24 17 13 11 10 9 11 16 16 15 22 24 24 24 28 30 30 31 34 36 37 39 41 44
96 94 89 87 86 87 88 82 80 79 72 62 57 42 46 43 35 39 37 35 30 24 16 11 11 14 13 11 11 10 9 9 11 14 19 22 24 26 31 34 36 37 36 36
88 87 93 94 88 91 88 85 84 77 67 61 61 49 46 46 37 45 42 35 35 29 23 19 14 13 15 15 14 12 13 16 15 12 14 14 16 18 19 20 20 20 25 28
88 87 87 89 91 93 90 85 84 83 75 73 62 54 51 53 45 47 47 39 35 34 30 26 21 17 17 14 16 17 18 18 17 16 19 20 22 25 24 21 18 20 23 22
76 76 78 84 90 89 91 89 88 81 76 68 63 60 59 57 49 45 48 41 36 37 36 32 28 25 23 21 17 17 18 17 18 20 21 23 24 26 29 31 30 31 35 34
63 66 70 64 76 86 94 84 84 83 80 73 65 66 62 59 50 49 52 48 40 35 39 38 36 32 30 27 25 25 24 24 23 23 23 25 27 29 29 32 34 40 40 43
57 61 62 61 71 76 67 72 72 70 70 67 62 61 58 59 51 52 55 52 45 37 40 42 39 37 34 34 32 32 33 31 29 29 30 32 34 35 36 36 39 43 46 48
56 59 56 60 68 65 59 64 65 63 59 60 58 58 55 61 53 57 59 57 54 43 37 41 37 36 37 37 36 37 37 37 37 35 33 36 38 40 42 44 46 48 51 53
56 60 56 61 62 54 55 57 58 57 51 55 58 59 60 61 60 60 64 60 60 54 41 42 42 39 40 42 43 44 43 44 42 39 39 42 44 46 46 48 50 53 54 55
51 54 55 56 56 51 56 54 56 54 57 59 57 59 59 61 60 66 69 64 60 60 54 43 44 46 47 47 48 49 46 46 44 43 45 47 49 50 51 53 55 58 60 61
53 55 57 57 57 51 57 58 59 59 62 61 59 62 64 67 67 69 70 66 62 65 65 55 44 49 49 48 48 51 50 46 45 46 49 50 51 53 55 57 60 63 65 67
54 54 58 60 61 56 57 59 59 60 63 61 61 61 66 67 63 67 70 68 66 64 66 65 54 49 54 58 56 54 46 50 49 49 51 52 53 55 58 62 65 68 70 74
56 60 61 65 64 59 59 59 55 53 61 60 62 64 65 64 61 70 76 75 70 66 65 67 66 59 60 59 56 50 50 53 52 54 55 58 58 61 65 70 72 74 76 79
55 61 62 63 65 58 51 55 54 53 62 63 63 62 66 68 66 74 76 73 72 68 66 66 67 69 67 62 55 53 55 56 59 60 62 63 65 68 74 76 81 83 83 85
58 57 59 63 61 53 46 51 52 56 63 67 64 63 65 70 69 73 76 75 71 69 67 68 69 68 67 63 59 58 60 64 66 67 68 70 72 76 81 83 89 89 88 89

GFSCGP_250_spd_093.txt.gz
Wind_Speed
63 56 46 60 63 59 51 43 43 45 39 41 40 43 33 33 40 35 34 36 32 37 25 19 44 42 40 37 44 44 31 30 26 26 32 37 39 42 45 47 46 54 56 51
57 53 53 65 60 59 53 45 50 50 39 37 41 43 34 35 41 47 33 33 30 34 31 16 29 50 44 45 38 49 36 37 29 32 29 30 36 43 46 51 50 53 53 53
71 60 65 65 65 61 54 51 54 50 39 36 41 42 40 37 41 45 37 26 28 30 33 21 16 39 49 47 42 50 46 39 42 35 35 36 37 43 43 49 48 55 55 55
71 64 62 64 62 62 57 61 54 46 40 39 42 40 45 40 40 42 40 23 25 27 34 27 17 17 40 40 47 47 53 48 46 44 41 43 47 46 49 54 55 54 52 52
68 69 61 62 58 59 55 55 48 44 40 41 46 41 46 38 39 38 35 26 24 25 33 28 19 14 25 40 44 53 54 58 55 51 52 47 56 55 49 54 55 60 65 68
75 73 67 60 59 59 59 56 51 42 41 41 46 32 47 38 38 36 34 26 23 22 30 28 18 17 15 32 37 35 46 49 53 50 59 61 53 55 64 65 61 65 65 67
77 74 67 66 67 65 60 58 58 50 47 46 48 31 45 41 33 37 33 27 24 20 26 26 23 17 13 17 23 34 42 46 50 56 56 61 59 58 57 65 72 73 76 77
74 75 74 73 70 69 65 60 59 59 51 49 43 39 44 42 35 37 34 28 24 21 21 23 21 17 13 11 17 22 31 34 34 35 45 58 52 55 55 55 63 64 62 67
81 72 73 71 75 72 67 60 61 60 52 45 42 43 41 44 37 33 37 29 26 21 18 21 20 18 14 13 13 19 23 26 27 28 31 42 43 47 50 55 50 52 54 56
77 67 67 73 72 67 68 64 65 60 51 50 47 46 41 45 37 38 35 30 28 23 18 19 18 17 16 12 13 13 18 26 28 28 28 31 33 37 40 42 44 46 46 47
78 75 64 63 62 63 63 62 61 58 55 51 49 44 45 46 43 39 31 30 30 28 21 19 17 14 11 11 9 13 15 17 23 27 30 32 32 34 39 40 43 45 46 48
82 78 78 73 70 69 69 67 60 56 52 55 56 49 49 50 45 36 32 29 32 31 26 21 19 16 15 11 5 8 12 16 19 20 23 24 28 32 34 33 35 39 41 42
88 87 82 81 79 75 76 75 64 64 66 56 58 54 55 49 46 42 37 35 35 32 32 25 21 18 13 11 8 7 5 4 6 8 14 16 19 22 25 29 32 34 35 37
85 83 88 85 85 81 76 79 78 72 69 67 62 64 64 56 56 51 45 40 39 36 34 32 26 21 18 13 10 10 10 9 10 10 10 11 10 11 13 14 16 18 18 19
80 80 84 85 88 89 85 79 79 75 69 69 69 69 66 63 60 54 48 43 39 38 38 34 34 27 25 18 14 12 13 13 13 14 15 17 18 18 19 19 21 22 23 25
78 76 78 83 88 89 91 89 88 84 80 75 71 68 67 62 60 57 54 46 39 40 39 38 39 38 30 27 24 17 15 16 17 17 16 16 18 19 20 21 24 26 30 33
78 82 83 84 87 90 87 89 90 90 91 86 83 72 68 63 61 59 58 48 42 41 45 43 42 41 36 35 32 27 22 22 24 25 24 22 22 23 23 24 27 28 30 33
73 78 76 77 84 83 75 86 88 84 79 82 80 80 78 73 68 67 61 51 49 48 51 51 45 44 41 39 36 36 31 30 32 30 31 32 31 30 29 30 32 33 36 39
65 66 70 71 75 71 77 82 84 87 84 83 80 76 74 73 70 70 66 58 57 54 56 56 51 46 45 42 41 39 41 39 38 37 35 35 36 37 35 34 36 39 43 44
58 53 51 56 63 67 73 71 77 79 80 74 72 71 76 80 73 74 75 67 60 56 60 60 56 51 48 44 45 41 41 44 43 43 43 43 45 43 41 39 41 44 47 49
50 49 48 51 53 58 65 68 71 68 67 66 63 62 64 66 66 72 69 65 63 60 59 63 62 54 55 43 48 48 45 47 47 49 50 50 50 49 47 45 46 49 51 52
41 44 48 52 54 56 59 58 57 55 62 64 61 56 58 59 61 64 65 67 65 62 60 64 67 60 58 55 48 48 49 50 52 52 56 55 50 51 51 51 51 53 56 58
40 44 48 50 56 59 61 58 55 55 59 57 56 52 55 58 59 61 62 66 65 63 64 63 67 68 62 63 68 70 62 59 60 62 61 56 55 57 57 57 57 60 63 65
38 42 45 48 54 57 59 58 59 58 56 52 53 50 53 57 58 62 65 70 64 64 66 68 71 74 70 63 69 71 71 69 66 66 63 59 59 62 62 64 64 67 71 73
38 41 42 48 53 56 55 54 56 56 54 51 50 50 54 58 59 63 65 66 64 68 69 74 76 76 73 69 66 70 72 73 74 74 66 66 68 68 68 68 69 74 77 81
37 41 44 51 52 54 49 45 46 50 46 46 51 50 53 56 59 61 64 67 65 68 72 71 71 73 73 70 67 71 72 72 71 73 73 74 73 73 74 74 78 81 86 89

GFSCGP_250_spd_096.txt.gz
Wind_Speed
65 65 53 48 63 69 58 57 53 53 50 44 37 40 36 30 37 37 34 37 39 19 25 25 24 20 39 34 39 35 32 35 31 27 26 32 39 42 42 42 42 41 39 42
59 61 60 59 58 63 65 57 50 55 50 46 40 39 41 30 34 33 34 37 36 19 23 25 24 20 25 43 31 43 35 33 37 31 30 29 35 40 39 41 44 49 52 49
67 57 63 63 61 56 61 55 55 55 51 49 40 37 42 31 34 34 31 33 33 19 23 26 24 21 16 39 43 43 44 35 36 33 38 38 39 43 44 48 46 49 51 50
67 65 64 66 65 61 53 66 61 55 55 52 39 36 43 35 35 34 30 31 31 23 21 27 24 22 14 25 48 46 50 45 36 36 38 40 39 42 42 48 49 52 56 57
61 66 68 62 67 69 55 59 64 60 58 58 42 39 47 38 33 33 29 29 28 24 20 27 24 21 15 13 37 51 45 55 50 43 40 39 38 44 46 46 44 47 47 53
69 69 72 66 66 70 69 65 64 67 64 51 44 41 44 42 29 33 32 30 26 26 20 24 25 22 15 14 24 45 49 48 57 51 52 49 42 45 45 46 50 54 55 55
71 56 63 71 69 73 67 67 65 65 54 44 43 45 44 44 33 36 35 30 25 25 20 22 24 22 15 17 12 29 43 45 54 60 52 51 56 51 58 53 54 58 55 61
72 66 58 59 67 72 68 72 65 60 56 51 47 47 45 45 38 37 36 30 28 21 20 21 23 22 16 14 15 16 31 40 42 47 49 53 52 56 62 60 59 60 65 69
77 76 71 72 70 65 67 69 69 68 64 55 49 50 49 49 42 39 38 33 29 19 19 20 19 22 19 14 14 13 18 29 36 39 41 44 46 48 53 60 67 68 64 61
80 79 79 76 79 71 64 64 63 63 60 57 57 57 52 45 45 42 40 37 31 18 18 22 19 20 19 16 12 16 16 21 30 32 32 36 40 41 44 47 48 48 50 51
83 81 80 78 70 83 79 76 71 70 65 64 58 53 54 42 48 44 43 42 36 23 19 25 23 18 18 15 11 14 17 19 21 27 30 31 33 37 40 40 42 42 46 48
84 82 83 82 75 76 75 74 76 74 72 68 62 55 54 52 51 45 43 45 40 28 27 24 30 21 19 18 15 11 15 18 22 23 28 32 38 39 40 42 42 44 46 46
86 86 83 83 88 83 79 75 74 66 67 59 60 56 53 48 49 51 50 49 46 34 32 29 31 30 22 19 16 15 14 16 18 23 22 22 24 26 29 30 34 38 38 38
85 84 86 87 83 77 74 71 70 64 61 59 55 52 53 48 50 54 54 56 55 47 41 38 31 35 30 25 20 14 17 15 15 15 14 13 16 19 22 22 23 22 23 26
83 83 85 84 86 84 80 78 70 59 54 52 55 50 54 53 55 61 64 59 57 51 49 43 33 37 37 31 28 21 18 18 19 19 17 18 19 20 21 22 23 22 20 20
81 83 83 84 87 91 88 84 80 75 68 62 61 57 57 58 61 64 64 59 58 57 52 43 33 40 40 37 32 30 27 23 22 19 18 17 17 17 18 18 18 19 19 21
75 82 87 86 88 90 87 86 85 83 82 77 70 67 71 70 67 68 73 71 69 64 54 46 39 43 40 41 38 36 36 33 30 27 24 24 24 24 25 25 25 26 28 28
75 78 82 85 88 85 86 89 92 91 89 85 77 73 71 70 70 67 75 73 67 63 57 55 47 44 45 45 45 41 41 41 40 37 33 31 33 34 32 33 34 34 36 36
72 74 73 78 81 83 85 87 88 90 88 87 82 80 80 76 73 66 74 74 71 67 64 64 61 54 50 49 50 47 46 44 41 42 41 38 38 40 42 40 41 40 42 44
62 66 70 71 71 71 82 82 85 84 84 84 83 81 84 84 81 79 85 80 75 63 60 63 64 57 53 52 54 51 49 50 44 42 43 44 46 48 49 48 49 50 50 51
53 55 60 65 66 66 72 77 78 80 80 80 79 78 78 79 78 77 76 77 74 71 70 66 61 58 56 54 58 56 54 51 50 49 49 49 50 52 54 54 56 57 56 56
49 52 52 50 56 66 69 69 71 75 74 81 81 77 75 73 73 75 78 78 76 76 73 68 66 67 62 57 61 63 59 57 57 55 56 56 55 54 56 59 61 64 61 61
46 48 46 49 54 52 55 61 67 70 68 70 72 76 72 68 67 68 70 71 71 71 70 69 67 66 62 60 64 65 66 64 60 61 63 60 61 64 65 66 67 69 66 66
42 44 45 46 48 51 56 59 62 60 59 58 63 68 67 62 62 62 62 62 62 59 60 60 60 61 61 61 66 68 70 73 67 68 67 64 67 68 71 73 73 72 74 75
41 41 42 43 46 50 55 56 57 56 50 54 58 62 56 55 58 58 58 61 56 53 47 56 57 58 59 63 69 70 74 73 74 74 72 71 71 73 76 76 77 78 79 79
39 38 41 42 46 48 51 50 51 50 51 54 53 48 43 47 48 51 57 53 51 52 52 59 62 59 64 67 72 74 75 72 76 79 79 76 71 75 77 79 81 82 83 84

GFSCGP_250_spd_099.txt.gz
Wind_Speed
70 59 54 57 56 53 56 55 58 57 53 34 50 47 45 38 35 36 31 27 27 30 27 24 19 21 22 33 36 38 32 30 38 41 39 41 34 31 38 45 47 48 48 42
64 55 58 59 58 59 55 50 50 63 54 42 52 43 45 40 36 37 35 26 27 26 28 23 21 22 24 20 35 41 39 33 37 40 35 36 41 29 33 41 47 47 46 44
63 57 60 61 58 59 63 47 47 56 64 46 46 41 46 43 37 32 33 28 26 24 29 24 21 22 24 14 39 45 46 40 36 38 32 40 29 31 29 43 48 42 45 43
58 61 61 61 61 61 65 59 54 56 60 47 53 43 44 44 40 35 34 30 24 24 28 26 21 21 22 17 30 44 40 44 38 40 30 32 33 32 35 40 47 42 40 41
59 62 63 59 61 62 68 66 53 52 60 52 44 42 45 46 46 39 39 33 25 24 27 29 22 18 21 18 16 36 32 45 42 41 45 40 42 42 37 40 46 47 48 48
62 63 65 60 66 66 62 71 62 55 55 55 49 49 47 50 48 43 40 33 27 26 25 29 22 19 20 19 12 32 36 45 48 43 46 46 47 49 42 47 49 52 51 53
63 64 68 66 73 68 69 70 65 69 62 50 51 53 54 49 49 44 40 33 30 28 24 29 21 20 19 20 11 17 37 42 49 49 47 47 49 50 51 53 53 55 57 60
64 66 71 71 72 73 72 72 70 65 66 64 58 56 57 55 54 48 42 33 31 30 28 28 23 20 19 18 15 9 27 45 49 62 52 52 51 51 53 57 56 58 58 58
64 69 72 75 70 73 66 72 65 63 61 66 60 57 57 50 50 47 45 36 34 33 30 28 25 22 19 19 15 11 14 36 50 55 64 61 57 56 57 57 59 57 57 58
65 69 78 78 72 74 68 72 75 67 65 61 62 60 56 58 51 49 48 46 39 37 35 30 26 22 22 20 19 13 13 19 39 50 57 68 63 64 63 64 63 61 62 62
66 72 77 78 75 77 65 58 71 72 71 69 64 58 60 63 53 51 50 48 42 41 40 32 28 22 24 21 21 18 15 16 20 36 52 58 65 67 63 62 64 63 65 63
69 71 75 78 80 76 70 64 59 63 68 66 66 64 61 62 61 56 53 53 43 41 43 39 32 24 20 25 22 23 19 16 18 23 32 50 55 59 61 62 59 60 61 60
64 71 76 80 85 85 77 73 70 63 55 50 57 57 62 60 59 56 54 51 48 46 46 41 33 30 28 23 28 24 21 21 20 19 24 29 37 44 50 56 58 58 58 57
69 72 77 82 89 90 86 84 74 72 68 67 62 62 66 65 63 60 56 53 51 49 47 44 38 38 35 31 29 30 23 22 22 21 20 23 28 30 35 41 46 48 50 51
67 71 77 84 88 92 90 85 84 85 80 77 72 72 73 70 68 69 66 60 54 50 47 48 39 37 42 37 29 35 31 25 25 24 22 22 24 27 28 30 33 35 36 37
64 70 75 82 87 89 93 92 89 78 78 70 77 77 72 67 64 67 59 59 55 51 45 48 45 40 42 42 34 33 39 32 29 27 26 27 30 29 28 28 30 31 31 33
59 68 72 77 87 90 85 89 88 84 85 76 75 70 72 68 65 66 64 57 53 53 49 48 47 43 42 45 46 40 40 41 35 34 32 31 30 29 28 29 29 29 30 31
58 64 70 73 81 84 85 89 89 84 76 84 81 76 71 62 60 63 62 57 57 53 56 52 50 51 50 54 44 42 34 45 46 40 37 38 40 40 38 37 37 37 37 37
54 58 65 71 75 80 83 85 90 88 83 80 72 65 61 61 59 58 60 59 56 55 57 61 57 59 57 59 51 50 48 49 49 51 44 42 42 45 46 45 43 44 46 45
49 54 58 67 73 76 82 79 83 85 88 88 83 75 76 72 69 70 72 70 62 63 64 64 59 61 65 57 57 53 52 48 48 55 53 50 49 47 48 50 51 51 51 53
43 49 55 63 67 70 73 75 78 81 84 84 85 86 82 79 80 82 78 77 74 70 67 65 65 62 61 63 59 57 56 56 51 54 58 59 58 55 53 53 55 57 57 59
41 46 53 55 56 64 65 67 72 77 79 79 77 79 79 83 85 83 84 82 80 79 78 73 72 73 74 72 73 70 62 61 55 52 51 62 64 66 64 62 61 60 62 63
40 45 47 50 52 52 56 62 62 66 70 75 76 75 75 75 77 82 84 84 84 84 83 83 84 81 78 74 70 66 67 64 58 61 60 58 65 66 68 69 70 71 71 71
39 42 43 47 48 47 47 52 59 67 66 64 65 66 68 69 69 72 73 73 76 79 80 81 80 77 73 71 72 71 69 69 71 67 66 65 66 69 72 71 72 73 74 76
37 38 42 43 45 43 45 50 53 60 60 61 63 62 60 63 65 68 69 70 69 69 70 71 71 72 73 67 68 68 67 66 65 65 67 68 70 72 74 76 77 77 79 80
34 37 37 39 41 42 44 48 52 49 47 50 53 55 59 61 61 59 59 60 59 63 67 68 65 59 56 55 57 57 57 54 54 57 65 68 71 73 74 76 78 81 84 83

GFSCGP_250_spd_105.txt.gz
Wind_Speed
96 92 89 93 93 93 96 96 92 87 79 71 67 51 52 50 53 48 43 39 35 35 34 30 23 31 33 34 27 27 26 31 38 35 54 62 63 59 57 50 63 58 51 49
97 91 93 93 96 99 99 100 98 82 72 64 61 49 49 42 50 47 42 37 36 31 25 27 21 30 32 32 31 25 24 38 37 39 44 62 65 61 60 58 57 58 60 52
94 91 98 100 100 103 106 105 93 76 66 59 61 46 48 44 45 53 41 41 35 32 27 28 22 28 29 28 31 23 25 30 42 38 38 50 69 68 66 66 65 61 58 55
97 96 101 104 104 106 103 99 85 72 59 53 59 41 44 44 47 51 43 36 36 36 30 28 25 30 30 30 29 27 23 26 46 42 41 46 59 66 72 66 60 60 61 59
100 100 104 104 103 103 95 87 76 69 59 50 54 42 46 49 50 50 41 40 42 34 29 29 28 29 30 28 26 30 23 24 37 51 43 39 39 63 71 72 66 63 68 62
103 104 103 102 104 98 92 84 76 59 56 42 53 50 47 51 50 50 46 43 39 32 30 31 31 29 32 28 24 27 22 22 26 47 50 43 38 38 54 61 69 55 54 58
110 107 107 108 110 94 82 79 74 57 53 38 54 49 45 47 50 54 51 46 38 34 34 33 31 30 30 29 26 24 21 20 24 39 47 44 47 41 40 44 50 54 52 44
116 114 106 109 100 90 80 82 69 57 50 45 50 47 49 59 56 58 54 49 38 35 37 37 34 31 32 30 24 20 20 20 20 28 47 49 52 48 43 45 48 47 55 46
115 106 98 99 92 84 84 70 69 51 48 41 47 52 58 58 52 50 46 48 42 39 39 40 37 35 32 31 25 18 20 19 19 18 44 51 58 54 48 48 48 47 49 48
104 84 85 88 89 87 74 67 60 46 44 42 48 55 59 60 50 53 50 51 46 46 41 43 37 32 29 32 27 24 21 20 18 17 28 52 56 57 56 54 50 48 47 50
91 84 81 86 83 81 75 60 52 47 43 45 52 55 58 53 58 56 51 50 51 47 44 44 40 32 31 34 30 27 23 21 18 18 17 37 56 55 59 57 55 53 53 55
82 81 75 77 74 70 64 57 47 44 48 50 53 58 64 52 49 61 56 49 54 53 49 48 40 35 35 36 28 31 30 26 20 19 18 19 41 53 56 59 58 57 58 60
71 68 64 61 64 62 56 53 47 46 53 48 55 65 71 66 59 60 62 48 50 53 51 50 45 40 41 39 36 35 31 30 24 21 21 17 20 33 47 57 64 61 59 60
63 58 56 50 57 52 47 50 48 50 51 58 63 74 77 70 63 62 66 60 54 55 56 50 48 46 44 43 41 38 36 30 25 24 22 23 19 21 28 40 52 68 66 67
56 52 53 46 52 46 45 45 46 45 55 61 70 74 70 76 71 66 61 67 64 60 57 55 51 47 45 44 44 42 37 29 30 24 19 22 27 24 22 25 31 38 53 73
49 47 47 43 49 44 46 41 45 43 57 62 71 76 74 75 71 67 70 73 72 67 59 56 55 49 47 47 42 44 40 34 34 33 22 20 20 29 29 27 25 27 31 40
41 41 40 43 45 43 34 34 44 53 65 70 73 82 79 79 75 77 76 75 63 57 52 54 58 50 35 36 46 43 41 37 37 39 30 28 24 25 31 34 33 30 30 30
37 36 34 42 40 31 44 51 55 63 79 74 73 80 77 78 79 75 75 71 64 60 57 55 56 56 50 53 43 46 49 48 46 41 42 35 34 30 30 31 36 38 39 40
33 30 31 35 34 38 39 45 51 60 70 69 70 71 81 85 81 76 74 72 70 65 61 55 56 54 49 47 46 35 38 52 40 44 48 46 38 37 36 38 41 41 42 45
29 30 31 34 33 39 43 44 49 54 66 61 67 73 72 76 81 79 77 80 76 68 66 61 59 59 57 54 48 53 55 36 40 47 50 48 40 47 45 47 46 51 52 50
25 26 30 29 32 39 37 41 48 60 67 74 77 71 72 67 69 73 70 70 64 59 61 61 64 66 64 58 54 54 53 54 50 49 48 48 48 48 53 53 56 51 52 53
22 26 28 30 36 38 33 39 48 54 57 64 76 76 71 75 71 70 66 65 63 65 65 65 68 68 65 62 61 53 49 44 43 47 50 53 56 58 60 57 58 54 53 58
30 28 28 30 33 35 36 40 46 52 54 58 68 71 81 76 75 75 73 71 72 71 68 66 65 65 65 66 62 54 55 52 51 52 50 54 53 60 64 64 63 64 67 71
28 31 33 32 33 35 35 38 41 47 51 57 60 73 80 88 83 77 77 78 76 75 75 72 67 67 69 67 61 57 53 57 57 60 62 61 63 65 65 63 68 76 81 76
25 26 28 33 35 33 33 34 37 43 47 52 56 65 79 83 88 86 85 83 81 79 79 80 81 77 74 68 64 61 61 60 60 64 66 70 72 74 73 75 81 81 77 75
24 25 26 29 31 29 30 33 34 37 43 49 53 56 61 70 81 84 87 87 88 85 83 82 77 68 67 67 68 69 70 70 71 73 76 77 76 79 83 83 79 74 73 74

GFSCGP_250_spd_108.txt.gz
Wind_Speed
89 84 81 88 87 88 95 91 87 88 88 89 90 91 89 86 63 52 45 39 42 42 40 40 39 32 30 25 25 26 29 29 28 25 33 41 43 46 44 49 50 52 55 49
87 80 87 89 86 89 90 91 88 85 88 95 93 88 86 69 60 46 42 34 43 44 40 38 43 32 30 24 22 25 29 26 26 25 32 47 52 51 52 57 51 56 57 54
91 88 93 91 91 90 90 92 92 90 90 94 97 67 75 66 57 43 37 34 44 47 40 38 43 32 29 24 21 23 28 24 28 27 33 42 54 58 55 61 58 56 59 57
89 84 88 89 90 94 87 95 92 92 98 97 95 69 77 62 51 38 38 38 47 47 42 37 38 34 29 26 23 24 26 27 28 28 27 42 49 57 63 60 64 62 60 54
84 87 89 87 87 95 90 95 99 104 101 101 95 63 49 56 48 35 46 46 50 50 48 40 39 35 29 27 21 23 22 27 28 25 27 36 45 53 57 69 66 61 58 53
94 96 92 93 96 97 101 100 99 104 101 89 91 65 44 54 43 41 53 54 55 54 49 43 40 37 34 26 22 23 24 24 26 22 27 28 46 43 50 54 62 62 62 65
95 95 95 98 100 99 99 102 103 104 103 94 82 57 53 51 39 49 57 54 53 50 45 42 42 39 34 26 24 20 22 23 25 23 22 24 41 47 42 41 44 49 58 63
103 98 95 103 106 101 103 104 105 107 100 85 69 47 47 49 42 50 59 56 51 46 46 43 43 39 36 28 25 23 22 18 21 21 19 23 30 46 43 39 34 41 48 50
111 105 102 108 103 103 100 104 103 103 87 64 55 55 46 51 39 52 59 60 56 56 50 43 44 43 37 32 27 23 22 19 19 19 17 21 22 42 45 44 34 34 41 40
109 104 98 102 104 107 101 100 101 93 75 61 52 50 45 43 43 49 59 60 54 60 51 46 44 41 38 33 29 24 22 23 20 20 16 14 19 36 47 44 42 39 42 47
109 104 99 102 105 103 104 103 100 79 65 58 54 50 44 44 53 53 57 61 53 56 51 45 46 46 39 31 32 25 25 25 25 20 20 16 15 18 41 48 46 43 43 45
100 97 94 101 105 99 97 94 88 75 64 52 45 47 48 48 52 55 50 47 54 60 56 50 47 45 39 33 33 27 26 25 23 25 25 23 17 15 18 35 50 52 52 50
82 75 75 81 86 80 81 80 77 72 58 49 42 49 48 55 58 57 50 52 54 55 62 56 49 46 47 38 36 31 26 27 25 25 26 27 26 20 18 22 41 52 54 55
78 77 74 78 82 83 77 70 64 60 51 45 43 53 54 60 60 61 59 58 54 55 62 60 54 45 39 40 43 37 32 31 31 27 28 27 28 27 22 20 23 35 55 54
68 64 66 64 65 74 64 57 51 51 42 41 52 59 62 68 60 64 64 51 57 52 55 57 50 42 46 38 38 41 38 35 36 35 30 27 27 27 28 27 24 24 28 40
58 55 53 55 59 61 52 44 47 41 39 48 61 62 71 72 64 64 66 63 59 48 47 54 54 36 41 42 37 33 35 40 39 43 36 32 28 31 28 30 35 28 25 26
49 46 46 52 52 44 39 51 52 49 48 57 69 74 77 81 75 67 67 69 66 60 52 55 54 60 57 51 40 35 34 35 38 42 41 34 28 30 31 27 27 31 34 35
41 41 38 48 34 34 53 48 47 45 51 58 64 70 77 84 84 76 69 70 71 70 66 67 57 56 56 53 47 42 39 36 45 38 37 39 38 38 37 36 34 32 30 33
36 33 33 34 26 39 41 42 43 46 49 58 64 74 78 85 89 86 80 76 74 72 71 70 62 57 54 52 52 46 42 38 37 39 42 44 44 46 43 40 41 34 34 37
29 29 29 29 33 35 39 43 44 48 54 63 67 75 78 84 89 89 86 82 82 77 77 71 62 56 55 52 54 48 46 35 37 36 38 42 44 40 41 43 49 49 43 42
24 24 25 27 31 33 40 43 45 50 55 63 68 73 79 80 88 91 87 86 83 82 77 73 68 64 63 57 54 53 55 56 53 53 50 49 52 49 48 50 51 53 56 50
27 27 27 28 30 33 38 40 44 47 52 59 60 65 73 81 83 90 86 87 87 83 77 70 65 62 64 62 61 60 55 55 53 54 52 52 56 58 57 60 58 57 55 56
27 28 27 27 30 36 38 42 46 49 52 58 59 63 69 74 85 86 86 83 82 81 77 74 70 69 68 65 66 62 59 54 55 54 53 52 53 57 62 64 63 59 56 59
24 27 29 31 34 36 39 41 44 46 52 56 61 63 61 69 73 90 87 85 81 78 76 76 73 71 69 74 71 63 59 61 60 65 66 64 64 62 59 59 60 61 62 62
24 29 31 32 33 34 37 40 39 46 52 54 60 63 65 67 73 73 84 90 90 86 83 80 74 68 61 60 61 62 62 62 62 62 61 63 65 65 68 66 67 64 66 70
21 21 22 22 20 25 25 31 39 46 50 54 58 62 69 71 73 74 72 73 72 70 69 67 63 64 62 65 67 67 67 67 66 69 68 70 73 71 71 74 71 70 70 70

GFSCGP_250_spd_111.txt.gz
Wind_Speed
85 79 69 78 88 86 80 80 76 78 81 79 77 75 76 81 79 78 78 79 75 56 42 37 37 47 44 38 40 36 29 24 21 21 18 17 28 28 29 31 35 29 38 45
86 81 78 81 83 82 76 79 82 81 82 86 81 79 79 80 80 81 82 75 64 52 41 38 40 47 44 39 37 32 25 21 20 19 20 15 32 33 36 33 33 29 35 40
87 82 87 82 81 81 82 84 85 83 87 86 82 77 78 76 79 87 83 67 59 50 40 39 46 46 42 40 34 29 22 19 19 21 19 16 30 40 38 40 38 43 44 44
87 81 81 87 85 90 84 84 87 87 87 86 88 81 71 78 86 82 74 64 54 48 40 43 49 45 44 39 34 28 23 20 22 24 22 17 24 45 45 45 48 49 53 56
83 85 84 83 82 86 79 87 85 86 88 88 78 84 75 83 85 83 74 62 51 44 37 45 49 48 41 37 35 27 23 19 20 23 23 19 18 44 54 52 53 54 52 59
86 89 89 93 92 94 90 91 90 91 87 88 79 91 82 86 88 81 74 53 44 40 39 50 47 45 40 37 34 27 22 19 20 23 24 21 20 29 55 59 60 59 58 57
87 88 90 91 88 91 91 88 89 91 93 92 86 94 88 82 84 68 62 46 42 42 46 48 44 48 44 39 34 30 24 17 19 21 22 21 21 20 48 62 61 64 64 62
92 88 89 89 90 92 95 93 96 97 95 94 92 87 83 83 69 56 51 42 43 47 49 51 51 51 48 38 34 32 26 19 17 19 22 18 20 20 22 58 60 63 62 64
96 88 92 90 93 90 92 94 93 96 97 96 89 86 82 79 68 56 49 37 45 51 51 51 56 54 49 41 37 36 28 20 17 19 20 18 19 17 15 36 53 51 59 65
88 83 88 91 92 93 93 96 100 102 101 97 89 86 85 78 56 41 41 37 48 52 57 56 59 55 49 43 39 37 30 21 21 18 22 18 15 14 11 16 44 45 42 46
85 84 86 92 99 102 103 101 99 99 102 96 86 79 80 61 50 42 41 40 50 60 61 57 53 51 48 43 42 38 29 25 21 21 21 22 16 12 10 11 29 45 43 41
89 90 87 88 97 100 101 101 97 95 98 93 71 62 62 48 47 40 34 44 57 64 64 56 51 54 52 46 45 42 34 28 24 21 22 22 24 13 13 11 17 34 44 42
87 90 92 94 99 102 105 102 99 93 89 81 58 47 47 44 43 36 36 52 63 65 64 52 51 49 48 46 48 42 34 29 26 22 21 17 21 21 14 15 14 22 37 43
76 77 76 79 92 99 99 92 87 78 72 63 50 50 47 38 38 37 48 61 64 63 60 56 53 48 45 41 44 44 37 31 31 25 25 25 21 23 22 17 17 18 24 41
68 68 69 72 74 79 84 79 71 69 62 56 55 48 48 38 41 51 59 63 62 63 62 55 53 53 48 47 46 42 41 38 34 29 29 29 29 27 24 25 21 21 22 23
64 60 60 62 68 68 69 62 64 56 49 46 51 43 40 43 46 62 67 63 65 66 61 61 55 56 53 50 47 42 37 40 41 39 35 34 33 32 26 28 31 28 25 26
55 54 56 57 63 60 54 65 57 49 44 47 44 48 39 46 58 70 72 69 67 70 62 59 56 58 59 53 46 42 36 39 38 38 34 36 34 34 32 31 31 28 30 30
46 48 49 52 56 50 56 54 47 40 47 48 42 39 46 52 68 75 76 74 70 74 68 62 59 60 59 49 46 47 47 43 40 40 35 37 34 29 30 33 30 31 35 32
40 40 41 44 46 44 47 41 40 47 49 46 45 47 54 64 79 84 77 76 75 76 73 66 64 62 64 59 51 53 51 49 43 40 37 37 35 34 34 33 37 37 36 41
29 30 32 35 33 37 37 40 42 44 44 48 51 53 63 76 83 90 82 84 85 73 71 75 68 67 63 67 57 57 48 49 46 44 42 39 42 43 39 37 41 40 44 42
29 29 31 32 34 36 31 38 39 40 44 52 55 58 69 82 86 90 83 80 79 77 76 71 74 70 64 68 66 60 58 55 54 50 48 48 42 47 48 48 44 43 42 41
26 27 29 32 33 28 34 35 37 40 44 53 59 62 69 81 87 91 90 83 80 84 78 72 70 70 69 65 66 69 66 61 57 52 48 50 46 49 46 53 56 58 54 54
25 27 28 31 30 32 34 36 38 39 49 55 57 63 67 79 88 92 90 88 81 82 86 80 79 73 68 66 64 63 64 64 60 55 56 60 60 57 61 62 63 63 56 53
25 25 27 29 31 31 32 34 35 42 48 56 59 61 67 79 86 94 93 86 81 83 79 77 74 74 72 67 62 65 67 65 64 59 60 66 66 65 64 64 62 58 56 58
21 22 22 23 26 29 32 35 36 40 46 53 56 57 63 72 88 93 95 91 87 81 81 81 76 73 68 68 70 71 70 70 68 67 67 68 67 66 65 64 63 63 65 64
17 17 18 19 22 26 29 31 35 41 46 51 55 55 58 63 79 90 99 99 92 85 82 82 82 79 75 71 70 72 69 70 71 72 70 69 71 67 66 68 71 69 67 68

GFSCGP_250_spd_114.txt.gz
Wind_Speed
86 84 79 80 83 80 78 83 78 76 79 80 79 73 76 70 71 74 72 74 73 70 68 67 64 61 53 40 37 38 41 38 34 26 24 19 13 17 27 25 37 56 66 52
93 87 87 87 84 86 83 78 81 82 86 83 82 75 69 70 72 72 75 76 73 72 67 69 68 60 49 36 36 39 40 39 32 26 21 18 13 16 25 25 27 35 67 56
94 91 90 91 91 87 84 79 80 82 86 86 78 62 68 72 75 73 76 76 75 72 66 73 65 52 45 36 35 43 41 38 30 25 22 17 16 17 27 28 27 27 48 50
94 91 92 95 88 88 79 77 86 83 84 83 82 68 68 73 72 73 77 78 73 67 70 70 56 45 41 33 34 44 40 38 28 25 23 19 16 15 33 31 33 32 37 39
96 96 95 93 86 86 80 83 83 81 81 78 75 80 63 70 71 72 79 81 74 71 71 62 54 45 36 34 41 44 39 38 28 25 21 18 16 17 34 35 37 39 38 47
98 96 93 88 84 83 83 82 85 85 82 80 73 82 66 71 75 75 80 79 76 75 65 48 48 45 35 35 46 46 41 37 29 24 22 19 19 16 24 43 43 41 45 48
94 91 89 85 83 85 84 83 86 84 79 74 74 84 77 75 74 76 76 77 74 66 50 47 44 43 35 39 48 48 42 38 29 23 24 19 21 15 20 42 49 51 49 52
85 84 83 80 80 83 83 83 84 84 83 83 79 78 75 69 73 73 74 74 70 64 52 46 43 40 34 39 49 46 42 40 28 23 24 20 21 14 21 21 54 56 58 54
83 84 87 82 80 82 84 86 88 85 81 80 74 73 75 77 78 77 72 70 68 67 50 42 44 41 37 46 49 47 44 40 28 23 21 21 18 15 16 20 28 63 62 61
78 78 80 84 84 87 88 90 90 89 90 86 80 78 80 81 79 77 72 70 70 61 45 42 45 39 41 50 47 44 45 38 30 26 20 21 21 15 15 18 20 43 69 66
75 75 76 82 89 92 94 95 96 95 95 92 83 81 77 74 74 73 72 65 62 48 45 44 45 41 46 51 47 46 47 37 33 26 25 24 21 18 14 14 16 28 53 69
74 73 76 80 85 89 89 91 92 91 90 85 79 74 77 77 77 73 59 57 49 47 46 47 45 44 52 51 50 51 44 38 35 29 27 26 21 20 17 11 13 14 38 54
74 73 74 79 83 85 85 85 86 86 84 79 76 67 74 72 63 52 47 47 43 44 45 47 46 48 52 52 55 52 45 41 39 33 28 27 20 18 17 11 11 10 27 44
72 71 72 75 80 81 84 84 82 79 76 75 67 61 69 63 51 40 41 37 40 42 45 47 48 52 54 51 54 50 44 45 44 39 31 27 21 20 21 17 11 11 13 34
67 63 65 70 77 79 79 77 71 70 69 70 64 44 62 61 47 39 40 39 44 42 45 48 50 55 54 50 59 56 50 47 46 40 33 31 28 24 23 23 20 14 12 15
58 59 60 61 69 74 71 66 68 74 69 63 47 40 61 51 44 48 46 43 46 45 49 52 56 60 55 57 61 59 58 51 49 43 37 36 33 28 25 27 24 19 20 16
53 52 54 55 62 63 53 64 73 76 63 53 37 45 56 54 51 51 48 50 51 54 59 60 60 66 57 59 62 63 60 56 51 46 41 37 35 33 31 32 28 22 25 25
46 47 49 51 57 52 56 62 65 58 50 45 39 47 59 51 47 46 51 55 60 62 67 68 67 65 61 61 64 59 58 55 51 49 45 43 42 39 36 36 30 28 31 30
41 42 44 46 51 48 51 53 51 47 47 40 43 50 54 49 44 51 57 62 70 71 70 73 70 65 66 59 64 47 46 50 50 50 47 46 43 42 41 38 34 30 29 33
34 37 40 42 44 44 50 38 38 41 44 45 49 55 46 47 49 57 62 70 76 74 72 68 70 69 67 61 61 50 52 54 46 52 51 46 46 47 43 42 36 36 38 39
29 31 34 37 38 37 30 32 39 41 47 46 47 47 45 46 52 60 65 78 80 78 76 68 69 62 64 64 66 71 60 55 48 50 51 49 48 45 47 47 44 44 44 46
26 26 28 31 28 28 31 33 36 40 41 40 42 43 46 50 54 61 70 83 86 84 80 73 68 69 69 66 65 63 62 57 56 59 55 53 52 49 46 46 48 48 45 47
21 21 22 24 26 26 28 29 32 35 35 32 34 40 46 51 55 63 76 85 88 85 81 77 74 72 75 69 64 67 64 62 67 62 54 56 56 51 49 49 51 53 54 54
16 18 20 21 22 23 27 29 29 30 30 31 40 44 48 52 57 69 73 87 90 87 80 81 77 77 72 73 71 69 71 69 68 65 64 57 59 56 55 55 53 57 59 62
13 15 16 19 21 23 25 27 28 28 26 27 37 38 44 53 58 65 72 87 85 87 82 80 76 79 77 75 73 70 74 72 72 70 67 66 65 62 59 60 55 55 58 61
15 16 15 16 18 20 21 24 26 27 31 34 38 41 45 51 55 60 72 88 89 82 85 83 81 78 79 75 75 73 74 75 76 77 73 71 73 72 68 68 70 73 71 70

GFSCGP_250_spd_120.txt.gz
Wind_Speed
90 86 78 86 86 84 87 88 84 85 82 80 79 75 72 67 66 65 62 61 61 60 58 59 61 64 67 67 66 66 61 57 51 51 44 31 28 34 34 30 28 29 36 31
89 80 86 86 91 88 86 86 86 89 86 84 82 78 77 73 70 68 67 66 64 63 66 60 64 68 70 69 67 67 59 56 53 49 40 30 29 35 34 31 28 28 30 31
94 93 98 96 95 95 92 87 89 92 92 85 81 77 78 75 74 76 74 72 67 64 61 59 65 67 68 67 65 65 64 55 52 48 39 32 33 37 35 29 30 28 28 34
86 95 99 100 96 95 89 89 93 94 93 85 82 77 81 76 80 81 78 75 70 67 64 62 66 70 69 66 59 60 59 54 56 47 38 33 36 39 35 29 31 25 31 35
79 83 92 96 95 97 84 90 90 92 89 89 79 77 84 77 81 82 81 74 70 68 67 62 67 66 57 60 58 56 57 53 53 46 36 34 37 39 34 29 29 23 33 34
73 79 81 83 84 92 90 91 91 91 89 87 85 84 83 81 85 83 81 76 72 73 68 63 64 59 62 61 55 54 54 50 51 42 35 37 38 38 32 32 30 24 34 32
61 68 74 78 82 84 89 93 94 93 92 84 90 88 83 83 79 78 77 77 76 70 64 61 59 62 58 54 54 53 53 47 50 39 35 39 41 37 33 31 29 27 33 35
63 65 68 73 75 81 87 88 90 91 94 93 94 92 90 83 83 82 79 78 75 68 64 63 60 55 56 54 55 54 51 48 48 38 37 42 44 38 36 32 30 33 29 39
67 66 68 69 71 75 77 80 79 87 84 81 83 84 82 83 83 80 76 71 65 62 61 58 59 61 63 58 56 57 48 47 43 40 39 44 43 39 36 32 29 29 25 43
66 67 70 70 71 73 75 75 78 78 80 77 72 77 83 81 80 78 75 68 63 63 62 60 60 59 58 56 53 54 50 49 43 41 43 47 44 40 37 31 29 21 29 40
62 64 72 70 75 76 74 76 78 79 80 80 79 82 85 78 77 75 72 71 69 64 61 63 64 63 63 56 59 57 53 49 42 45 49 49 41 42 39 33 28 25 20 33
54 60 67 72 73 78 77 77 79 82 80 79 80 84 81 78 79 79 74 71 70 70 67 66 66 64 61 57 60 58 53 52 42 49 55 53 44 45 40 34 29 20 20 25
49 56 61 71 73 76 78 78 81 83 80 80 81 79 76 73 73 72 69 68 71 73 73 72 68 64 64 62 62 57 54 52 44 53 60 55 47 45 40 34 29 25 23 21
46 48 57 65 72 75 78 78 80 78 78 79 75 77 73 74 71 65 63 63 68 72 72 71 70 67 66 61 54 58 53 48 48 58 63 56 51 45 40 34 30 26 24 22
45 48 52 60 66 68 75 79 75 73 73 71 75 74 72 72 65 62 61 59 64 68 65 63 62 60 59 55 54 56 52 44 52 62 64 60 53 48 42 36 31 27 24 22
40 41 44 52 60 64 68 70 69 69 70 69 69 67 71 65 66 64 61 60 61 62 62 62 59 59 58 55 54 55 47 47 56 64 67 63 56 49 46 42 35 32 29 23
35 37 41 48 52 56 56 64 68 68 68 63 63 64 63 62 63 63 62 63 62 60 60 60 61 58 54 53 53 49 44 49 60 68 67 61 57 52 48 45 39 36 32 29
31 34 38 44 46 51 57 58 57 56 58 57 53 57 58 60 61 61 63 64 63 62 60 59 61 57 57 54 50 44 49 52 64 70 65 60 58 54 51 46 43 39 36 31
26 28 34 38 41 44 46 48 49 49 53 53 47 51 55 61 63 60 61 66 64 61 62 63 62 60 59 55 46 48 52 60 71 68 61 60 58 57 54 49 42 41 38 35
23 25 29 34 35 37 39 44 47 46 50 44 48 52 56 58 61 63 66 65 66 64 64 66 65 64 57 53 49 53 56 69 74 68 60 59 60 60 57 50 43 39 40 42
18 20 23 25 27 29 30 35 40 42 45 45 46 49 51 55 55 58 62 63 63 64 65 66 65 66 60 49 51 56 62 62 68 68 63 61 60 59 60 54 49 44 46 46
15 16 18 20 21 25 29 32 35 38 41 41 44 44 46 44 48 49 49 53 58 62 65 63 65 62 61 49 53 62 78 68 71 68 66 64 63 61 60 57 56 53 51 51
12 13 15 17 18 21 22 25 29 34 35 37 35 36 32 31 41 41 43 47 49 51 56 61 59 61 54 50 56 70 73 68 64 65 69 66 60 58 59 60 58 55 55 55
11 11 13 15 17 18 19 19 20 23 25 28 30 28 32 37 39 39 41 43 44 46 48 51 56 57 54 53 62 79 81 78 64 61 62 62 57 58 56 60 58 59 56 58
11 9 10 10 13 15 16 17 18 16 18 23 26 28 31 32 34 36 39 41 43 44 44 44 46 49 51 56 71 81 77 79 67 54 59 57 48 48 51 51 55 59 60 57
11 11 11 10 7 8 11 12 14 17 19 20 20 23 26 28 30 34 38 40 43 44 43 43 46 48 53 62 81 83 79 75 74 69 65 66 60 53 52 55 53 59 63 64

GFSCGP_250_spd_123.txt.gz
Wind_Speed
84 83 81 83 84 84 90 92 88 83 87 94 87 83 83 82 78 75 80 78 73 68 65 60 56 53 51 51 54 56 61 64 68 67 64 64 62 54 43 34 37 37 35 35
85 78 85 85 85 84 88 88 86 90 92 95 90 88 85 84 78 73 78 78 78 73 67 65 59 56 53 53 53 57 61 61 66 63 65 63 61 52 41 34 39 37 32 35
79 78 80 83 84 87 89 87 88 92 96 95 88 85 84 82 83 82 79 76 79 75 74 69 65 62 60 58 58 51 60 62 65 62 60 59 56 53 39 36 40 39 33 33
68 71 73 75 81 88 87 89 91 95 94 90 94 85 85 85 85 82 85 84 79 78 74 72 70 66 65 61 59 55 59 65 64 56 55 57 56 49 36 36 42 38 34 30
66 68 72 73 75 82 78 90 93 96 95 91 89 90 85 90 82 83 84 83 80 76 76 73 72 70 66 66 64 57 59 63 64 55 58 56 53 44 35 36 42 37 36 30
67 70 70 69 75 78 78 83 85 95 102 103 88 93 89 92 89 92 85 82 80 79 77 74 71 72 67 63 68 57 61 63 60 59 58 54 52 38 33 36 41 38 37 29
68 67 67 69 69 73 76 80 82 84 93 99 99 100 90 90 94 91 82 79 78 76 73 74 73 74 71 70 69 61 61 61 56 57 54 53 48 33 33 38 40 40 35 30
69 69 74 68 67 72 73 75 77 79 81 85 96 100 88 91 89 82 76 81 82 78 75 74 74 76 76 75 68 63 62 57 55 54 52 51 46 33 37 41 41 41 38 33
64 68 76 66 68 70 73 70 70 77 80 80 80 85 92 88 82 82 82 87 84 84 80 74 73 73 71 68 65 64 63 55 53 53 57 53 40 31 39 41 42 40 34 32
59 60 65 68 65 68 72 71 74 75 73 70 74 80 83 86 85 84 82 86 83 80 80 77 74 76 73 69 65 60 59 59 57 56 53 53 37 32 41 42 44 42 35 36
56 54 56 65 63 67 71 74 74 75 71 67 68 73 76 81 83 86 86 86 81 78 77 77 77 76 72 63 59 59 58 57 54 48 52 46 39 36 44 44 45 44 38 35
54 48 52 59 66 62 69 71 75 74 72 67 67 70 73 79 78 80 81 86 80 78 76 77 78 73 68 62 62 61 60 57 48 57 53 48 39 42 47 47 47 44 37 34
47 48 48 54 63 56 67 71 72 76 75 69 69 69 72 79 77 79 80 77 69 73 77 78 77 73 67 65 64 61 62 55 61 62 53 47 38 49 53 49 50 47 41 35
46 46 47 49 58 59 65 70 68 74 72 73 71 74 77 79 85 81 77 75 74 75 74 76 77 71 68 69 65 65 67 67 65 59 53 49 40 54 55 53 52 48 43 38
41 40 41 42 51 58 57 63 66 68 70 73 76 78 79 78 72 70 74 76 77 79 79 77 73 68 74 70 70 72 72 69 63 57 58 56 44 60 58 56 53 50 43 38
37 36 38 41 47 52 53 59 65 62 69 71 74 72 73 77 70 59 66 71 77 79 73 67 67 65 69 75 75 73 72 70 65 63 60 54 50 64 61 59 55 50 45 39
32 32 34 42 43 46 47 53 61 64 65 66 70 69 71 66 56 57 58 65 67 67 65 66 64 64 66 70 72 69 70 70 66 61 59 49 54 69 65 62 57 50 45 41
26 28 29 34 39 44 47 51 56 56 54 57 59 61 62 60 49 58 65 62 63 63 64 61 59 61 61 61 64 63 62 61 60 60 59 48 57 73 66 63 58 51 47 44
23 24 27 28 32 38 41 46 49 52 55 54 46 50 50 50 59 70 62 64 63 59 60 61 59 59 60 62 63 62 61 63 60 60 51 52 59 73 64 63 61 55 50 47
18 19 22 24 25 31 35 39 43 45 49 46 44 48 53 56 60 66 68 65 66 62 57 59 59 61 62 61 61 61 62 60 58 49 48 54 61 72 66 64 62 55 53 50
16 18 19 20 21 24 29 33 37 41 44 44 49 53 54 57 57 63 67 68 68 66 62 62 61 62 64 64 63 64 60 53 46 46 50 55 66 69 66 65 63 56 51 51
14 16 18 18 20 22 25 30 33 37 39 43 46 50 52 55 55 57 59 60 57 56 57 60 61 61 63 64 62 60 55 48 45 49 51 59 66 67 66 65 62 60 54 50
13 13 15 16 17 20 22 27 30 33 35 38 40 43 47 48 44 45 50 53 52 52 53 54 58 59 56 54 56 53 45 44 50 51 54 51 57 66 69 67 66 57 62 59
11 11 11 12 14 17 18 21 24 26 25 28 30 33 36 37 39 44 44 45 45 46 47 47 50 53 52 50 47 47 43 50 56 55 64 59 66 65 66 66 64 67 62 59
10 10 11 11 10 13 15 17 19 19 23 27 31 33 34 38 40 39 38 39 42 41 41 43 45 46 46 42 43 39 48 57 65 69 65 72 60 65 61 62 64 61 61 62
11 12 13 15 14 12 15 18 20 21 22 24 27 28 30 32 32 33 34 35 37 37 38 39 40 39 42 43 41 42 54 60 68 68 66 68 58 56 62 63 64 62 61 60

GFSCGP_250_spd_129.txt.gz
Wind_Speed
97 98 99 103 104 104 108 109 105 109 112 118 121 121 110 107 105 104 102 102 99 92 83 81 81 76 73 66 63 59 63 60 57 57 55 56 52 46 44 46 45 49 46 50
103 104 108 108 110 115 112 109 111 109 108 112 110 105 93 97 100 99 93 93 96 90 86 88 87 78 71 65 62 64 69 61 57 56 53 51 53 53 52 52 48 47 49 50
106 111 113 115 113 106 99 101 101 100 97 100 104 99 90 86 88 91 87 86 86 85 86 91 90 80 73 63 60 69 69 67 62 57 54 50 52 55 56 55 50 46 50 51
110 112 105 101 98 101 96 95 97 93 91 89 91 91 75 77 79 84 85 80 79 79 85 91 86 82 76 67 61 67 66 62 60 58 58 53 51 52 55 57 54 45 54 53
107 102 100 99 95 95 93 86 91 88 86 86 68 86 57 68 69 75 82 79 78 78 81 81 81 79 75 70 71 68 63 59 57 57 56 55 52 55 52 58 50 51 57 53
96 98 98 96 90 87 88 85 83 82 79 81 56 73 54 65 64 73 78 81 80 80 77 75 74 76 78 73 73 72 67 61 58 54 56 54 53 55 52 59 59 56 54 55
97 96 96 93 86 80 83 82 78 79 73 73 58 69 52 59 66 67 71 79 83 82 77 74 71 71 74 79 79 75 70 67 67 65 61 59 56 58 53 58 60 56 52 54
94 85 89 87 86 77 75 77 76 75 67 64 62 55 41 62 70 66 68 75 80 84 82 74 76 77 74 75 76 73 72 69 68 69 67 62 60 60 58 56 58 55 54 56
88 82 77 78 85 88 70 71 72 77 69 65 56 55 50 62 60 63 66 69 72 80 83 79 80 81 78 73 76 74 73 72 70 69 59 62 63 61 60 55 53 54 55 54
86 76 67 74 77 80 77 66 67 69 66 64 55 53 54 58 60 54 61 64 68 77 84 85 83 85 86 82 81 79 76 76 72 68 64 60 62 59 56 55 56 58 57 52
83 76 61 68 71 71 75 64 62 63 64 59 56 50 53 54 58 54 55 60 62 69 80 87 89 86 85 85 82 78 75 77 73 64 65 65 63 59 54 54 56 57 54 52
81 73 64 65 64 61 61 60 58 61 59 55 52 48 51 54 57 53 50 60 60 66 72 79 89 90 87 81 78 81 83 80 73 69 68 69 65 62 55 54 55 53 53 51
73 71 64 59 56 53 51 50 53 54 49 49 49 52 50 56 55 56 57 61 61 65 68 70 75 81 89 83 81 82 77 74 73 70 67 65 67 64 58 57 56 51 50 48
67 62 55 51 49 44 42 40 45 43 38 43 49 50 47 55 55 59 63 69 69 63 65 65 69 69 66 72 83 82 80 76 73 69 67 65 64 63 59 58 51 48 44 42
60 52 48 45 44 38 33 36 36 34 37 39 46 45 48 56 56 64 72 71 69 53 51 58 60 61 64 67 70 71 72 70 70 68 66 65 64 61 57 53 50 51 49 44
50 45 43 41 40 35 31 30 32 32 36 46 47 43 47 54 54 63 68 68 64 63 50 50 54 63 63 60 65 68 67 67 67 64 61 62 61 58 57 55 55 58 51 45
44 41 37 37 38 35 28 29 27 30 37 42 45 43 46 56 57 62 64 60 62 56 46 40 49 56 60 61 63 65 66 68 69 68 64 62 60 56 56 58 57 60 58 45
35 33 32 30 31 29 23 27 27 32 35 39 41 40 47 52 53 56 55 54 51 54 52 40 39 45 57 61 63 66 70 71 72 72 72 66 64 62 62 58 57 56 53 46
32 31 29 27 27 27 24 25 27 30 33 37 41 41 47 51 49 53 51 48 41 40 36 30 37 42 53 62 62 63 67 67 69 71 72 68 65 66 66 64 61 58 57 55
29 27 26 25 25 25 22 21 24 28 30 35 36 40 44 46 43 44 43 41 39 40 42 37 36 41 50 61 70 70 69 68 66 65 66 65 70 67 64 63 67 66 65 62
24 23 21 21 20 21 19 20 22 24 26 28 33 40 42 37 38 39 44 45 45 46 45 47 49 52 59 65 68 74 73 74 73 73 72 71 68 72 70 71 68 67 65 65
21 19 18 18 20 20 19 20 22 22 25 29 32 36 36 32 36 41 42 45 47 49 52 54 55 58 60 62 65 67 73 80 80 80 80 78 78 78 73 72 74 70 68 64
18 15 16 16 17 17 18 17 16 19 21 24 28 31 31 34 38 41 44 45 46 47 47 47 47 48 52 58 62 65 68 71 76 81 81 79 79 78 73 67 68 74 65 54
16 14 13 13 13 14 15 13 13 14 16 19 22 27 28 30 32 37 41 44 45 45 42 41 40 42 45 47 51 57 58 62 65 68 72 74 74 69 63 59 59 56 43 36
15 11 10 11 12 13 12 12 13 14 15 18 21 24 26 29 32 34 35 36 36 37 36 35 36 39 43 43 43 45 50 56 59 63 65 65 65 64 60 54 55 46 41 32
14 10 9 10 11 12 12 13 12 14 16 19 21 24 26 29 31 32 32 31 32 31 31 33 34 36 37 41 43 44 47 50 53 53 54 53 58 62 58 54 51 53 51 59

GFSCGP_250_spd_132.txt.gz
Wind_Speed
83 83 86 88 90 92 94 96 96 97 102 106 105 105 100 101 102 96 96 97 102 103 101 100 96 93 91 82 80 77 72 66 61 63 63 61 61 58 57 52 49 47 45 45
85 86 90 92 95 96 98 103 104 103 106 113 113 105 90 87 93 96 94 96 94 92 93 94 94 95 93 86 83 79 74 70 66 67 64 64 64 59 57 54 52 46 45 48
87 93 95 97 101 104 106 111 111 110 110 108 108 99 93 90 89 93 95 97 93 90 90 92 89 89 86 85 84 82 77 72 71 68 65 66 66 64 57 56 52 46 45 46
94 99 101 104 107 111 105 115 113 106 101 99 105 102 92 92 88 89 90 94 90 87 88 91 80 82 83 84 85 82 78 75 74 70 66 63 63 64 64 59 54 46 46 49
93 97 102 104 104 105 101 102 104 105 106 106 94 104 89 88 83 81 84 83 87 85 85 78 79 79 76 75 74 76 77 74 76 73 69 64 59 60 62 61 59 51 48 48
87 91 95 96 99 103 103 102 103 106 107 110 94 96 93 70 70 78 81 80 81 78 72 74 75 74 72 70 65 68 69 73 75 75 72 66 60 54 56 57 58 51 46 46
89 93 100 101 102 104 105 106 102 102 101 105 92 92 78 63 64 76 82 78 72 76 67 66 68 69 68 62 63 65 63 67 71 71 73 67 64 65 58 53 53 52 49 48
91 93 98 104 104 102 102 102 102 101 92 91 86 78 65 71 62 66 72 73 68 69 67 62 64 65 65 60 64 68 66 64 66 74 73 72 66 58 55 57 55 54 54 57
97 95 96 96 100 106 96 92 90 92 86 81 72 77 69 61 58 56 63 67 62 64 67 65 61 63 64 67 67 70 65 66 66 68 67 69 69 68 66 64 60 63 59 53
97 92 94 92 90 85 97 85 80 81 81 73 69 74 62 54 53 55 57 60 59 56 64 66 62 59 66 68 68 67 65 68 70 69 69 70 70 68 67 63 59 58 55 52
101 96 86 81 77 75 84 80 75 75 76 70 66 70 53 47 49 51 51 57 58 58 59 65 62 62 66 71 69 68 66 66 66 64 65 66 65 64 63 62 59 55 52 49
98 89 80 76 72 70 70 72 70 69 69 61 57 58 48 41 46 49 52 57 60 58 61 62 60 61 63 70 72 75 75 75 73 71 73 69 66 64 66 65 61 56 53 51
88 84 75 73 71 64 63 59 57 56 55 53 41 39 37 37 45 49 56 58 58 60 60 55 55 56 60 66 75 78 83 82 73 71 71 70 69 69 67 66 62 55 56 54
77 75 69 66 64 56 52 48 49 48 45 41 33 37 36 39 46 54 58 64 63 58 63 57 50 53 50 59 72 82 83 79 78 78 78 76 74 71 67 67 65 59 60 57
71 68 63 56 51 45 43 42 43 39 35 35 33 39 39 42 49 56 61 64 62 63 57 52 53 50 51 58 66 78 79 80 80 78 77 75 73 73 72 70 63 59 60 58
62 63 58 46 44 41 36 37 37 37 32 33 31 39 41 47 52 57 60 64 63 66 65 63 62 57 58 50 57 63 70 78 80 78 79 77 75 73 70 66 63 60 57 56
57 55 50 44 41 38 33 33 34 31 29 31 32 38 44 49 50 55 56 57 60 63 65 65 63 59 53 51 53 55 60 64 70 77 80 79 76 73 71 70 64 63 61 59
51 45 42 40 36 31 27 26 28 26 28 29 32 36 44 46 48 51 51 55 58 52 52 56 56 56 46 51 47 48 53 56 59 65 68 67 66 69 69 66 61 61 60 55
43 39 37 32 30 28 24 20 22 25 25 27 31 34 40 43 44 47 48 49 49 50 53 51 46 41 40 45 48 47 49 53 54 59 65 67 66 64 62 58 59 57 56 49
38 33 31 28 26 25 20 18 19 21 22 25 26 30 34 39 40 41 39 37 39 40 45 48 48 44 42 36 40 46 53 57 57 61 68 69 66 67 67 64 60 59 57 51
32 29 26 25 24 22 19 18 19 20 20 24 26 28 31 33 33 37 40 43 43 46 50 52 54 55 54 49 41 44 56 63 64 67 69 71 72 71 68 66 65 65 63 59
27 24 23 23 21 18 19 16 18 18 19 20 21 23 24 28 32 36 37 40 43 43 45 49 54 56 58 61 61 58 61 70 74 76 76 77 77 77 77 75 71 68 63 63
22 21 21 20 17 16 15 15 16 15 15 17 19 18 22 26 29 32 35 36 38 42 45 47 51 55 58 64 64 67 72 76 81 78 73 75 78 78 77 73 66 66 65 65
19 18 18 16 14 12 12 13 13 14 13 15 17 17 20 24 26 30 35 39 41 43 43 42 44 46 49 64 69 71 70 70 71 70 69 73 75 76 77 75 69 66 66 73
16 16 16 14 10 9 10 10 12 13 14 14 15 17 18 21 25 28 29 33 39 43 45 45 44 44 46 52 60 66 69 69 70 65 61 65 69 73 76 74 70 70 71 67
16 15 15 13 9 7 7 9 12 13 13 15 16 17 20 22 24 25 26 29 32 34 36 38 41 42 42 44 47 53 56 60 63 67 66 60 60 63 66 71 72 72 72 73

GFSCGP_250_spd_135.txt.gz
Wind_Speed
76 78 80 80 82 82 79 79 79 83 89 90 92 88 84 90 93 94 96 98 99 99 99 99 94 88 83 79 80 77 83 84 81 77 74 68 68 63 61 54 56 51 50 52
73 75 76 79 80 80 82 82 83 84 90 97 97 94 91 96 100 99 99 100 98 95 94 96 94 88 86 82 76 74 78 81 79 78 77 72 73 69 66 62 58 54 55 51
83 86 81 82 83 85 87 89 88 90 94 99 102 96 95 94 93 94 94 93 94 95 98 99 95 88 88 85 78 76 75 74 78 79 75 78 76 74 71 69 64 63 58 51
88 86 88 89 83 80 83 87 89 91 93 94 97 99 85 91 93 96 98 99 97 99 103 97 90 91 89 85 78 76 79 79 77 80 80 80 79 75 75 72 69 62 59 55
86 87 90 85 82 84 85 87 88 93 98 103 90 110 90 93 95 98 101 101 100 99 98 95 89 88 83 80 76 76 78 82 81 77 80 84 85 77 74 70 69 64 58 54
88 94 95 94 95 92 92 92 92 93 97 102 99 107 96 92 94 95 97 98 97 95 93 90 84 82 78 74 70 73 77 78 81 79 77 82 84 79 69 65 64 63 56 54
90 98 99 101 103 102 101 98 96 98 101 103 101 103 101 97 97 94 93 90 89 88 88 84 79 78 74 68 69 71 75 76 78 75 75 78 77 77 70 66 67 64 57 51
98 99 104 108 106 101 105 101 102 103 100 100 101 101 97 99 96 91 86 80 76 78 80 77 73 69 66 63 67 66 70 72 71 71 70 73 75 73 74 70 68 63 57 54
100 102 109 113 113 111 109 108 111 109 102 103 94 92 96 92 88 84 74 72 69 70 75 69 65 59 57 62 64 67 66 68 69 69 70 69 69 70 70 69 67 64 63 60
112 114 118 123 119 116 110 115 110 110 108 101 91 86 82 83 80 67 64 65 66 62 67 61 56 55 54 60 65 64 63 68 70 69 65 66 66 64 66 67 65 65 60 59
119 120 122 123 117 115 118 108 101 96 94 93 87 81 75 72 64 54 57 58 59 55 57 55 51 51 54 58 61 59 67 70 69 64 64 67 69 66 63 63 68 66 64 64
116 119 116 114 112 109 106 101 87 82 78 81 79 70 66 63 52 49 50 51 52 48 49 48 50 51 52 51 50 56 65 67 67 66 65 67 67 65 64 65 62 61 59 60
114 114 110 106 100 97 94 85 78 72 70 70 65 59 52 49 44 46 48 45 44 43 33 41 42 48 51 51 52 56 62 67 68 70 70 70 69 67 66 71 67 65 62 60
101 99 97 94 91 85 77 74 72 69 63 56 49 43 45 42 41 44 44 43 43 43 43 40 41 44 48 52 53 54 57 64 70 71 69 70 70 70 73 73 66 57 58 57
92 93 86 82 75 72 68 64 57 56 48 45 38 38 40 38 42 44 45 47 49 52 55 62 68 66 60 56 53 53 57 59 66 71 71 69 66 63 62 60 61 64 58 57
80 78 73 69 66 64 58 49 44 41 38 38 33 35 37 39 43 47 50 51 52 53 56 63 69 68 60 56 54 52 52 60 63 74 74 72 70 70 69 70 71 70 63 59
68 66 65 62 59 55 46 38 40 38 35 30 29 33 35 38 42 48 54 56 59 58 59 61 59 55 57 58 59 58 55 57 63 68 76 77 76 77 75 73 73 70 70 68
61 58 57 54 47 42 40 35 35 34 30 29 28 32 32 35 41 50 51 55 56 57 58 58 59 61 71 66 63 59 57 55 62 66 72 80 81 81 81 79 78 76 73 70
54 53 50 42 39 39 35 32 30 31 29 26 25 28 30 32 35 42 48 47 52 51 48 52 59 65 65 64 62 54 46 48 55 58 66 73 77 84 84 81 79 77 76 72
50 46 38 36 35 34 29 26 26 27 27 26 24 26 29 28 32 35 41 46 45 51 54 53 56 61 61 62 58 50 44 40 51 57 58 65 71 77 82 85 83 82 78 75
44 39 34 32 31 28 25 22 21 20 22 21 22 21 22 26 28 27 27 35 44 49 54 57 59 63 64 57 59 57 58 52 54 56 60 63 66 69 74 78 78 81 81 78
37 35 33 30 27 24 21 19 18 17 16 17 18 17 17 22 25 28 32 36 40 46 53 58 63 63 65 68 69 67 63 63 63 63 66 65 66 69 72 71 71 72 73 70
33 30 30 27 22 20 19 16 15 15 14 14 15 16 18 20 25 30 33 34 36 40 44 50 54 57 62 64 68 67 64 63 67 66 73 70 71 73 74 74 73 74 73 67
30 28 24 22 19 17 16 13 13 12 13 15 15 16 17 20 22 26 31 37 40 42 44 47 49 53 58 63 65 66 65 68 70 71 71 70 70 72 75 77 76 74 73 70
28 25 22 18 16 15 13 11 11 11 13 14 15 16 17 19 20 24 29 33 37 41 44 45 48 50 53 55 58 60 62 62 68 74 73 69 61 60 60 66 72 75 74 74
26 23 19 16 16 14 13 11 8 10 11 13 14 16 17 19 21 21 24 29 32 34 37 39 40 42 44 46 49 52 57 58 63 68 73 75 71 65 54 49 60 65 70 73